[[{"header":{"parameterUnit":"m.s-1","parameterCategory":1,"la1":31.0,"la2":29.5877,"lo1":-88.7671,"lo2":-86.6584,"dx":0.0162,"dy":0.0185,"nx":115,"ny":88,"refTime":"2022-11-29T06:00:00:Z","depth":0,"parameterNumber":2,"parameterNumberName":"U-component_of_WINDS"},"data":[0.0,0.0,0.0,0.0,0.0,0.0,0.0,0.0,0.0,0.0,0.0,0.0,0.0,0.0,0.0,0.0,0.0,0.0,0.0,0.0,0.0,0.0,0.0,0.0,0.0,0.0,0.0,0.0,0.0,0.0,0.0,0.0,0.0,0.0,0.0,0.0,0.0,0.0,0.0,0.0,0.0,0.0,0.0,0.0,0.0,0.0,0.0,0.0,0.0,0.0,0.0,0.0,0.0,0.0,0.0,0.0,0.0,0.0,0.0,0.0,0.0,0.0,0.0,0.0,0.0,0.0,0.0,0.0,0.0,0.0,0.0,0.0,0.0,0.0,0.0,0.0,0.0,0.0,0.0,0.0,0.0,0.0,0.0,0.0,0.0,0.0,0.0,0.0,0.0,0.0,0.0,0.0,0.0,0.0,0.0,0.0,0.0,0.0,0.0,0.0,0.0,0.0,0.0,0.0,0.0,0.0,0.0,0.0,0.0,0.0,0.0,0.0,0.0,0.0,0.0,0.0,0.0,0.0,0.0,0.0,0.0,0.0,0.0,0.0,0.0,0.0,0.0,0.0,0.0,0.0,0.0,0.0,0.0,0.0,0.0,0.0,0.0,0.0,0.0,0.0,0.0,0.0,0.0,0.0,0.0,0.0,0.0,0.0,0.0,0.0,0.0,0.0,0.0,0.0,0.0,0.0,0.0,0.0,0.0,0.0,0.0,0.0,0.0,0.0,0.0,0.0,0.0,0.0,0.0,0.0,0.0,0.0,0.0,0.0,0.0,0.0,0.0,0.0,0.0,0.0,0.0,0.0,0.0,0.0,0.0,0.0,0.0,0.0,0.0,0.0,0.0,0.0,0.0,0.0,0.0,0.0,0.0,0.0,0.0,0.0,0.0,0.0,0.0,0.0,0.0,0.0,0.0,0.0,0.0,0.0,0.0,0.0,0.0,0.0,0.0,0.0,0.0,0.0,0.0,0.0,0.0,0.0,0.0,0.0,0.0,0.0,0.0,0.0,0.0,0.0,0.0,0.0,0.0,0.0,0.0,0.0,0.0,0.0,0.0,0.0,0.0,0.0,0.0,0.0,0.0,0.0,0.0,0.0,0.0,0.0,0.0,0.0,0.0,0.0,0.0,0.0,0.0,0.0,0.0,0.0,0.0,0.0,0.0,0.0,0.0,0.0,0.0,0.0,0.0,0.0,0.0,0.0,0.0,0.0,0.0,0.0,0.0,0.0,0.0,0.0,0.0,0.0,0.0,0.0,0.0,0.0,0.0,0.0,0.0,0.0,0.0,0.0,0.0,0.0,0.0,0.0,0.0,0.0,0.0,0.0,0.0,0.0,0.0,0.0,0.0,0.0,0.0,0.0,0.0,0.0,0.0,0.0,0.0,0.0,0.0,0.0,0.0,0.0,0.0,0.0,0.0,0.0,0.0,0.0,0.0,0.0,0.0,0.0,0.0,0.0,0.0,0.0,0.0,0.0,0.0,0.0,0.0,0.0,0.0,0.0,0.0,0.0,0.0,0.0,0.0,0.0,0.0,0.0,0.0,0.0,0.0,0.0,0.0,0.0,0.0,0.0,0.0,0.0,0.0,0.0,0.0,0.0,0.0,0.0,0.0,0.0,0.0,0.0,0.0,0.0,0.0,0.0,0.0,0.0,0.0,0.0,0.0,0.0,0.0,0.0,0.0,0.0,0.0,0.0,0.0,0.0,0.0,0.0,0.0,0.0,0.0,0.0,0.0,0.0,0.0,0.0,0.0,0.0,0.0,0.0,0.0,0.0,0.0,0.0,0.0,0.0,0.0,0.0,0.0,0.0,0.0,0.0,0.0,0.0,0.0,0.0,0.0,0.0,0.0,0.0,0.0,0.0,0.0,0.0,0.0,0.0,0.0,0.0,0.0,0.0,0.0,0.0,0.0,0.0,0.0,0.0,0.0,0.0,0.0,0.0,0.0,0.0,0.0,0.0,0.0,0.0,0.0,0.0,0.0,0.0,0.0,0.0,0.0,0.0,0.0,0.0,0.0,0.0,0.0,0.0,0.0,0.0,0.0,0.0,0.0,0.0,0.0,0.0,0.0,0.0,0.0,0.0,0.0,0.0,0.0,0.0,0.0,0.0,0.0,0.0,0.0,0.0,0.0,0.0,0.0,0.0,0.0,0.0,0.0,0.0,0.0,0.0,0.0,0.0,0.0,0.0,0.0,0.0,0.0,0.0,0.0,0.0,0.0,0.0,0.0,0.0,0.0,0.0,0.0,0.0,0.0,0.0,0.0,0.0,0.0,0.0,0.0,0.0,0.0,0.0,0.0,0.0,0.0,0.0,0.0,0.0,0.0,0.0,0.0,0.0,0.0,0.0,0.0,0.0,0.0,0.0,0.0,0.0,0.0,0.0,0.0,0.0,0.0,0.0,0.0,0.0,0.0,0.0,0.0,0.0,0.0,0.0,0.0,0.0,0.0,0.0,0.0,0.0,0.0,0.0,0.0,0.0,0.0,0.0,0.0,0.0,0.0,0.0,0.0,0.0,0.0,0.0,0.0,0.0,0.0,0.0,0.0,0.0,0.0,0.0,0.0,0.0,0.0,0.0,0.0,0.0,0.0,0.0,0.0,0.0,0.0,0.0,0.0,0.0,0.0,0.0,0.0,0.0,0.0,0.0,0.0,0.0,0.0,0.0,0.0,0.0,0.0,0.0,0.0,0.0,0.0,0.0,0.0,0.0,0.0,0.0,0.0,0.0,0.0,0.0,0.0,0.0,0.0,0.0,0.0,0.0,0.0,0.0,0.0,0.0,0.0,0.0,0.0,0.0,0.0,0.0,0.0,0.0,0.0,0.0,0.0,0.0,0.0,0.0,0.0,0.0,0.0,0.0,0.0,0.0,0.0,0.0,0.0,0.0,0.0,0.0,0.0,0.0,0.0,0.0,0.0,0.0,0.0,0.0,0.0,0.0,0.0,0.0,0.0,0.0,0.0,0.0,0.0,0.0,0.0,0.0,0.0,0.0,0.0,0.0,0.0,0.0,0.0,0.0,0.0,0.0,0.0,0.0,0.0,0.0,0.0,0.0,0.0,0.0,0.0,0.0,0.0,0.0,0.0,0.0,0.0,0.0,0.0,0.0,0.0,0.0,0.0,0.0,0.0,0.0,0.0,0.0,0.0,0.0,0.0,0.0,0.0,0.0,0.0,0.0,0.0,0.0,0.0,0.0,0.0,0.0,0.0,0.0,0.0,0.0,0.0,0.0,0.0,0.0,0.0,0.0,0.0,0.0,0.0,0.0,0.0,0.0,0.0,0.0,0.0,0.0,0.0,0.0,0.0,0.0,0.0,0.0,0.0,0.0,0.0,0.0,0.0,0.0,0.0,0.0,0.0,0.0,0.0,0.0,0.0,0.0,0.0,0.0,0.0,0.0,0.0,0.0,0.0,0.0,0.0,0.0,0.0,0.0,0.0,0.0,0.0,0.0,0.0,0.0,0.0,0.0,0.0,0.0,0.0,0.0,0.0,0.0,0.0,0.0,0.0,0.0,0.0,0.0,0.0,0.0,0.0,0.0,0.0,0.0,0.0,0.0,0.0,0.0,0.0,0.0,0.0,0.0,0.0,0.0,0.0,0.0,0.0,0.0,0.0,0.0,0.0,0.0,0.0,0.0,0.0,0.0,0.0,0.0,0.0,0.0,0.0,0.0,0.0,0.0,0.0,0.0,0.0,0.0,0.0,0.0,0.0,0.0,0.0,0.0,0.0,0.0,0.0,0.0,0.0,0.0,0.0,0.0,0.0,0.0,0.0,0.0,0.0,0.0,0.0,0.0,0.0,0.0,0.0,0.0,0.0,0.0,0.0,0.0,0.0,0.0,0.0,0.0,0.0,0.0,0.0,0.0,0.0,0.0,0.0,0.0,0.0,0.0,0.0,0.0,0.0,0.0,0.0,0.0,0.0,0.0,0.0,0.0,0.0,0.0,0.0,0.0,0.0,0.0,0.0,0.0,0.0,0.0,0.0,0.0,0.0,0.0,0.0,0.0,0.0,0.0,0.0,0.0,0.0,0.0,0.0,0.0,0.0,0.0,0.0,0.0,0.0,0.0,0.0,0.0,0.0,0.0,0.0,0.0,0.0,0.0,0.0,0.0,0.0,0.0,0.0,0.0,0.0,0.0,0.0,0.0,0.0,0.0,0.0,0.0,0.0,0.0,0.0,0.0,0.0,0.0,0.0,0.0,0.0,0.0,0.0,0.0,0.0,0.0,0.0,0.0,0.0,0.0,-1.2305,0.0,0.0,0.0,-1.2305,0.0,0.0,0.0,0.0,0.0,0.0,0.0,0.0,0.0,0.0,0.0,0.0,0.0,0.0,0.0,0.0,0.0,0.0,0.0,0.0,0.0,0.0,0.0,0.0,0.0,0.0,0.0,0.0,0.0,0.0,0.0,0.0,0.0,0.0,0.0,0.0,0.0,0.0,0.0,0.0,0.0,0.0,0.0,0.0,0.0,0.0,0.0,0.0,0.0,0.0,0.0,0.0,0.0,0.0,0.0,0.0,0.0,0.0,0.0,0.0,0.0,0.0,0.0,0.0,0.0,0.0,0.0,0.0,0.0,0.0,0.0,0.0,0.0,0.0,0.0,0.0,0.0,0.0,0.0,0.0,0.0,0.0,0.0,0.0,0.0,0.0,0.0,0.0,0.0,0.0,0.0,0.0,0.0,0.0,0.0,0.0,0.0,0.0,0.0,0.0,0.0,0.0,0.0,0.0,0.0,0.0,0.0,0.0,0.0,0.0,-1.2305,-1.2305,-1.2305,-1.2305,-1.2305,0.0,0.0,0.0,0.0,0.0,0.0,0.0,0.0,0.0,0.0,0.0,0.0,0.0,0.0,0.0,0.0,0.0,0.0,0.0,0.0,0.0,0.0,0.0,0.0,0.0,0.0,0.0,0.0,0.0,0.0,0.0,0.0,0.0,0.0,0.0,0.0,0.0,0.0,0.0,0.0,0.0,0.0,0.0,0.0,0.0,0.0,0.0,0.0,0.0,0.0,0.0,0.0,0.0,0.0,0.0,0.0,0.0,0.0,0.0,0.0,0.0,0.0,0.0,0.0,0.0,0.0,0.0,0.0,0.0,0.0,0.0,0.0,0.0,0.0,0.0,0.0,0.0,0.0,0.0,0.0,0.0,0.0,0.0,0.0,0.0,0.0,0.0,0.0,0.0,0.0,0.0,0.0,0.0,0.0,0.0,0.0,0.0,0.0,0.0,0.0,0.0,0.0,0.0,0.0,0.0,0.0,0.0,0.0,0.0,0.0,0.0,0.0,-1.2305,-1.2305,-1.2305,0.0,0.0,0.0,0.0,0.0,0.0,0.0,0.0,0.0,0.0,0.0,0.0,0.0,0.0,0.0,0.0,0.0,0.0,0.0,0.0,0.0,0.0,0.0,0.0,0.0,0.0,0.0,0.0,0.0,0.0,0.0,0.0,0.0,0.0,0.0,0.0,0.0,0.0,0.0,0.0,0.0,0.0,0.0,0.0,0.0,0.0,0.0,0.0,0.0,0.0,0.0,0.0,0.0,0.0,0.0,0.0,0.0,0.0,0.0,0.0,0.0,0.0,0.0,0.0,0.0,0.0,0.0,0.0,0.0,0.0,0.0,0.0,0.0,0.0,0.0,0.0,0.0,0.0,0.0,0.0,0.0,0.0,0.0,0.0,0.0,0.0,0.0,0.0,0.0,0.0,0.0,0.0,0.0,0.0,0.0,0.0,0.0,0.0,0.0,0.0,0.0,0.0,0.0,0.0,0.0,0.0,0.0,0.0,0.0,0.0,-1.2305,-1.2305,-1.2305,0.0,-1.2305,0.0,0.0,0.0,0.0,0.0,0.0,0.0,0.0,0.0,0.0,0.0,0.0,0.0,0.0,0.0,0.0,0.0,0.0,0.0,0.0,0.0,0.0,0.0,0.0,0.0,0.0,0.0,0.0,0.0,0.0,0.0,0.0,0.0,0.0,0.0,0.0,0.0,0.0,0.0,0.0,0.0,0.0,0.0,0.0,0.0,0.0,0.0,0.0,0.0,0.0,0.0,0.0,0.0,0.0,0.0,0.0,0.0,0.0,0.0,0.0,0.0,0.0,0.0,0.0,0.0,0.0,0.0,0.0,0.0,0.0,0.0,0.0,0.0,0.0,0.0,0.0,0.0,0.0,0.0,0.0,0.0,0.0,0.0,0.0,0.0,0.0,0.0,0.0,0.0,0.0,0.0,0.0,0.0,0.0,0.0,0.0,0.0,0.0,0.0,0.0,0.0,0.0,0.0,0.0,0.0,0.0,0.0,0.0,0.0,0.0,-1.254,-1.2408,-1.2119,-1.1978,0.0,0.0,0.0,0.0,0.0,0.0,0.0,0.0,0.0,0.0,0.0,0.0,0.0,0.0,0.0,0.0,0.0,0.0,0.0,0.0,0.0,0.0,0.0,0.0,0.0,0.0,0.0,0.0,0.0,0.0,0.0,0.0,0.0,0.0,0.0,0.0,0.0,0.0,0.0,0.0,0.0,0.0,0.0,0.0,0.0,0.0,0.0,0.0,0.0,0.0,0.0,0.0,0.0,0.0,0.0,0.0,0.0,0.0,0.0,0.0,0.0,0.0,0.0,0.0,0.0,0.0,0.0,0.0,0.0,0.0,0.0,0.0,0.0,0.0,0.0,0.0,0.0,0.0,0.0,0.0,0.0,0.0,0.0,0.0,0.0,0.0,0.0,0.0,0.0,0.0,0.0,0.0,0.0,0.0,0.0,0.0,0.0,0.0,0.0,0.0,0.0,0.0,0.0,0.0,0.0,0.0,0.0,0.0,0.0,0.0,-1.2733,-1.2498,-1.2197,-1.1778,-1.1626,-1.1824,0.0,0.0,0.0,0.0,0.0,0.0,0.0,0.0,0.0,0.0,0.0,0.0,0.0,0.0,0.0,0.0,0.0,0.0,0.0,0.0,0.0,0.0,0.0,0.0,0.0,0.0,0.0,0.0,0.0,0.0,0.0,0.0,0.0,0.0,0.0,0.0,0.0,0.0,0.0,0.0,0.0,0.0,0.0,0.0,0.0,0.0,0.0,0.0,0.0,0.0,0.0,0.0,0.0,0.0,0.0,0.0,0.0,0.0,0.0,0.0,0.0,0.0,0.0,0.0,0.0,0.0,0.0,0.0,0.0,0.0,0.0,0.0,0.0,0.0,0.0,0.0,0.0,0.0,0.0,0.0,0.0,0.0,0.0,0.0,0.0,0.0,0.0,0.0,0.0,0.0,0.0,0.0,0.0,0.0,0.0,0.0,0.0,0.0,0.0,0.0,0.0,0.0,0.0,0.0,0.0,0.0,0.0,0.0,-1.2266,-1.2214,-1.1999,-1.1559,-1.1262,-1.1229,0.0,0.0,0.0,0.0,0.0,0.0,0.0,0.0,0.0,0.0,0.0,0.0,0.0,0.0,0.0,0.0,0.0,0.0,0.0,0.0,0.0,0.0,0.0,0.0,0.0,0.0,0.0,0.0,0.0,0.0,0.0,0.0,0.0,0.0,0.0,0.0,0.0,0.0,0.0,0.0,0.0,0.0,0.0,0.0,0.0,0.0,0.0,0.0,0.0,0.0,0.0,0.0,0.0,0.0,0.0,0.0,0.0,0.0,0.0,0.0,0.0,0.0,0.0,0.0,0.0,0.0,0.0,0.0,0.0,0.0,0.0,0.0,0.0,0.0,0.0,0.0,0.0,0.0,0.0,0.0,0.0,0.0,0.0,0.0,0.0,0.0,0.0,0.0,0.0,0.0,0.0,0.0,0.0,0.0,0.0,0.0,0.0,0.0,0.0,0.0,0.0,0.0,0.0,0.0,0.0,0.0,0.0,0.0,0.0,-1.2317,-1.1716,-1.1125,-1.0684,-1.0457,-1.0488,0.0,0.0,0.0,0.0,0.0,0.0,0.0,0.0,0.0,0.0,0.0,0.0,0.0,0.0,0.0,0.0,0.0,0.0,0.0,0.0,0.0,0.0,0.0,0.0,0.0,0.0,0.0,0.0,0.0,0.0,0.0,0.0,0.0,0.0,0.0,0.0,0.0,0.0,0.0,0.0,0.0,0.0,0.0,0.0,0.0,0.0,0.0,0.0,0.0,0.0,0.0,0.0,0.0,0.0,0.0,0.0,0.0,0.0,0.0,0.0,0.0,0.0,0.0,0.0,0.0,0.0,0.0,0.0,0.0,0.0,0.0,0.0,0.0,0.0,0.0,0.0,0.0,0.0,0.0,0.0,0.0,0.0,0.0,0.0,0.0,0.0,0.0,0.0,0.0,0.0,0.0,0.0,0.0,0.0,0.0,0.0,0.0,0.0,0.0,0.0,0.0,0.0,0.0,0.0,0.0,0.0,0.0,0.0,0.0,-1.1596,-1.071,-1.0109,-0.9807,-0.9697,-0.9831,0.0,0.0,0.0,0.0,0.0,0.0,0.0,0.0,0.0,0.0,0.0,0.0,0.0,0.0,0.0,0.0,0.0,0.0,0.0,0.0,0.0,0.0,0.0,0.0,0.0,0.0,0.0,0.0,0.0,0.0,0.0,0.0,0.0,0.0,0.0,0.0,0.0,0.0,0.0,0.0,0.0,0.0,0.0,0.0,0.0,0.0,0.0,0.0,0.0,0.0,0.0,0.0,0.0,0.0,0.0,0.0,0.0,0.0,0.0,0.0,0.0,0.0,0.0,0.0,0.0,0.0,0.0,0.0,0.0,0.0,0.0,0.0,0.0,0.0,0.0,0.0,0.0,0.0,0.0,0.0,0.0,0.0,0.0,0.0,0.0,0.0,0.0,0.0,0.0,0.0,0.0,0.0,0.0,0.0,0.0,0.0,0.0,0.0,0.0,0.0,0.0,0.0,0.0,0.0,0.0,0.0,0.0,0.0,-1.1295,-0.9963,-0.9273,-0.8933,-0.8903,-0.9092,-0.9284,0.0,0.0,0.0,0.0,0.0,0.0,0.0,0.0,0.0,0.0,0.0,0.0,0.0,0.0,0.0,0.0,0.0,0.0,0.0,0.0,0.0,0.0,0.0,0.0,0.0,0.0,0.0,0.0,0.0,0.0,0.0,0.0,0.0,0.0,0.0,0.0,0.0,0.0,0.0,0.0,0.0,0.0,0.0,0.0,0.0,0.0,0.0,0.0,0.0,0.0,0.0,0.0,0.0,0.0,0.0,0.0,0.0,0.0,0.0,0.0,0.0,0.0,0.0,0.0,0.0,0.0,0.0,0.0,0.0,0.0,0.0,0.0,0.0,0.0,0.0,0.0,0.0,0.0,0.0,0.0,0.0,0.0,0.0,0.0,0.0,0.0,0.0,0.0,0.0,0.0,0.0,0.0,0.0,0.0,0.0,0.0,0.0,0.0,0.0,0.0,0.0,0.0,0.0,0.0,0.0,0.0,0.0,0.0,0.0,-0.9012,-0.8626,-0.8363,-0.8228,-0.8396,-0.8675,0.0,0.0,0.0,0.0,0.0,0.0,0.0,0.0,0.0,0.0,0.0,0.0,0.0,0.0,0.0,0.0,0.0,0.0,0.0,0.0,0.0,0.0,0.0,0.0,0.0,0.0,0.0,0.0,0.0,0.0,0.0,0.0,0.0,0.0,0.0,0.0,0.0,0.0,0.0,0.0,0.0,0.0,0.0,0.0,0.0,0.0,0.0,0.0,0.0,0.0,0.0,0.0,0.0,0.0,0.0,0.0,0.0,0.0,0.0,0.0,0.0,0.0,0.0,0.0,0.0,0.0,0.0,0.0,0.0,0.0,0.0,0.0,0.0,0.0,0.0,0.0,0.0,0.0,0.0,0.0,0.0,0.0,0.0,0.0,0.0,0.0,0.0,0.0,0.0,0.0,0.0,0.0,0.0,0.0,0.0,0.0,0.0,0.0,0.0,0.0,0.0,0.0,0.0,0.0,0.0,0.0,0.0,0.0,0.0,-0.8215,-0.8057,-0.7923,-0.7775,-0.8104,-0.8419,-0.8695,0.0,0.0,0.0,0.0,0.0,0.0,0.0,0.0,0.0,0.0,0.0,0.0,0.0,0.0,0.0,0.0,0.0,0.0,0.0,0.0,0.0,0.0,0.0,0.0,0.0,0.0,0.0,0.0,0.0,0.0,0.0,0.0,0.0,0.0,0.0,0.0,0.0,0.0,0.0,0.0,0.0,0.0,0.0,0.0,0.0,0.0,0.0,0.0,0.0,0.0,0.0,0.0,0.0,0.0,0.0,0.0,0.0,0.0,0.0,0.0,0.0,0.0,0.0,0.0,0.0,0.0,0.0,0.0,0.0,0.0,0.0,0.0,0.0,0.0,0.0,0.0,0.0,0.0,0.0,0.0,0.0,0.0,0.0,0.0,0.0,0.0,0.0,0.0,0.0,0.0,0.0,0.0,0.0,0.0,0.0,0.0,0.0,0.0,0.0,0.0,0.0,0.0,0.0,0.0,0.0,0.0,0.0,0.0,-0.7624,-0.7638,-0.7655,-0.7614,-0.8099,-0.8387,0.0,0.0,0.0,0.0,0.0,0.0,0.0,0.0,0.0,0.0,0.0,0.0,0.0,0.0,0.0,0.0,0.0,0.0,0.0,0.0,0.0,0.0,0.0,0.0,0.0,0.0,0.0,0.0,0.0,0.0,0.0,0.0,0.0,0.0,0.0,0.0,0.0,0.0,0.0,0.0,0.0,0.0,0.0,0.0,0.0,0.0,0.0,0.0,0.0,0.0,0.0,0.0,0.0,0.0,0.0,0.0,0.0,0.0,0.0,0.0,0.0,0.0,0.0,0.0,0.0,0.0,0.0,0.0,0.0,0.0,0.0,0.0,0.0,0.0,0.0,0.0,0.0,0.0,0.0,0.0,0.0,0.0,0.0,0.0,0.0,0.0,0.0,0.0,0.0,0.0,0.0,0.0,0.0,0.0,0.0,0.0,0.0,0.0,0.0,0.0,0.0,0.0,0.0,0.0,0.0,0.0,0.0,0.0,0.0,-0.7912,-0.814,-0.8045,-0.7617,-0.7883,-0.8084,0.0,0.0,0.0,0.0,0.0,0.0,0.0,0.0,0.0,0.0,0.0,0.0,0.0,0.0,0.0,0.0,0.0,0.0,0.0,0.0,0.0,0.0,0.0,0.0,0.0,0.0,0.0,0.0,0.0,0.0,0.0,0.0,0.0,0.0,0.0,0.0,0.0,0.0,0.0,0.0,0.0,0.0,0.0,0.0,0.0,0.0,0.0,0.0,0.0,0.0,0.0,0.0,0.0,0.0,0.0,0.0,0.0,0.0,0.0,0.0,0.0,0.0,0.0,0.0,0.0,0.0,0.0,0.0,0.0,0.0,0.0,0.0,0.0,0.0,0.0,0.0,0.0,0.0,0.0,0.0,0.0,0.0,0.0,0.0,0.0,0.0,0.0,0.0,0.0,0.0,0.0,0.0,0.0,0.0,0.0,0.0,0.0,0.0,0.0,0.0,0.0,0.0,0.0,0.0,0.0,0.0,0.0,0.0,-0.8293,-0.8202,-0.8391,-0.8342,-0.7984,-0.8066,-0.8146,0.0,0.0,0.0,0.0,0.0,0.0,0.0,0.0,0.0,0.0,0.0,0.0,0.0,0.0,0.0,0.0,0.0,0.0,0.0,0.0,0.0,0.0,0.0,0.0,0.0,0.0,0.0,0.0,0.0,0.0,0.0,0.0,0.0,0.0,0.0,0.0,0.0,0.0,0.0,0.0,0.0,0.0,0.0,0.0,0.0,0.0,0.0,0.0,0.0,0.0,0.0,0.0,0.0,0.0,0.0,0.0,0.0,0.0,0.0,0.0,0.0,0.0,0.0,0.0,0.0,0.0,0.0,0.0,0.0,0.0,0.0,0.0,0.0,0.0,0.0,0.0,0.0,0.0,0.0,0.0,0.0,0.0,0.0,0.0,0.0,0.0,0.0,0.0,0.0,0.0,0.0,0.0,0.0,0.0,0.0,0.0,0.0,0.0,0.0,0.0,0.0,0.0,0.0,0.0,0.0,0.0,0.0,0.0,-0.8423,-0.8526,-0.8587,-0.8594,-0.8573,-0.8478,-0.8389,0.0,0.0,0.0,0.0,0.0,0.0,0.0,0.0,0.0,0.0,0.0,0.0,0.0,0.0,0.0,0.0,0.0,0.0,0.0,0.0,0.0,0.0,0.0,0.0,0.0,0.0,0.0,0.0,0.0,0.0,0.0,0.0,0.0,0.0,0.0,0.0,0.0,0.0,0.0,0.0,0.0,0.0,0.0,0.0,0.0,0.0,0.0,0.0,0.0,0.0,0.0,0.0,0.0,0.0,0.0,0.0,0.0,0.0,0.0,0.0,0.0,0.0,0.0,0.0,0.0,0.0,0.0,0.0,0.0,0.0,0.0,0.0,0.0,0.0,0.0,0.0,0.0,0.0,0.0,0.0,0.0,0.0,0.0,0.0,0.0,0.0,0.0,0.0,0.0,0.0,0.0,0.0,0.0,0.0,0.0,0.0,0.0,0.0,0.0,0.0,0.0,0.0,0.0,0.0,0.0,0.0,0.0,0.0,-0.8784,-0.8845,-0.9069,-0.9158,-0.9043,-0.8681,-0.8352,0.0,0.0,0.0,0.0,0.0,0.0,0.0,0.0,0.0,0.0,0.0,0.0,0.0,0.0,0.0,0.0,0.0,0.0,0.0,0.0,0.0,0.0,0.0,0.0,0.0,0.0,0.0,0.0,0.0,0.0,0.0,0.0,0.0,0.0,0.0,0.0,0.0,0.0,0.0,0.0,0.0,0.0,0.0,0.0,0.0,0.0,0.0,0.0,-0.7403,0.0,0.0,0.0,0.0,0.0,0.0,0.0,0.0,0.0,0.0,0.0,0.0,0.0,0.0,0.0,0.0,0.0,0.0,0.0,0.0,0.0,0.0,0.0,0.0,0.0,0.0,0.0,0.0,0.0,0.0,0.0,0.0,0.0,0.0,0.0,0.0,0.0,0.0,0.0,0.0,0.0,0.0,0.0,0.0,0.0,0.0,0.0,0.0,0.0,0.0,0.0,0.0,0.0,0.0,0.0,0.0,0.0,0.0,0.0,-0.8973,-0.9115,-0.93,-0.9369,-0.9281,-0.8988,-0.8648,0.0,0.0,0.0,0.0,0.0,0.0,0.0,0.0,0.0,0.0,0.0,0.0,0.0,0.0,0.0,0.0,0.0,0.0,0.0,0.0,0.0,0.0,0.0,0.0,0.0,0.0,0.0,0.0,0.0,0.0,0.0,0.0,0.0,0.0,0.0,0.0,0.0,0.0,0.0,0.0,0.0,0.0,0.0,0.0,0.0,0.0,0.0,0.0,0.0,0.0,0.0,0.0,0.0,0.0,0.0,0.0,0.0,0.0,0.0,0.0,0.0,0.0,0.0,0.0,0.0,0.0,0.0,0.0,0.0,0.0,0.0,0.0,0.0,0.0,0.0,0.0,0.0,0.0,0.0,0.0,0.0,0.0,0.0,0.0,0.0,0.0,0.0,0.0,0.0,0.0,0.0,0.0,0.0,0.0,0.0,0.0,0.0,0.0,0.0,0.0,0.0,0.0,0.0,0.0,0.0,0.0,0.0,-0.8953,-0.9109,-0.943,-0.9464,-0.9442,-0.9444,-0.9315,-0.9036,-0.8594,0.0,0.0,0.0,0.0,0.0,0.0,0.0,0.0,0.0,0.0,0.0,0.0,0.0,0.0,0.0,0.0,0.0,0.0,0.0,0.0,0.0,0.0,0.0,0.0,0.0,0.0,0.0,0.0,0.0,0.0,0.0,0.0,0.0,0.0,0.0,0.0,0.0,0.0,-0.8692,-0.8344,0.0,0.0,0.0,0.0,0.0,0.0,0.0,0.0,-0.7299,0.0,0.0,0.0,0.0,0.0,0.0,0.0,0.0,0.0,0.0,0.0,0.0,0.0,0.0,0.0,0.0,0.0,0.0,0.0,0.0,0.0,0.0,0.0,0.0,0.0,0.0,0.0,0.0,0.0,0.0,0.0,0.0,0.0,0.0,0.0,0.0,0.0,0.0,0.0,0.0,0.0,0.0,0.0,0.0,0.0,0.0,0.0,0.0,0.0,0.0,0.0,0.0,0.0,0.0,0.0,0.0,-0.8906,-0.9184,-0.9395,-0.9571,-0.9656,-0.9663,-0.9578,-0.9544,-0.9327,-0.8858,0.0,0.0,0.0,0.0,0.0,0.0,0.0,0.0,0.0,0.0,0.0,0.0,0.0,0.0,0.0,0.0,0.0,0.0,0.0,0.0,0.0,0.0,0.0,0.0,0.0,0.0,0.0,0.0,0.0,0.0,0.0,0.0,0.0,0.0,0.0,0.0,0.0,0.0,0.0,-0.7786,-0.7699,0.0,0.0,0.0,0.0,0.0,0.0,0.0,0.0,-0.7522,0.0,0.0,0.0,0.0,0.0,0.0,0.0,0.0,0.0,0.0,0.0,0.0,0.0,0.0,0.0,0.0,0.0,0.0,0.0,0.0,0.0,0.0,0.0,0.0,0.0,0.0,0.0,0.0,0.0,0.0,0.0,0.0,0.0,0.0,0.0,0.0,0.0,0.0,0.0,0.0,0.0,0.0,0.0,0.0,0.0,0.0,0.0,0.0,0.0,0.0,0.0,0.0,0.0,0.0,0.0,-0.9171,-0.9388,-0.9571,-0.9713,-0.9758,-0.9758,-0.972,-0.9616,-0.9469,0.0,0.0,0.0,0.0,0.0,0.0,0.0,0.0,0.0,0.0,0.0,0.0,0.0,0.0,0.0,0.0,0.0,0.0,0.0,0.0,0.0,0.0,0.0,0.0,0.0,0.0,0.0,0.0,0.0,0.0,0.0,0.0,0.0,0.0,0.0,0.0,0.0,0.0,0.0,0.0,-0.762,-0.7658,-0.7783,0.0,0.0,0.0,0.0,0.0,0.0,-0.7699,-0.7597,0.0,0.0,0.0,0.0,0.0,0.0,0.0,0.0,0.0,0.0,0.0,0.0,0.0,0.0,0.0,0.0,0.0,0.0,0.0,0.0,0.0,0.0,0.0,0.0,0.0,0.0,0.0,0.0,0.0,0.0,0.0,0.0,0.0,0.0,0.0,0.0,0.0,0.0,0.0,0.0,0.0,0.0,0.0,0.0,0.0,0.0,0.0,0.0,0.0,0.0,0.0,0.0,0.0,0.0,0.0,-0.9422,-0.9551,-0.9693,-0.9825,-0.9805,-0.9805,-0.9832,-0.9697,-0.9578,0.0,0.0,0.0,0.0,0.0,0.0,0.0,0.0,0.0,0.0,0.0,0.0,0.0,0.0,0.0,0.0,0.0,0.0,0.0,0.0,0.0,0.0,0.0,0.0,0.0,0.0,0.0,0.0,0.0,0.0,0.0,0.0,0.0,0.0,0.0,0.0,0.0,0.0,0.0,0.0,0.0,-0.7834,-0.8067,-0.8128,0.0,0.0,0.0,0.0,-0.8108,-0.7905,0.0,0.0,0.0,0.0,0.0,0.0,0.0,0.0,0.0,0.0,0.0,0.0,0.0,0.0,0.0,0.0,0.0,0.0,0.0,0.0,0.0,0.0,0.0,0.0,0.0,0.0,0.0,0.0,0.0,0.0,0.0,0.0,0.0,0.0,0.0,0.0,0.0,0.0,0.0,0.0,0.0,0.0,0.0,0.0,0.0,0.0,0.0,0.0,0.0,0.0,0.0,0.0,0.0,0.0,0.0,0.0,-0.9571,-0.9575,-0.9741,-0.9967,-0.9859,-0.9852,-0.9957,-0.9846,-0.9704,0.0,0.0,0.0,0.0,0.0,0.0,0.0,0.0,0.0,0.0,0.0,0.0,0.0,0.0,0.0,0.0,0.0,0.0,0.0,0.0,0.0,0.0,0.0,0.0,0.0,0.0,0.0,0.0,0.0,0.0,0.0,0.0,0.0,0.0,0.0,0.0,0.0,0.0,0.0,0.0,0.0,-0.8274,-0.8437,-0.8547,-0.8594,0.0,0.0,-0.8561,-0.8452,-0.8397,0.0,0.0,0.0,0.0,0.0,0.0,0.0,0.0,0.0,0.0,0.0,0.0,0.0,0.0,0.0,0.0,0.0,0.0,0.0,0.0,0.0,0.0,0.0,0.0,0.0,0.0,0.0,0.0,0.0,0.0,0.0,0.0,0.0,0.0,0.0,0.0,0.0,0.0,0.0,0.0,0.0,0.0,0.0,0.0,0.0,0.0,0.0,0.0,0.0,0.0,0.0,0.0,0.0,0.0,0.0,-0.9424,-0.9605,-0.9744,-0.9893,-0.9984,-1.0035,-1.0114,-1.0143,-1.0001,-0.9852,0.0,0.0,0.0,0.0,0.0,0.0,0.0,0.0,0.0,0.0,0.0,0.0,0.0,0.0,0.0,0.0,0.0,0.0,0.0,0.0,0.0,0.0,0.0,0.0,0.0,0.0,0.0,0.0,0.0,0.0,0.0,0.0,0.0,0.0,0.0,0.0,0.0,0.0,0.0,0.0,0.0,0.0,-0.871,-0.877,0.0,0.0,0.0,-0.8913,-0.8737,0.0,0.0,0.0,0.0,0.0,0.0,0.0,0.0,0.0,0.0,0.0,0.0,0.0,0.0,0.0,0.0,0.0,0.0,0.0,0.0,0.0,0.0,0.0,0.0,0.0,0.0,0.0,0.0,0.0,0.0,0.0,0.0,0.0,0.0,0.0,0.0,0.0,0.0,0.0,0.0,0.0,0.0,0.0,0.0,0.0,0.0,0.0,0.0,0.0,0.0,0.0,0.0,0.0,0.0,0.0,0.0,0.0,-0.969,-0.9907,-1.0044,-1.0177,-1.0256,-1.0349,-1.0385,-1.0177,0.0,0.0,0.0,0.0,0.0,0.0,0.0,0.0,0.0,0.0,0.0,0.0,0.0,0.0,0.0,0.0,0.0,0.0,0.0,0.0,0.0,0.0,0.0,0.0,0.0,0.0,0.0,-0.6959,0.0,0.0,0.0,0.0,0.0,0.0,0.0,0.0,0.0,0.0,0.0,0.0,0.0,0.0,-0.871,-0.898,-0.9054,-0.9142,0.0,0.0,-0.9247,-0.9041,-0.8954,-0.8838,0.0,0.0,0.0,0.0,0.0,0.0,0.0,0.0,0.0,0.0,0.0,0.0,0.0,0.0,0.0,0.0,0.0,0.0,0.0,0.0,0.0,0.0,0.0,0.0,0.0,0.0,0.0,0.0,0.0,0.0,0.0,0.0,0.0,0.0,0.0,0.0,0.0,0.0,0.0,0.0,0.0,0.0,0.0,0.0,0.0,0.0,0.0,0.0,0.0,0.0,0.0,0.0,0.0,0.0,-0.9704,-0.9981,-0.9977,-1.0224,-1.0617,-1.0412,-1.0412,-1.0677,-1.0419,-1.0195,0.0,0.0,0.0,0.0,0.0,0.0,0.0,0.0,0.0,0.0,0.0,0.0,0.0,0.0,0.0,0.0,0.0,0.0,0.0,0.0,0.0,0.0,0.0,0.0,0.0,0.0,0.0,0.0,0.0,0.0,0.0,0.0,0.0,0.0,0.0,0.0,0.0,0.0,0.0,0.0,0.0,-0.8987,-0.9313,-0.9476,-0.9517,0.0,0.0,-0.9523,-0.9374,-0.9369,-0.9362,-0.9349,0.0,0.0,0.0,0.0,0.0,0.0,0.0,0.0,0.0,0.0,0.0,0.0,0.0,0.0,0.0,0.0,0.0,0.0,0.0,0.0,0.0,0.0,0.0,0.0,0.0,0.0,0.0,0.0,0.0,0.0,0.0,0.0,0.0,0.0,0.0,0.0,0.0,0.0,0.0,0.0,0.0,0.0,0.0,0.0,0.0,0.0,0.0,0.0,0.0,0.0,0.0,0.0,0.0,-0.9812,-1.0021,-1.0292,-1.0515,-1.0717,-1.0785,-1.0914,-1.0989,-1.0704,-1.0521,0.0,0.0,0.0,0.0,0.0,0.0,0.0,0.0,0.0,0.0,0.0,0.0,0.0,0.0,0.0,0.0,0.0,0.0,0.0,0.0,0.0,0.0,0.0,0.0,0.0,0.0,0.0,0.0,-0.816,-0.8262,-0.8331,0.0,0.0,0.0,0.0,0.0,0.0,0.0,0.0,0.0,0.0,-0.9286,-0.949,-0.9571,0.0,0.0,-0.967,-0.9686,-0.9544,-0.9523,-0.949,-0.9424,-0.9362,0.0,0.0,0.0,0.0,0.0,0.0,0.0,0.0,0.0,0.0,0.0,0.0,0.0,0.0,0.0,0.0,0.0,0.0,0.0,0.0,0.0,0.0,0.0,0.0,0.0,0.0,0.0,0.0,0.0,0.0,0.0,0.0,0.0,0.0,0.0,0.0,0.0,0.0,0.0,0.0,0.0,0.0,0.0,0.0,0.0,0.0,0.0,0.0,0.0,0.0,0.0,0.0,-1.0021,-1.0218,-1.0529,-1.0779,-1.0989,-1.1145,-1.1253,-1.1322,-1.1056,-1.0846,0.0,0.0,0.0,0.0,0.0,0.0,0.0,0.0,0.0,0.0,0.0,0.0,0.0,0.0,0.0,0.0,0.0,0.0,0.0,0.0,0.0,0.0,0.0,0.0,0.0,0.0,0.0,0.0,-0.8533,-0.8676,-0.8852,0.0,0.0,0.0,0.0,0.0,0.0,0.0,0.0,0.0,0.0,-0.9517,-0.9683,-0.971,-0.9765,-0.9937,-0.9958,-0.9924,-0.9822,-0.9808,-0.9754,-0.9605,0.0,0.0,0.0,0.0,0.0,0.0,0.0,0.0,0.0,0.0,0.0,0.0,0.0,0.0,0.0,0.0,0.0,0.0,0.0,0.0,0.0,0.0,0.0,0.0,0.0,0.0,0.0,0.0,0.0,0.0,-0.8906,0.0,0.0,0.0,0.0,0.0,0.0,0.0,0.0,0.0,0.0,0.0,0.0,0.0,0.0,0.0,0.0,0.0,0.0,0.0,0.0,0.0,0.0,-1.0412,-1.0664,-1.0698,-1.1009,-1.1523,-1.1463,-1.1463,-1.1563,-1.1457,-1.1205,-1.0928,0.0,0.0,0.0,0.0,0.0,0.0,0.0,0.0,0.0,0.0,0.0,0.0,0.0,0.0,0.0,0.0,0.0,0.0,0.0,0.0,0.0,0.0,0.0,0.0,0.0,0.0,-0.8328,-0.8676,-0.896,0.0,0.0,0.0,0.0,0.0,0.0,0.0,0.0,0.0,0.0,-0.9575,-0.9683,-0.9967,-0.9977,-1.0055,-1.0243,-1.0295,-1.0295,-1.0281,-1.0288,-1.0215,0.0,0.0,0.0,0.0,0.0,0.0,0.0,0.0,0.0,0.0,0.0,0.0,0.0,0.0,0.0,0.0,0.0,0.0,0.0,0.0,0.0,0.0,0.0,0.0,0.0,0.0,0.0,-0.9184,-0.9239,0.0,0.0,0.0,0.0,0.0,0.0,0.0,0.0,0.0,0.0,0.0,-1.0419,-1.0451,0.0,0.0,0.0,0.0,0.0,0.0,0.0,0.0,0.0,0.0,0.0,0.0,-1.0637,-1.084,-1.113,-1.1416,-1.1584,-1.1798,-1.19,-1.1948,-1.1762,-1.1556,-1.136,0.0,0.0,0.0,0.0,0.0,0.0,0.0,0.0,0.0,0.0,0.0,0.0,0.0,0.0,0.0,0.0,0.0,0.0,0.0,0.0,0.0,0.0,0.0,0.0,0.0,-0.8927,0.0,0.0,0.0,0.0,0.0,0.0,0.0,0.0,0.0,0.0,0.0,-0.9734,-0.9852,-0.9992,-1.0093,-1.0188,-1.0202,-1.0222,0.0,0.0,0.0,0.0,0.0,0.0,0.0,0.0,0.0,0.0,0.0,0.0,0.0,0.0,-0.9609,-0.93,-0.9301,-0.9322,-0.9245,0.0,0.0,0.0,0.0,0.0,0.0,0.0,0.0,0.0,0.0,0.0,0.0,0.0,0.0,-0.9646,0.0,-0.9795,0.0,0.0,0.0,0.0,0.0,0.0,0.0,0.0,-1.0481,-1.0616,-1.0806,-1.0839,-1.0887,0.0,-1.0873,-1.0677,0.0,0.0,0.0,0.0,0.0,0.0,0.0,0.0,-1.0995,-1.1158,-1.1482,-1.1705,-1.1857,-1.2077,-1.2142,-1.2173,-1.1993,-1.187,-1.1775,-1.1408,-1.1184,0.0,0.0,0.0,0.0,0.0,0.0,0.0,0.0,0.0,0.0,0.0,0.0,0.0,0.0,0.0,0.0,0.0,0.0,0.0,0.0,0.0,0.0,0.0,-0.9403,0.0,0.0,0.0,0.0,0.0,0.0,0.0,0.0,0.0,-0.9856,-0.9924,-0.9988,-1.0082,-1.0263,-1.0403,-1.0426,0.0,0.0,0.0,0.0,0.0,0.0,0.0,-1.0555,-1.0485,-1.0473,-1.0493,-1.0439,-1.0432,-1.0432,-1.0432,0.0,0.0,-0.9693,-0.9571,-0.956,-0.9537,-0.9537,-0.953,-0.956,-0.9537,-0.9567,0.0,0.0,0.0,0.0,0.0,0.0,0.0,0.0,-1.0004,-1.0116,0.0,-1.0329,0.0,0.0,0.0,0.0,0.0,-1.0521,0.0,0.0,-1.0934,-1.109,-1.1389,-1.1396,-1.1484,-1.1619,-1.147,-1.1356,-1.1186,-1.0642,0.0,0.0,0.0,0.0,0.0,0.0,-1.1477,-1.159,-1.1775,-1.1955,-1.2271,-1.2291,-1.2298,-1.2291,-1.2186,-1.2104,-1.2104,-1.1911,-1.1793,-1.1786,-1.1252,0.0,0.0,0.0,0.0,0.0,0.0,0.0,0.0,0.0,0.0,0.0,0.0,0.0,0.0,0.0,0.0,0.0,0.0,0.0,0.0,-0.9544,0.0,0.0,0.0,0.0,0.0,0.0,0.0,0.0,0.0,0.0,-1.0324,-1.0335,-1.0329,-1.0335,0.0,0.0,0.0,0.0,-1.0968,-1.1166,-1.1193,-1.1186,-1.1186,-1.1186,-1.1091,-1.0778,0.0,0.0,-1.0725,-1.0731,-1.0738,-1.0704,-1.0691,-1.0556,-1.013,-0.994,-0.9832,-0.9832,-0.9869,-0.9825,-0.9819,-0.9883,-0.9839,-1.0636,0.0,0.0,0.0,0.0,-1.0256,-1.0324,-1.0339,-1.0447,-1.0555,-1.0602,-1.0677,0.0,0.0,0.0,0.0,0.0,0.0,-1.1179,-1.1274,-1.134,-1.1489,-1.1708,-1.1701,-1.1789,-1.1932,-1.1775,-1.1681,-1.1626,-1.1369,-1.1145,-1.1009,0.0,0.0,0.0,0.0,-1.1782,-1.1932,-1.2081,-1.2203,-1.2291,-1.2393,-1.244,-1.244,-1.2343,-1.2309,-1.2372,-1.2128,-1.1993,-1.1993,-1.1728,0.0,0.0,0.0,0.0,0.0,0.0,0.0,0.0,0.0,0.0,0.0,0.0,0.0,0.0,0.0,0.0,0.0,0.0,0.0,-1.0043,-1.009,-1.0131,0.0,0.0,0.0,0.0,0.0,0.0,0.0,0.0,0.0,-1.1043,-1.0792,-1.0636,0.0,0.0,-1.1016,-1.1063,-1.1077,-1.1118,-1.1193,-1.12,0.0,-1.12,-1.12,-1.1166,-1.1084,-1.107,-1.1084,-1.1043,-1.107,-1.107,-1.107,-1.0948,-1.0806,-1.0658,-1.0535,-1.0466,-1.0427,-1.0427,-1.0427,-1.0427,-1.0427,-1.0427,-1.0471,-1.0799,-1.0683,-1.0662,-1.0669,-1.0757,-1.0758,-1.0798,-1.0853,-1.0894,-1.0907,-1.1056,-1.107,-1.0995,-1.111,0.0,0.0,0.0,-1.1599,-1.1696,-1.1755,-1.187,-1.2006,-1.2013,-1.2094,-1.2223,-1.2088,-1.2013,-1.2013,-1.1864,-1.1735,-1.1649,0.0,0.0,-1.1918,-1.1979,-1.206,-1.2193,-1.2336,-1.2372,-1.2372,-1.2461,-1.2501,-1.2501,-1.242,-1.2413,-1.2494,-1.2332,-1.2237,-1.2275,-1.204,-1.1796,0.0,0.0,0.0,0.0,0.0,0.0,0.0,0.0,0.0,0.0,0.0,-0.9958,-0.9958,0.0,0.0,0.0,-1.0339,-1.0319,-1.0446,-1.0507,0.0,0.0,0.0,0.0,0.0,0.0,0.0,-1.0968,-1.1083,-1.1266,-1.1531,-1.1293,-1.1144,-1.1178,-1.1335,-1.143,-1.143,0.0,-1.1553,-1.1553,-1.1553,-1.1553,-1.1553,-1.1553,-1.1553,-1.1553,-1.1499,-1.1492,-1.1547,-1.1553,-1.1553,-1.1547,-1.145,-1.1354,-1.1389,-1.1314,-1.1111,-1.0792,-1.0717,-1.0717,-1.0717,-1.0717,-1.0717,-0.9423,-1.1112,-1.0847,-1.0927,-1.1234,-1.1247,-1.1247,-1.1254,-1.1268,-1.1268,-1.1281,-1.1417,-1.1443,-1.145,-1.1592,0.0,-1.1813,-1.1827,-1.1945,-1.2118,-1.2132,-1.2169,-1.2305,-1.2305,-1.2372,-1.2501,-1.2366,-1.2311,-1.2318,-1.222,-1.2227,-1.2332,-1.206,-1.1979,-1.2132,-1.2275,-1.2305,-1.2311,-1.2433,-1.2501,-1.2501,-1.2515,-1.2522,-1.2522,-1.2522,-1.2522,-1.2522,-1.2508,-1.2501,-1.2494,-1.2281,-1.2132,-1.2111,0.0,0.0,0.0,0.0,0.0,0.0,0.0,0.0,0.0,0.0,0.0,0.0,0.0,0.0,0.0,-1.0765,0.0,-1.0759,-1.0887,0.0,0.0,0.0,-1.1016,-1.122,-1.124,-1.1302,-1.1409,0.0,0.0,-1.1813,-1.1827,-1.1823,-1.1671,-1.1746,-1.1813,-1.1813,-1.1952,-1.2098,-1.2064,-1.2084,-1.2091,-1.2036,-1.205,-1.2043,-1.2036,-1.1945,-1.1884,-1.203,-1.2064,-1.2084,-1.2057,-1.2091,-1.2077,-1.2091,-1.2036,-1.1766,-1.0696,-1.0678,-1.0792,-1.0826,-1.0853,-1.0853,-0.6818,-0.7179,-0.7097,-0.879,-1.1489,-1.1626,-1.1674,-1.1644,-1.1832,-1.1887,-1.1887,-1.1921,-1.1941,-1.1941,-1.1975,-1.2009,-1.205,-1.2128,-1.2203,-1.2244,-1.2345,-1.242,-1.2447,-1.2454,-1.2467,-1.2494,-1.2467,-1.2508,-1.2617,-1.2589,-1.2651,-1.2826,-1.2771,-1.2635,-1.2406,-1.2433,-1.2454,-1.2454,-1.2488,-1.2501,-1.2508,-1.2578,-1.2678,-1.2678,-1.2638,-1.2638,-1.2671,-1.2562,-1.2501,-1.2501,-1.2433,-1.2352,-1.2281,-1.2098,0.0,0.0,0.0,0.0,0.0,0.0,0.0,0.0,0.0,-1.0806,-1.0806,0.0,-1.1151,0.0,-1.1469,-1.1489,-1.1416,-1.1401,0.0,0.0,-1.1421,-1.1435,-1.1504,-1.1606,-1.1687,-1.1685,-1.1864,-1.2013,-1.2162,-1.2182,-1.221,-1.2277,-1.2121,-1.2043,-1.2006,-1.207,-1.2098,-1.2104,-1.2111,-1.2098,-1.2111,-1.2098,-1.2104,-1.2098,-1.207,-1.2057,-1.2091,-1.2098,-1.2098,-1.2098,-1.2098,-1.2098,-1.2104,-1.2098,-1.1368,-0.9902,-1.0486,-1.1529,-1.1529,-1.1442,-1.1367,-0.5194,-0.6033,-0.6033,-0.7791,-1.0633,-1.0548,-1.1058,-1.1938,-1.2064,-1.2098,-1.2104,-1.2173,-1.2234,-1.2295,-1.2257,-1.2295,-1.2264,-1.2345,-1.2386,-1.2393,-1.2535,-1.2564,-1.2603,-1.2678,-1.2705,-1.2705,-1.2705,-1.2752,-1.2827,-1.2834,-1.2874,-1.2996,-1.3003,-1.2914,-1.2751,-1.2705,-1.2705,-1.2705,-1.2637,-1.2564,-1.2603,-1.2617,-1.2618,-1.2686,-1.2693,-1.2693,-1.2693,-1.2712,-1.2671,-1.261,-1.2671,-1.2644,-1.2494,-1.2406,-1.2264,0.0,0.0,0.0,0.0,0.0,0.0,0.0,0.0,0.0,0.0,0.0,-1.1669,-1.1803,-1.1884,-1.1898,-1.1823,-1.1816,-1.1816,-1.1816,-1.1816,-1.1816,-1.1816,-1.1945,-1.2033,-1.204,-1.2169,-1.2291,-1.2372,-1.2379,-1.2413,-1.2488,-1.2366,-1.2257,-1.2295,-1.2295,-1.2295,-1.2257,-1.2257,-1.2257,-1.2295,-1.2295,-1.2257,-1.2257,-1.2257,-1.2295,-1.2257,-1.2295,-1.2257,-1.2295,-1.2257,-1.2295,-1.2295,-1.2257,-1.184,-1.0974,-1.0538,-1.0586,-1.0521,-1.1203,-1.1816,-0.3809,-0.5466,-0.5506,-0.6872,-0.8972,-0.8673,-0.9916,-1.2152,-1.2152,-1.2152,-1.2166,-1.2264,-1.2386,-1.2501,-1.2501,-1.2501,-1.2501,-1.2522,-1.2535,-1.2535,-1.2652,-1.272,-1.2766,-1.2901,-1.3003,-1.2996,-1.2982,-1.2982,-1.3003,-1.3003,-1.3009,-1.303,-1.3043,-1.3057,-1.3057,-1.3037,-1.3009,-1.2969,-1.282,-1.2752,-1.2693,-1.2637,-1.2651,-1.274,-1.2747,-1.274,-1.2726,-1.2888,-1.2888,-1.2706,-1.2874,-1.2941,-1.2726,-1.2699,-1.2617,0.0,-1.2325,0.0,0.0,0.0,0.0,0.0,0.0,0.0,0.0,-1.1999,-1.2132,-1.2125,-1.2145,-1.2159,-1.2159,-1.2159,-1.2159,-1.2159,-1.2159,-1.2159,-1.2159,-1.2275,-1.2318,-1.2318,-1.2427,-1.2501,-1.2494,-1.2501,-1.2501,-1.2501,-1.2488,-1.2474,-1.2494,-1.2481,-1.2474,-1.2501,-1.2501,-1.2467,-1.2474,-1.2488,-1.2488,-1.2494,-1.2481,-1.2501,-1.2488,-1.2488,-1.2494,-1.2494,-1.2481,-1.2488,-1.2501,-1.2256,-1.1947,-1.1309,-0.9894,-0.8916,-0.9123,-0.9938,-1.1189,-0.0813,-0.1178,-0.1178,-0.3385,-0.6843,-0.6813,-0.8949,-1.242,-1.242,-1.242,-1.242,-1.2447,-1.2474,-1.2501,-1.2501,-1.2501,-1.2508,-1.263,-1.2645,-1.2652,-1.2847,-1.2915,-1.2922,-1.2989,-1.3003,-1.2989,-1.2834,-1.284,-1.3003,-1.3003,-1.3057,-1.3173,-1.3254,-1.3315,-1.3315,0.0,0.0,0.0,-1.2868,-1.2861,-1.2739,-1.2942,-1.3098,-1.3085,-1.3091,0.0,-1.2929,-1.2989,-1.2888,-1.2706,-1.2881,0.0,0.0,0.0,0.0,0.0,0.0,0.0,0.0,0.0,0.0,0.0,-1.2298,-1.225,-1.2047,-1.2193,-1.2288,-1.225,-1.2352,-1.242,-1.242,-1.242,-1.242,-1.2413,-1.242,-1.242,-1.242,-1.2447,-1.2461,-1.2461,-1.2488,-1.2501,-1.2515,-1.2501,-1.2508,-1.2522,-1.2501,-1.2501,-1.2508,-1.2508,-1.2501,-1.2501,-1.2501,-1.2501,-1.2501,-1.2501,-1.2501,-1.2501,-1.2501,-1.2501,-1.2501,-1.2501,-1.2501,-1.2501,-1.2501,-1.2501,-1.2501,-1.1172,-0.9648,-0.7855,-0.7178,-0.7293,-0.8774,-0.7964,-0.7006,0.0,0.0,0.0,-0.2419,0.0,-0.6287,-0.8653,-1.2501,-1.2501,-1.2501,-1.2501,-1.2501,-1.2501,-1.2501,-1.2501,-1.2542,-1.2617,-1.2659,-1.2773,-1.2847,-1.3037,-1.3105,-1.3111,-1.318,-1.322,-1.3173,-1.3017,-1.299,-1.3098,-1.3037,-1.3071,-1.3214,-1.3254,-1.3322,-1.3397,-1.3322,-1.3139,-1.2847,-1.2847,-1.2807,-1.2699,-1.28,-1.2874,-1.2949,-1.2956,0.0,0.0,0.0,0.0,0.0,0.0,0.0,0.0,0.0,0.0,-1.2693,-1.2618,-1.2617,-1.2623,-1.2662,-1.2623,-1.2662,-1.2684,-1.2703,-1.2554,-1.2615,-1.2662,-1.2623,-1.273,-1.2725,-1.2725,-1.2771,-1.2771,-1.2725,-1.2732,-1.2764,-1.2764,-1.2764,-1.2764,-1.2725,-1.2764,-1.2771,-1.2771,-1.2771,-1.2764,-1.2771,-1.2732,-1.2725,-1.2712,-1.2596,-1.2501,-1.2501,-1.2501,-1.2501,-1.2501,-1.2501,-1.2501,-1.2501,-1.2501,-1.2501,-1.2501,-1.2501,-1.2501,-1.2501,-1.2501,-1.2501,-1.2347,-1.0818,-0.9061,-0.7894,-0.6137,-0.5075,-0.6045,-0.6085,-0.6062,0.0,0.0,0.0,-0.2408,-0.627,-0.627,-0.8674,-1.2501,0.0,0.0,0.0,-1.2501,-1.2515,-1.2542,-1.2542,-1.2623,-1.2773,-1.28,-1.2874,-1.3043,-1.3146,-1.3214,-1.3261,-1.3356,-1.3363,-1.3349,-1.3248,-1.318,-1.3173,-1.3077,-1.3098,-1.3207,-1.32,-1.3261,-1.3356,-1.3363,-1.3268,-1.3009,-1.2888,-1.2794,-1.2807,-1.2712,-1.2725,-1.2807,-1.2835,-1.2835,-1.2854,-1.3017,-1.3044,-1.2862,-1.303,-1.3051,-1.2862,-1.2821,-1.2834,-1.2813,-1.2747,-1.2827,-1.2989,-1.3023,-1.3064,-1.3078,-1.3125,-1.3084,-1.3009,-1.3003,-1.3003,-1.3003,-1.3003,-1.2996,-1.3003,-1.3003,-1.3003,-1.3003,-1.3003,-1.2996,-1.2996,-1.3003,-1.2982,-1.3003,-1.2982,-1.2996,-1.2989,-1.2982,-1.3003,-1.2996,-1.2975,-1.3003,-1.2969,-1.2752,-1.2649,-1.2617,-1.2623,-1.2596,-1.2589,-1.2603,-1.2569,-1.2562,-1.2549,-1.2535,-1.2508,-1.2501,-1.2501,-1.2501,-1.2501,-1.2501,-1.2347,-1.0818,-0.9376,-0.8905,-0.5822,-0.2975,-0.278,-0.3912,-0.4925,0.0,0.0,0.0,-0.2439,-0.6271,-0.6271,-0.8647,-1.2463,-1.2501,-1.2501,-1.2501,-1.2501,-1.2576,-1.2659,-1.2659,-1.2786,-1.2975,-1.3091,-1.3125,-1.3193,-1.3295,-1.337,-1.3363,-1.3254,-1.3248,-1.3193,-1.3098,-1.303,-1.3043,-1.3132,-1.3193,-1.3227,-1.3302,-1.3315,-1.3254,-1.3241,-1.3166,-1.3009,-1.3193,-1.3241,-1.3112,-1.322,-1.3288,-1.3308,-1.3382,-1.3396,-1.3315,-1.3559,-1.3605,-1.347,-1.3599,-1.3612,-1.3463,-1.3363,-1.3247,-1.3159,-1.3037,-1.2982,-1.3003,-1.3118,-1.3254,-1.3505,-1.3532,-1.3376,-1.3037,-1.3003,-1.3003,-1.3003,-1.303,-1.3003,-1.3003,-1.3023,-1.3037,-1.3016,-1.3009,-1.3003,-1.3016,-1.3016,-1.3023,-1.3023,-1.3003,-1.3009,-1.303,-1.3023,-1.303,-1.3009,-1.305,-1.3016,-1.3023,-1.2969,-1.2941,-1.2935,-1.2935,-1.2935,-1.2901,-1.2928,-1.2827,-1.2718,-1.2652,-1.2644,-1.2556,-1.2515,-1.2508,-1.2508,-1.2508,-1.2501,-1.2463,-1.0818,-0.9061,-0.7505,-0.4964,-0.274,-0.1254,-0.1216,0.0,0.0,0.0,-0.1216,-0.3445,-0.6449,-0.8672,-1.074,-1.2469,-1.2589,-1.2623,-1.2623,-1.2584,-1.2712,-1.2847,-1.2854,-1.2975,-1.3118,-1.3186,-1.3261,-1.3295,-1.337,-1.3356,-1.3281,-1.3288,-1.3295,-1.3214,-1.3146,-1.3118,-1.3118,-1.3105,-1.3139,-1.322,-1.3329,-1.3363,-1.3302,-1.3295,-1.3261,-1.32,-1.3214,-1.3173,-1.3098,-1.3125,-1.3159,-1.3166,-1.3234,-1.3275,-1.3322,-1.3403,-1.3485,-1.3463,-1.3566,-1.3531,-1.3505,-1.3437,-1.337,-1.3302,-1.3234,-1.32,-1.32,-1.3336,-1.3478,-1.3578,-1.366,-1.3619,-1.3458,-1.3437,-1.3437,-1.3437,-1.3437,-1.3437,-1.3437,-1.3437,-1.341,-1.3329,-1.3322,-1.3288,-1.3214,-1.3241,-1.32,-1.3241,-1.3241,-1.3241,-1.32,-1.32,-1.32,-1.32,-1.3241,-1.3234,-1.3193,-1.3234,-1.318,-1.3043,-1.2996,-1.2996,-1.3003,-1.3003,-1.2969,-1.2861,-1.274,-1.2745,-1.2718,-1.2637,-1.2549,-1.2603,-1.2562,-1.2508,-1.2501,-1.0818,-0.9177,-0.8128,-0.5201,-0.2936,-0.1841,-0.0863,0.0,-0.0706,-0.0902,-0.2936,-0.5045,-0.731,-1.0969,-1.2556,-1.2569,-1.2718,-1.28,-1.278,-1.28,-1.2868,-1.3043,-1.305,-1.3125,-1.3207,-1.3227,-1.3234,-1.3336,-1.3315,-1.3254,-1.3227,-1.3309,-1.3254,-1.322,-1.3214,-1.3214,-1.32,-1.3132,-1.3112,-1.3268,-1.3342,-1.3397,-1.3397,-1.3397,-1.3397,-1.339,-1.3241,-1.3125,-1.3105,-1.3098,-1.3105,-1.3105,-1.3139,-1.32,-1.3275,-1.3377,-1.341,-1.3498,-1.3532,-1.3539,-1.3505,-1.3498,-1.3485,-1.3458,-1.3451,-1.3451,-1.3458,-1.3518,-1.3619,-1.3729,-1.3788,-1.3862,-1.3896,-1.3903,-1.3862,-1.3808,-1.3768,-1.3774,-1.3768,-1.3781,-1.3754,-1.3646,-1.3632,-1.3578,-1.3519,-1.3498,-1.3498,-1.3498,-1.3498,-1.3498,-1.3498,-1.3498,-1.3485,-1.3451,-1.3424,-1.3397,-1.3397,-1.3397,-1.3295,-1.3146,-1.3098,-1.3118,-1.3098,-1.3071,-1.3098,-1.3064,-1.2922,-1.2888,-1.2935,-1.2718,-1.261,-1.2678,-1.2596,-1.2515,-1.2385,-1.1327,-1.0081,-0.9221,-0.6874,-0.45,-0.3106,-0.1344,0.0,-0.2778,-0.313,-0.5125,-0.7189,-0.9314,-1.1704,-1.2712,-1.2693,-1.2874,-1.305,-1.3139,-1.3037,-1.3064,-1.318,-1.3193,-1.3234,-1.3349,-1.3234,-1.322,-1.322,-1.3098,-1.3105,-1.32,-1.3111,-1.3105,-1.32,-1.322,-1.3227,-1.3234,-1.3295,-1.3356,-1.3383,-1.3397,-1.3403,-1.3403,-1.341,-1.3403,-1.341,-1.3599,-1.3627,-1.3376,-1.3363,-1.3356,-1.3363,-1.3498,-1.3531,-1.3565,-1.3844,-1.3926,-1.3781,-1.3939,-1.3946,-1.3788,-1.3761,-1.37,-1.3585,-1.3565,-1.3565,-1.3565,-1.3578,-1.3693,-1.3994,-1.4071,-1.4095,-1.4224,-1.4245,-1.4136,-1.3883,-1.3808,-1.3822,-1.3795,-1.3815,-1.3815,-1.3788,-1.3781,-1.3768,-1.3741,-1.3754,-1.3754,-1.3754,-1.372,-1.3754,-1.372,-1.372,-1.3687,-1.3578,-1.3519,-1.3451,-1.3451,-1.3444,-1.3444,-1.3376,-1.3363,-1.3349,-1.3342,-1.3356,-1.3275,-1.318,-1.318,-1.3125,-1.299,-1.2861,-1.2686,-1.2779,-1.2605,-1.2556,-1.2535,-1.2192,-1.1501,-1.018,-0.8769,-0.7521,-0.4124,-0.1642,0.0,-0.3834,-0.5165,-0.7362,-0.9514,-1.1534,-1.2516,-1.2868,-1.2881,-1.3064,-1.3159,-1.3214,-1.3248,-1.3295,-1.3308,-1.335,-1.3295,-1.3261,-1.32,-1.3214,-1.3207,-1.3152,-1.3159,-1.3207,-1.3214,-1.3214,-1.3186,-1.3261,-1.3308,-1.3315,-1.3376,-1.3397,-1.3397,-1.3397,-1.3485,-1.3605,-1.3661,-1.3743,-1.3933,-1.4048,-1.4048,-1.3953,-1.3933,-1.3933,-1.3939,-1.3994,-1.4068,-1.415,-1.4272,-1.434,-1.4322,-1.439,-1.4434,-1.4329,-1.4241,-1.4126,-1.4027,-1.377,-1.3545,-1.3505,-1.3573,-1.3639,-1.3804,-1.3973,-1.4102,-1.4163,-1.4245,-1.4238,-1.4143,-1.4109,-1.4109,-1.4109,-1.4065,-1.4075,-1.4,-1.398,-1.3946,-1.3802,-1.3802,-1.3795,-1.3795,-1.3795,-1.3802,-1.3795,-1.3795,-1.3774,-1.3714,-1.3646,-1.3605,-1.3654,-1.3619,-1.3619,-1.3661,-1.3661,-1.3573,-1.3458,-1.3397,-1.337,-1.3315,-1.3268,-1.3186,-1.32,-1.305,-1.2888,-1.2976,-1.2861,-1.2779,-1.2786,-1.2766,-1.2397,-1.1173,-0.9841,-0.8466,-0.5634,-0.336,-0.2121,-0.58,-0.7468,-0.9639,-1.1488,-1.2963,-1.3043,-1.3057,-1.3077,-1.3173,-1.3234,-1.3247,-1.3349,-1.3397,-1.3397,-1.3397,-1.3315,-1.3227,-1.3214,-1.3193,-1.3159,-1.3152,-1.3173,-1.322,-1.3322,-1.3302,-1.3302,-1.3349,-1.3397,-1.341,-1.3498,-1.3519,-1.349,-1.36,-1.3756,-1.3896,-1.3966,-1.4075,-1.4278,-1.4373,-1.4421,-1.4428,-1.4502,-1.4468,-1.4319,-1.4299,-1.4353,-1.4448,-1.4489,-1.4543,-1.4566,-1.4606,-1.4679,-1.4626,-1.457,-1.4462,-1.4346,-1.4021,-1.3763,-1.3654,-1.3749,-1.3788,-1.3835,-1.4082,-1.4211,-1.4265,-1.436,-1.4414,-1.4421,-1.4421,-1.4401,-1.4306,-1.4299,-1.4251,-1.415,-1.418,-1.4082,-1.3994,-1.3923,-1.3937,-1.3923,-1.395,-1.3966,-1.396,-1.3946,-1.3869,-1.3905,-1.3822,-1.3795,-1.3795,-1.3788,-1.3788,-1.3795,-1.3795,-1.3707,-1.3559,-1.3546,-1.3519,-1.3505,-1.3437,-1.3431,-1.3492,-1.3281,-1.32,-1.3281,-1.3159,-1.3098,-1.3037,-1.299,-1.2983,-1.2436,-1.1102,-0.9292,-0.7717,-0.5557,-0.4089,-0.9567,-0.9933,-1.1928,-1.2836,-1.3016,-1.3146,-1.3207,-1.3214,-1.3322,-1.3383,-1.3376,-1.339,-1.3397,-1.3397,-1.339,-1.3315,-1.3227,-1.3227,-1.3152,-1.3043,-1.303,-1.3091,-1.3207,-1.322,-1.3261,-1.3363,-1.3383,-1.341,-1.3437,-1.3675,-1.3781,-1.3795,-1.4075,-1.4245,-1.4278,-1.4278,-1.4292,-1.438,-1.4552,-1.4674,-1.4753,-1.4984,-1.4848,-1.4407,-1.4319,-1.4353,-1.436,-1.4455,-1.4475,-1.434,-1.4496,-1.455,-1.4543,-1.4536,-1.4523,-1.4475,-1.4346,-1.4251,-1.4231,-1.4224,-1.4285,-1.4414,-1.4428,-1.4536,-1.4566,-1.4613,-1.4633,-1.466,-1.4633,-1.459,-1.438,-1.4353,-1.434,-1.4312,-1.4292,-1.4285,-1.4272,-1.4238,-1.4272,-1.4258,-1.4238,-1.4224,-1.4251,-1.4193,-1.4075,-1.4034,-1.3939,-1.3822,-1.3849,-1.3829,-1.3835,-1.3835,-1.3829,-1.3795,-1.3781,-1.3707,-1.3727,-1.3707,-1.366,-1.372,-1.3707,-1.3666,-1.3599,-1.3566,-1.3458,-1.3342,-1.322,-1.3193,-1.3166,-1.2573,-1.1502,-1.0043,-0.9805,-0.795,-0.6225,-1.0682,-1.2025,-1.2808,-1.3193,-1.3247,-1.3302,-1.3315,-1.3322,-1.3376,-1.3397,-1.3383,-1.3302,-1.3308,-1.3397,-1.3295,-1.3227,-1.3227,-1.3275,-1.3282,-1.3146,-1.3139,-1.322,-1.3308,-1.3315,-1.3342,-1.339,-1.3403,-1.3498,-1.3682,-1.3754,-1.3903,-1.4079,-1.4238,-1.4387,-1.4543,-1.4532,-1.4672,-1.4855,-1.4977,-1.5025,-1.5018,-1.5126,-1.5065,-1.4882,-1.4869,-1.4869,-1.4869,-1.4916,-1.4916,-1.4862,-1.4916,-1.4943,-1.493,-1.4855,-1.4713,-1.4536,-1.4462,-1.4394,-1.4319,-1.4299,-1.4319,-1.4373,-1.4462,-1.455,-1.4597,-1.4633,-1.4694,-1.4694,-1.4694,-1.4626,-1.4579,-1.4539,-1.4539,-1.4525,-1.4496,-1.4434,-1.4414,-1.436,-1.4299,-1.4299,-1.4299,-1.4299,-1.4299,-1.4251,-1.4217,-1.4211,-1.4163,-1.4129,-1.4129,-1.4129,-1.4116,-1.4129,-1.4136,-1.4136,-1.4136,-1.3896,-1.3795,-1.3795,-1.3781,-1.3781,-1.3774,-1.3795,-1.3734,-1.3783,-1.3709,-1.3668,-1.3553,-1.3451,-1.3403,-1.2832,-1.1694,-1.1264,-1.2088,-0.9623,-0.769,-1.183,-1.3152,-1.3288,-1.3343,-1.3397,-1.3397,-1.3397,-1.3397,-1.3397,-1.3397,-1.3383,-1.3342,-1.3356,-1.3403,-1.339,-1.3329,-1.3268,-1.3349,-1.3315,-1.3227,-1.3261,-1.3302,-1.3383,-1.3397,-1.3397,-1.3424,-1.3505,-1.366,-1.393,-1.4038,-1.4194,-1.4434,-1.4529,-1.4679,-1.4855,-1.4836,-1.4997,-1.5153,-1.5181,-1.5181,-1.5181,-1.5181,-1.5181,-1.5181,-1.5181,-1.5181,-1.5181,-1.5181,-1.5181,-1.5181,-1.5181,-1.5181,-1.5167,-1.5139,-1.4996,-1.476,-1.4733,-1.4692,-1.4604,-1.4584,-1.459,-1.459,-1.4672,-1.4726,-1.4733,-1.4782,-1.4829,-1.4882,-1.4882,-1.4882,-1.4836,-1.4882,-1.4796,-1.4714,-1.4599,-1.4545,-1.4539,-1.4502,-1.4462,-1.4448,-1.4407,-1.438,-1.436,-1.4326,-1.4299,-1.4299,-1.4299,-1.4299,-1.4299,-1.4299,-1.4299,-1.4299,-1.4278,-1.4272,-1.4251,-1.4116,-1.4041,-1.4034,-1.3964,-1.393,-1.391,-1.3916,-1.3923,-1.393,-1.393,-1.3916,-1.3849,-1.3741,-1.334,-1.2883,-1.1914,-1.1123,-1.1233,-1.0948,-0.897,-1.3348,-1.339,-1.3397,-1.339,-1.3397,-1.3397,-1.3397,-1.3397,-1.3397,-1.341,-1.3437,-1.3526,-1.3485,-1.3478,-1.3565,-1.3578,-1.3417,-1.3397,-1.3329,-1.3254,-1.3322,-1.3383,-1.3397,-1.3397,-1.3424,-1.3458,-1.3653,-1.395,-1.4299,-1.4484,-1.4633,-1.4735,-1.4984,-1.5086,-1.5167,-1.514,-1.516,-1.5181,-1.5181,-1.5181,-1.5181,-1.5181,-1.5181,-1.5181,-1.5181,-1.5181,-1.5181,-1.5181,-1.5181,-1.5181,-1.5181,-1.5181,-1.5181,-1.5167,-1.5167,-1.5133,-1.52,-1.516,-1.514,-1.512,-1.5086,-1.5086,-1.5194,-1.5106,-1.5092,-1.5126,-1.514,-1.5126,-1.514,-1.5153,-1.5147,-1.514,-1.5045,-1.4762,-1.4714,-1.4701,-1.4694,-1.4687,-1.4687,-1.4647,-1.459,-1.4523,-1.4482,-1.4428,-1.4373,-1.436,-1.434,-1.4326,-1.4326,-1.4319,-1.4299,-1.4299,-1.4299,-1.4299,-1.4299,-1.4292,-1.4285,-1.4272,-1.4238,-1.4211,-1.4177,-1.417,-1.4156,-1.4163,-1.4156,-1.4136,-1.4082,-1.3807,-1.2706,-1.206,-1.131,-1.0544,-0.9835,-0.9512,-0.9739,-1.3397,-1.3397,-1.3397,-1.3397,-1.3397,-1.3397,-1.3397,-1.3397,-1.3397,-1.3458,-1.3477,-1.3383,-1.3397,-1.3498,-1.3451,-1.3397,-1.3397,-1.3397,-1.337,-1.3342,-1.3376,-1.3397,-1.3403,-1.3403,-1.3463,-1.3646,-1.3747,-1.4065,-1.4498,-1.4654,-1.4782,-1.5031,-1.5133,-1.5181,-1.5181,-1.5181,-1.5181,-1.5181,-1.5181,-1.5181,-1.5181,-1.5181,-1.5181,-1.5181,-1.5181,-1.5181,-1.5181,-1.5181,-1.5181,-1.5181,-1.5181,-1.5181,-1.5181,-1.5181,-1.5181,-1.5181,-1.5181,-1.5181,-1.5181,-1.5181,-1.5181,-1.5181,-1.5181,-1.5181,-1.5181,-1.5181,-1.5181,-1.5181,-1.5181,-1.5181,-1.5181,-1.5181,-1.5133,-1.5052,-1.4957,-1.4903,-1.4889,-1.4769,-1.4701,-1.4694,-1.4654,-1.4626,-1.462,-1.4559,-1.4532,-1.457,-1.4502,-1.4448,-1.4434,-1.438,-1.4299,-1.4299,-1.4299,-1.434,-1.4367,-1.438,-1.4373,-1.434,-1.4319,-1.4299,-1.4299,-1.4299,-1.4299,-1.4299,-1.4299,-1.4278,-1.4217,-1.3775,-1.2785,-1.157,-1.0916,-0.9802,-0.8391,-0.8145,-0.8502,-1.3397,-1.3397,-1.3397,-1.3397,-1.3397,-1.3397,-1.3397,-1.341,-1.3464,-1.3539,-1.3538,-1.3492,-1.3492,-1.3531,-1.3424,-1.3363,-1.3403,-1.3397,-1.3397,-1.3397,-1.3397,-1.3397,-1.3424,-1.3526,-1.3722,-1.395,-1.4086,-1.4428,-1.4829,-1.4909,-1.4997,-1.5153,-1.5181,-1.5181,-1.5181,-1.5181,-1.5181,-1.5181,-1.5181,-1.5181,-1.5181,-1.5181,-1.5208,-1.5255,-1.5269,-1.5296,-1.5343,-1.535,-1.5296,-1.5208,-1.5181,-1.5181,-1.5181,-1.5181,-1.5181,-1.5181,-1.5181,-1.5181,-1.5181,-1.5181,-1.5181,-1.5181,-1.5181,-1.5181,-1.5181,-1.5181,-1.5181,-1.5181,-1.5181,-1.5181,-1.5181,-1.5181,-1.5181,-1.5181,-1.5099,-1.5052,-1.5031,-1.4964,-1.4916,-1.4909,-1.4869,-1.4835,-1.4821,-1.4714,-1.4701,-1.4674,-1.4613,-1.4597,-1.4584,-1.4529,-1.4475,-1.4455,-1.4496,-1.4509,-1.4482,-1.4468,-1.4448,-1.4401,-1.4346,-1.4319,-1.4299,-1.4299,-1.4299,-1.4299,-1.4299,-1.4299,-1.4251,-1.4221,-1.3564,-1.2184,-1.0563,-0.948,-0.8349,-0.7453,-0.7552,-1.3397,-1.3397,-1.3397,-1.3397,-1.3403,-1.3417,-1.3431,-1.3444,-1.358,-1.3612,-1.3695,-1.368,-1.3687,-1.3612,-1.3538,-1.3492,-1.3417,-1.3397,-1.3397,-1.3397,-1.3403,-1.3417,-1.3492,-1.3646,-1.393,-1.4319,-1.4518,-1.4848,-1.512,-1.5133,-1.5181,-1.5181,-1.5181,-1.5181,-1.5181,-1.5181,-1.5181,-1.5181,-1.5181,-1.5187,-1.5208,-1.5208,-1.5276,-1.5411,-1.5425,-1.5479,-1.5526,-1.5539,-1.5486,-1.5255,-1.5242,-1.5248,-1.5208,-1.5194,-1.5208,-1.5187,-1.5181,-1.5181,-1.5181,-1.5181,-1.5181,-1.5181,-1.5181,-1.5181,-1.5181,-1.5181,-1.5181,-1.5181,-1.5181,-1.5181,-1.5181,-1.5181,-1.5181,-1.5181,-1.516,-1.516,-1.5174,-1.516,-1.5126,-1.512,-1.5059,-1.4984,-1.4977,-1.4875,-1.4821,-1.4748,-1.4735,-1.4708,-1.4694,-1.4713,-1.4681,-1.4654,-1.4606,-1.4593,-1.4559,-1.4552,-1.4539,-1.4498,-1.4468,-1.4401,-1.4333,-1.4312,-1.4299,-1.4299,-1.4319,-1.4312,-1.4299,-1.4255,-1.3312,-1.1549,-1.0254,-0.9331,-0.8247,-0.7153,-0.6694,-1.3397,-1.3397,-1.3397,-1.3397,-1.3417,-1.3519,-1.3524,-1.3587,-1.368,-1.3844,-1.3899,-1.3756,-1.3687,-1.3714,-1.3553,-1.3437,-1.341,-1.3397,-1.3397,-1.3397,-1.3397,-1.3539,-1.3646,-1.3768,-1.4079,-1.4518,-1.4674,-1.485,-1.516,-1.5181,-1.5181,-1.5181,-1.5181,-1.5181,-1.5181,-1.5181,-1.5181,-1.5181,-1.5181,-1.5242,-1.533,-1.535,-1.5425,-1.5512,-1.5581,-1.5553,-1.5593,-1.5587,-1.5566,-1.554,-1.552,-1.5466,-1.5364,-1.535,-1.5309,-1.5215,-1.5187,-1.5181,-1.5181,-1.5181,-1.5181,-1.5181,-1.5181,-1.5181,-1.5181,-1.5181,-1.5181,-1.5181,-1.5181,-1.5181,-1.5181,-1.5181,-1.5181,-1.5181,-1.5181,-1.5181,-1.5181,-1.5181,-1.5181,-1.5174,-1.5187,-1.512,-1.5099,-1.5079,-1.5038,-1.5025,-1.497,-1.4909,-1.4896,-1.4835,-1.4769,-1.4714,-1.4674,-1.4681,-1.4681,-1.4681,-1.4667,-1.4647,-1.4579,-1.4491,-1.4434,-1.434,-1.4319,-1.4299,-1.4373,-1.4394,-1.434,-1.4306,-1.2597,-1.1399,-1.0939,-1.0357,-0.7818,-0.6243,-0.6154,-1.3397,-1.3397,-1.3397,-1.3437,-1.3498,-1.3593,-1.3619,-1.37,-1.3871,-1.3939,-1.3933,-1.3761,-1.3687,-1.368,-1.3505,-1.3403,-1.3397,-1.3397,-1.3397,-1.3424,-1.3532,-1.3639,-1.3822,-1.4004,-1.4363,-1.466,-1.4869,-1.5018,-1.5153,-1.5181,-1.5181,-1.5181,-1.5181,-1.5181,-1.5181,-1.5181,-1.5181,-1.5194,-1.5242,-1.533,-1.5404,-1.5479,-1.5588,-1.5696,-1.573,-1.5744,-1.5811,-1.5825,-1.5778,-1.5627,-1.5587,-1.5546,-1.552,-1.5506,-1.5438,-1.5296,-1.5276,-1.5255,-1.5194,-1.5181,-1.5181,-1.5181,-1.5181,-1.5181,-1.5181,-1.5181,-1.5181,-1.5181,-1.5181,-1.5181,-1.5181,-1.5181,-1.5181,-1.5181,-1.5181,-1.5181,-1.5181,-1.5181,-1.5181,-1.5181,-1.5181,-1.5181,-1.5181,-1.5181,-1.5181,-1.516,-1.5106,-1.5072,-1.5052,-1.4964,-1.4909,-1.4882,-1.4889,-1.4916,-1.493,-1.493,-1.4875,-1.4848,-1.4728,-1.464,-1.4604,-1.4475,-1.4462,-1.4468,-1.4475,-1.4462,-1.4421,-1.4336,-1.3769,-1.2867,-1.2343,-1.1206,-0.9019,-0.6656,-0.6436,-1.3397,-1.3397,-1.3397,-1.3492,-1.3614,-1.3605,-1.37,-1.3835,-1.4027,-1.4014,-1.3862,-1.3808,-1.3714,-1.3578,-1.3478,-1.3397,-1.3397,-1.3397,-1.3444,-1.3566,-1.3741,-1.3964,-1.4031,-1.4397,-1.4647,-1.4802,-1.5072,-1.5147,-1.5181,-1.5181,-1.5181,-1.5181,-1.5181,-1.5181,-1.5194,-1.5201,-1.5255,-1.5248,-1.5371,-1.5459,-1.552,-1.5608,-1.573,-1.5901,-1.5879,-1.5927,-1.6015,-1.6042,-1.5954,-1.5654,-1.5634,-1.5689,-1.5676,-1.5614,-1.5533,-1.5472,-1.5425,-1.5371,-1.5242,-1.5228,-1.5201,-1.5187,-1.5181,-1.5181,-1.5181,-1.5181,-1.5181,-1.5181,-1.5181,-1.5181,-1.5181,-1.5181,-1.5181,-1.5181,-1.5181,-1.5181,-1.5181,-1.5181,-1.5181,-1.5181,-1.5181,-1.5181,-1.5181,-1.5181,-1.5181,-1.5181,-1.5153,-1.514,-1.5133,-1.5092,-1.5079,-1.5092,-1.5113,-1.5147,-1.5147,-1.5147,-1.5072,-1.5011,-1.4923,-1.4802,-1.4821,-1.474,-1.4713,-1.4647,-1.4624,-1.4584,-1.4557,-1.4419,-1.4289,-1.4133,-1.3439,-1.2633,-1.1394,-0.8842,-0.7684,-1.3397,-1.3397,-1.3397,-1.3492,-1.3592,-1.3707,-1.3878,-1.4034,-1.4183,-1.4156,-1.4021,-1.3856,-1.3727,-1.3585,-1.3498,-1.3397,-1.3431,-1.3444,-1.3512,-1.3768,-1.4275,-1.4478,-1.4505,-1.4681,-1.4862,-1.5031,-1.514,-1.5181,-1.5181,-1.5181,-1.5181,-1.5181,-1.5181,-1.5181,-1.5248,-1.5296,-1.5364,-1.5391,-1.5513,-1.5642,-1.5772,-1.5778,-1.5928,-1.6051,-1.6071,-1.6092,-1.6119,-1.6133,-1.6049,-1.6001,-1.5967,-1.5906,-1.5832,-1.5805,-1.5737,-1.558,-1.5588,-1.552,-1.5398,-1.535,-1.5309,-1.5208,-1.5187,-1.5181,-1.5181,-1.5181,-1.5181,-1.5181,-1.5181,-1.5181,-1.5181,-1.5181,-1.5194,-1.5201,-1.5201,-1.5194,-1.5187,-1.5181,-1.5181,-1.5181,-1.5181,-1.5181,-1.5181,-1.5181,-1.5181,-1.5181,-1.5181,-1.5181,-1.5181,-1.5181,-1.5181,-1.5181,-1.5181,-1.5181,-1.5181,-1.5181,-1.5194,-1.5153,-1.5045,-1.4997,-1.497,-1.4923,-1.4862,-1.4801,-1.4681,-1.4699,-1.4706,-1.4679,-1.4561,-1.4505,-1.4455,-1.3783,-1.2624,-1.0441,-0.8263,-1.3397,-1.3397,-1.3397,-1.3526,-1.368,-1.3768,-1.3966,-1.4163,-1.4258,-1.4217,-1.4075,-1.398,-1.3865,-1.3687,-1.3605,-1.3614,-1.3627,-1.3695,-1.3878,-1.4183,-1.4525,-1.4755,-1.4943,-1.495,-1.5045,-1.5174,-1.5181,-1.5181,-1.5181,-1.5181,-1.5181,-1.5181,-1.5181,-1.5235,-1.5282,-1.5377,-1.5445,-1.5533,-1.5662,-1.5784,-1.5894,-1.5976,-1.603,-1.6112,-1.6133,-1.6133,-1.6133,-1.6133,-1.6133,-1.6133,-1.6076,-1.6049,-1.603,-1.6003,-1.5879,-1.5771,-1.5737,-1.5669,-1.556,-1.5452,-1.5377,-1.5289,-1.5228,-1.5187,-1.5181,-1.5181,-1.5181,-1.5181,-1.5181,-1.5181,-1.5187,-1.5269,-1.5282,-1.5289,-1.5289,-1.5289,-1.5276,-1.5228,-1.5181,-1.5181,-1.5181,-1.5181,-1.5181,-1.5181,-1.5181,-1.5181,-1.5181,-1.5181,-1.5181,-1.5181,-1.5181,-1.5181,-1.5181,-1.5181,-1.5181,-1.5181,-1.5181,-1.516,-1.5133,-1.5113,-1.5106,-1.5038,-1.497,-1.493,-1.4903,-1.4889,-1.4889,-1.4862,-1.4801,-1.4685,-1.4545,-1.4529,-1.3925,-1.2359,-0.9916,-1.3397,-1.3397,-1.3397,-1.3573,-1.3774,-1.3802,-1.3971,-1.4272,-1.4299,-1.4217,-1.4132,-1.4119,-1.396,-1.3815,-1.3781,-1.3795,-1.3912,-1.4068,-1.4265,-1.4464,-1.474,-1.495,-1.5106,-1.514,-1.5147,-1.5181,-1.5181,-1.5181,-1.5181,-1.5181,-1.5181,-1.5187,-1.5221,-1.5289,-1.5384,-1.5479,-1.556,-1.5676,-1.5811,-1.5942,-1.5962,-1.6058,-1.6069,-1.6126,-1.6133,-1.6133,-1.6133,-1.6133,-1.6133,-1.6133,-1.6133,-1.6133,-1.6133,-1.6126,-1.6035,-1.5942,-1.5935,-1.5811,-1.5689,-1.5567,-1.5486,-1.5425,-1.5303,-1.5255,-1.5241,-1.5181,-1.5181,-1.5181,-1.5181,-1.5248,-1.5221,-1.5309,-1.5404,-1.5438,-1.5445,-1.5445,-1.5418,-1.5309,-1.5242,-1.5181,-1.5181,-1.5181,-1.5181,-1.5181,-1.5181,-1.5181,-1.5181,-1.5181,-1.5181,-1.5181,-1.5181,-1.5181,-1.5181,-1.5181,-1.5181,-1.5181,-1.5181,-1.5181,-1.5181,-1.5181,-1.5181,-1.5133,-1.5079,-1.512,-1.5106,-1.5072,-1.5038,-1.5011,-1.493,-1.4769,-1.4701,-1.4699,-1.4489,-1.4221,-1.1378,-1.3397,-1.3397,-1.3397,-1.3573,-1.3774,-1.3795,-1.3971,-1.4265,-1.4299,-1.4217,-1.4089,-1.4119,-1.4,-1.3849,-1.3802,-1.3869,-1.4089,-1.4299,-1.4523,-1.4681,-1.4943,-1.514,-1.516,-1.5181,-1.5181,-1.5181,-1.5181,-1.5181,-1.5181,-1.5181,-1.5181,-1.5208,-1.5303,-1.5391,-1.5479,-1.5628,-1.5806,-1.5825,-1.5996,-1.6064,-1.6085,-1.6105,-1.6133,-1.6133,-1.6133,-1.6133,-1.6133,-1.6133,-1.6133,-1.6133,-1.6133,-1.6133,-1.6133,-1.6133,-1.6112,-1.6085,-1.6022,-1.5954,-1.5832,-1.5833,-1.5642,-1.5486,-1.5377,-1.5296,-1.5228,-1.5187,-1.5194,-1.5201,-1.5208,-1.5235,-1.5364,-1.5432,-1.5486,-1.5554,-1.5553,-1.5553,-1.5526,-1.5472,-1.5337,-1.5269,-1.5228,-1.5181,-1.5181,-1.5181,-1.5181,-1.5181,-1.5181,-1.5181,-1.5181,-1.5181,-1.5181,-1.5181,-1.5181,-1.5181,-1.5181,-1.5181,-1.5181,-1.5181,-1.5181,-1.5181,-1.5181,-1.5181,-1.5181,-1.5181,-1.5181,-1.5147,-1.5133,-1.5173,-1.5065,-1.495,-1.4909,-1.4882,-1.4591,-1.4075,-1.1656,-1.3397,-1.3397,-1.3397,-1.3573,-1.3768,-1.3795,-1.4014,-1.4272,-1.4299,-1.4258,-1.4211,-1.4183,-1.415,-1.4095,-1.4038,-1.4163,-1.4326,-1.4516,-1.4713,-1.4889,-1.5072,-1.5181,-1.5181,-1.5181,-1.5181,-1.5181,-1.5181,-1.5181,-1.5181,-1.5181,-1.5181,-1.5215,-1.5337,-1.5445,-1.5554,-1.573,-1.5935,-1.601,-1.6092,-1.6133,-1.6133,-1.6133,-1.6133,-1.6133,-1.6133,-1.6133,-1.6133,-1.6133,-1.6133,-1.6133,-1.6133,-1.6133,-1.6133,-1.6133,-1.6133,-1.6133,-1.6083,-1.6056,-1.601,-1.5956,-1.5826,-1.5704,-1.5513,-1.5391,-1.5303,-1.5248,-1.5228,-1.5276,-1.5303,-1.5364,-1.5465,-1.5581,-1.5669,-1.5723,-1.575,-1.575,-1.5716,-1.5608,-1.5506,-1.5384,-1.5289,-1.5228,-1.5181,-1.5181,-1.5181,-1.5181,-1.5181,-1.5181,-1.5181,-1.5181,-1.5181,-1.5181,-1.5181,-1.5181,-1.5181,-1.5181,-1.5181,-1.5181,-1.5181,-1.5181,-1.5181,-1.5181,-1.5181,-1.5181,-1.5181,-1.5181,-1.5174,-1.5153,-1.512,-1.5092,-1.5059,-1.4958,-1.4665,-1.3597,-1.1627,-1.3397,-1.3397,-1.3397,-1.3566,-1.3774,-1.3795,-1.3971,-1.4258,-1.4299,-1.4299,-1.4299,-1.4292,-1.4292,-1.4292,-1.4312,-1.438,-1.455,-1.4647,-1.4828,-1.5011,-1.512,-1.5181,-1.5181,-1.5181,-1.5181,-1.5181,-1.5181,-1.5181,-1.5181,-1.5181,-1.5181,-1.5242,-1.5357,-1.5506,-1.5593,-1.5818,-1.5954,-1.6085,-1.6133,-1.6133,-1.6133,-1.6133,-1.6133,-1.6133,-1.6133,-1.6133,-1.6133,-1.6133,-1.6133,-1.6133,-1.6133,-1.6133,-1.6133,-1.6133,-1.6133,-1.6133,-1.6133,-1.6133,-1.6098,-1.6037,-1.5942,-1.5847,-1.5628,-1.5506,-1.5391,-1.5316,-1.5289,-1.5384,-1.5452,-1.552,-1.5662,-1.5778,-1.5901,-1.5942,-1.5949,-1.5942,-1.5859,-1.5791,-1.5703,-1.556,-1.5391,-1.5309,-1.5289,-1.5181,-1.5181,-1.5181,-1.5181,-1.5181,-1.5181,-1.5181,-1.5181,-1.5181,-1.5181,-1.5181,-1.5181,-1.5181,-1.5181,-1.5181,-1.5181,-1.5181,-1.5181,-1.5181,-1.5181,-1.5181,-1.5181,-1.5181,-1.5181,-1.5181,-1.5153,-1.5147,-1.5174,-1.5086,-1.4892,-1.4474,-1.3134,-1.3397,-1.3397,-1.3397,-1.3566,-1.3768,-1.3795,-1.3971,-1.4272,-1.4292,-1.4299,-1.4299,-1.4299,-1.4299,-1.4299,-1.4299,-1.4455,-1.4599,-1.4687,-1.4882,-1.5106,-1.5167,-1.5181,-1.5181,-1.5181,-1.5181,-1.5181,-1.5181,-1.5181,-1.5181,-1.5181,-1.5181,-1.5228,-1.5445,-1.5573,-1.5607,-1.5893,-1.6056,-1.6126,-1.6133,-1.6133,-1.6133,-1.6133,-1.6133,-1.6133,-1.6133,-1.6133,-1.6133,-1.6133,-1.6133,-1.6133,-1.6133,-1.6133,-1.6133,-1.6133,-1.6133,-1.6133,-1.6133,-1.6133,-1.6076,-1.6042,-1.603,-1.5949,-1.584,-1.5655,-1.5506,-1.5425,-1.5404,-1.5404,-1.5527,-1.5676,-1.584,-1.5894,-1.5976,-1.6037,-1.6071,-1.6078,-1.6064,-1.5976,-1.5845,-1.5778,-1.5622,-1.5506,-1.5445,-1.5296,-1.5181,-1.5181,-1.5181,-1.5187,-1.5181,-1.5181,-1.5181,-1.5181,-1.5181,-1.5181,-1.5181,-1.5181,-1.5181,-1.5181,-1.5181,-1.5181,-1.5181,-1.5181,-1.5181,-1.5181,-1.5181,-1.5181,-1.5181,-1.5181,-1.5181,-1.5181,-1.5181,-1.5181,-1.5167,-1.4699,-1.4235,-1.3397,-1.3397,-1.3397,-1.3519,-1.3673,-1.3761,-1.3923,-1.4156,-1.4265,-1.4299,-1.4299,-1.4299,-1.4299,-1.4299,-1.4299,-1.4462,-1.464,-1.4694,-1.4903,-1.5126,-1.5181,-1.5181,-1.5181,-1.5181,-1.5181,-1.5181,-1.5181,-1.5181,-1.5181,-1.5181,-1.5181,-1.5228,-1.5472,-1.558,-1.5614,-1.5934,-1.6049,-1.6133,-1.6133,-1.6133,-1.6133,-1.6133,-1.6133,-1.6133,-1.6133,-1.6133,-1.6133,-1.6133,-1.6133,-1.6133,-1.6133,-1.6133,-1.6133,-1.6133,-1.6133,-1.6133,-1.6133,-1.6133,-1.6133,-1.6133,-1.6085,-1.603,-1.5949,-1.5799,-1.5588,-1.554,-1.5588,-1.5662,-1.5716,-1.5874,-1.599,-1.5981,-1.6064,-1.6112,-1.6133,-1.6133,-1.6126,-1.6092,-1.5974,-1.592,-1.5859,-1.5737,-1.5635,-1.5547,-1.5411,-1.5323,-1.5303,-1.5282,-1.5235,-1.5181,-1.5181,-1.5181,-1.5181,-1.5181,-1.5181,-1.5181,-1.5181,-1.5181,-1.5181,-1.5181,-1.5181,-1.5181,-1.5181,-1.5181,-1.5181,-1.5181,-1.5181,-1.5181,-1.5181,-1.5181,-1.5181,-1.5181,-1.5181,-1.512,-1.4272,-1.3397,-1.3397,-1.3397,-1.3492,-1.3641,-1.3741,-1.3926,-1.4082,-1.4238,-1.4299,-1.4299,-1.4299,-1.4299,-1.4299,-1.4312,-1.4434,-1.4626,-1.4674,-1.4896,-1.5059,-1.5207,-1.5181,-1.5181,-1.5181,-1.5181,-1.5181,-1.5181,-1.5181,-1.5181,-1.5181,-1.5181,-1.5194,-1.5425,-1.5533,-1.5648,-1.5872,-1.6071,-1.6133,-1.6133,-1.6133,-1.6133,-1.6133,-1.6133,-1.6133,-1.6133,-1.6133,-1.6133,-1.6133,-1.6133,-1.6133,-1.6133,-1.6133,-1.6133,-1.6133,-1.6133,-1.6133,-1.6133,-1.6133,-1.6133,-1.6133,-1.6133,-1.6085,-1.5996,-1.5854,-1.573,-1.5696,-1.5716,-1.586,-1.5935,-1.6017,-1.6042,-1.6069,-1.6119,-1.6119,-1.6133,-1.6133,-1.6126,-1.6105,-1.6049,-1.6015,-1.5967,-1.5947,-1.5859,-1.5798,-1.5627,-1.5465,-1.5384,-1.5384,-1.5316,-1.5242,-1.5201,-1.5208,-1.5194,-1.5194,-1.5187,-1.5187,-1.5181,-1.5181,-1.5181,-1.5181,-1.5181,-1.5181,-1.5181,-1.5181,-1.5181,-1.5181,-1.5181,-1.5181,-1.5181,-1.5181,-1.5181,-1.5181,-1.5181,-1.5181,-1.4356,-1.3397,-1.3397,-1.3397,-1.3485,-1.3592,-1.3741,-1.3926,-1.4061,-1.4231,-1.4299,-1.4299,-1.4299,-1.4299,-1.4299,-1.4312,-1.4387,-1.4543,-1.4633,-1.4841,-1.4991,-1.5106,-1.5167,-1.5181,-1.5181,-1.5181,-1.5181,-1.5181,-1.5181,-1.5181,-1.5181,-1.5181,-1.5215,-1.5377,-1.5506,-1.5655,-1.5839,-1.6044,-1.6105,-1.6133,-1.6133,-1.6133,-1.6133,-1.6133,-1.6133,-1.6133,-1.6133,-1.6133,-1.6133,-1.6133,-1.6133,-1.6133,-1.6133,-1.6133,-1.6133,-1.6133,-1.6133,-1.6133,-1.6133,-1.6133,-1.6133,-1.6133,-1.6035,-1.5967,-1.5922,-1.5845,-1.5839,-1.5908,-1.5935,-1.6017,-1.6085,-1.6119,-1.6133,-1.6133,-1.6133,-1.6133,-1.6133,-1.6133,-1.6126,-1.6069,-1.6076,-1.6056,-1.6022,-1.6008,-1.594,-1.5825,-1.5662,-1.5506,-1.5458,-1.5425,-1.535,-1.5276,-1.5242,-1.5215,-1.5208,-1.5241,-1.5241,-1.5181,-1.5181,-1.5181,-1.5181,-1.5181,-1.5181,-1.5181,-1.5181,-1.5181,-1.5181,-1.5181,-1.5181,-1.5181,-1.5181,-1.5181,-1.5181,-1.5181,-1.5181,-1.4181,-1.3397,-1.3397,-1.3397,-1.3431,-1.3505,-1.37,-1.3829,-1.3966,-1.419,-1.4299,-1.4387,-1.4299,-1.4299,-1.4343,-1.4306,-1.438,-1.4478,-1.4626,-1.4821,-1.497,-1.5099,-1.5167,-1.5181,-1.5181,-1.5181,-1.5181,-1.5181,-1.5181,-1.5181,-1.5181,-1.5181,-1.5228,-1.533,-1.5486,-1.5649,-1.5852,-1.6058,-1.6098,-1.6133,-1.6133,-1.6133,-1.6133,-1.6133,-1.6133,-1.6133,-1.6133,-1.6133,-1.6133,-1.6133,-1.6133,-1.6133,-1.6133,-1.6133,-1.6133,-1.6133,-1.6133,-1.6133,-1.6133,-1.6133,-1.6133,-1.6133,-1.6076,-1.6029,-1.6037,-1.6024,-1.6037,-1.6037,-1.6064,-1.6085,-1.6126,-1.6133,-1.6133,-1.6133,-1.6133,-1.6133,-1.6133,-1.6133,-1.6133,-1.6133,-1.6083,-1.6083,-1.6112,-1.6119,-1.6112,-1.5983,-1.5854,-1.571,-1.5573,-1.5499,-1.5431,-1.5411,-1.5371,-1.535,-1.533,-1.5323,-1.5262,-1.5194,-1.5201,-1.5208,-1.5208,-1.5221,-1.5181,-1.5181,-1.5181,-1.5181,-1.5181,-1.5181,-1.5181,-1.5181,-1.5181,-1.5181,-1.5181,-1.5181,-1.5181,-1.4375,-1.3397,-1.3397,-1.3397,-1.3397,-1.3437,-1.3673,-1.3795,-1.3849,-1.417,-1.4822,-1.5381,-1.5946,-1.5858,-1.5557,-1.5389,-1.482,-1.4692,-1.4638,-1.4735,-1.493,-1.5065,-1.516,-1.5181,-1.5181,-1.5181,-1.5181,-1.5181,-1.5181,-1.5181,-1.5181,-1.5181,-1.5215,-1.5289,-1.5432,-1.5621,-1.5913,-1.6126,-1.6133,-1.6133,-1.6133,-1.6133,-1.6133,-1.6133,-1.6133,-1.6133,-1.6133,-1.6133,-1.6133,-1.6133,-1.6133,-1.6133,-1.6133,-1.6133,-1.6133,-1.6133,-1.6133,-1.6133,-1.6133,-1.6133,-1.6133,-1.6133,-1.6076,-1.6126,-1.6119,-1.6133,-1.6133,-1.6105,-1.6112,-1.6126,-1.6133,-1.6133,-1.6133,-1.6133,-1.6133,-1.6133,-1.6133,-1.6133,-1.6133,-1.6133,-1.6133,-1.6133,-1.6133,-1.6133,-1.6133,-1.6085,-1.5962,-1.5818,-1.5744,-1.5696,-1.5635,-1.5533,-1.5492,-1.5472,-1.5451,-1.5479,-1.5432,-1.5391,-1.5377,-1.5371,-1.5289,-1.5276,-1.5242,-1.5194,-1.5181,-1.5181,-1.5181,-1.5181,-1.5181,-1.5181,-1.5181,-1.5181,-1.5181,-1.5181,-1.5181,-1.5181,-1.3397,-1.3397,-1.3397,-1.3397,-1.3437,-1.3673,-1.3795,-1.3921,-1.4419,-1.5778,-1.7807,-1.9585,-1.9411,-1.8069,-1.772,-1.692,-1.575,-1.5454,-1.5567,-1.5959,-1.5975,-1.5575,-1.5368,-1.5462,-1.5181,-1.5181,-1.5181,-1.5181,-1.5181,-1.5181,-1.5181,-1.5429,-1.5626,-1.571,-1.569,-1.5927,-1.6119,-1.6133,-1.6133,-1.6133,-1.6133,-1.6133,-1.6133,-1.6133,-1.6133,-1.6133,-1.6133,-1.6133,-1.6133,-1.6133,-1.6133,-1.6133,-1.6133,-1.6133,-1.6133,-1.6133,-1.6133,-1.6133,-1.6133,-1.6133,-1.6133,-1.6133,-1.6133,-1.6133,-1.6133,-1.6133,-1.6133,-1.6133,-1.6133,-1.6133,-1.6133,-1.6133,-1.6133,-1.6133,-1.6133,-1.6133,-1.6133,-1.6133,-1.6133,-1.6133,-1.6133,-1.6133,-1.6133,-1.6133,-1.6133,-1.6064,-1.5976,-1.5915,-1.5881,-1.5811,-1.5764,-1.5675,-1.5648,-1.5649,-1.5628,-1.5566,-1.5546,-1.5526,-1.5472,-1.5445,-1.5377,-1.535,-1.5296,-1.5221,-1.5215,-1.5242,-1.5215,-1.5181,-1.5181,-1.5181,-1.5181,-1.5181,-1.5181,-1.5181,-1.5181,-1.3397,-1.3397,-1.3397,-1.3397,-1.3444,-1.3673,-1.3795,-1.415,-1.5779,-1.7938,-1.9836,-2.1005,-2.0962,-2.0183,-2.0009,-1.9541,-1.897,-1.9338,-1.9482,-1.9221,-1.8241,-1.777,-1.7351,-1.6292,-1.5462,-1.5228,-1.5228,-1.5549,-1.5181,-1.5737,-1.5415,-1.5375,-1.703,-1.6854,-1.6056,-1.5845,-1.601,-1.6112,-1.6133,-1.6133,-1.6182,-1.6225,-1.6182,-1.6175,-1.6275,-1.6133,-1.6133,-1.6133,-1.6133,-1.6133,-1.6133,-1.6133,-1.6133,-1.6133,-1.6133,-1.6133,-1.6133,-1.6133,-1.6133,-1.6133,-1.6133,-1.6133,-1.6133,-1.6133,-1.6133,-1.6133,-1.6133,-1.6133,-1.6133,-1.6133,-1.6133,-1.6133,-1.6133,-1.6133,-1.6133,-1.6133,-1.6133,-1.6133,-1.6133,-1.6133,-1.6133,-1.6133,-1.6133,-1.6133,-1.6133,-1.6133,-1.6051,-1.6044,-1.6024,-1.6037,-1.5967,-1.5927,-1.5886,-1.5818,-1.5771,-1.5757,-1.5675,-1.5634,-1.5593,-1.5533,-1.5527,-1.5479,-1.5425,-1.5371,-1.5337,-1.5309,-1.5255,-1.5208,-1.5187,-1.5181,-1.5181,-1.5181,-1.5181,-1.5181,-1.5181,-1.4052,-1.348,-1.4217,-1.4499,-1.4551,-1.4887,-1.5456,-1.6653,-1.9031,-2.1091,-2.2385,-2.3212,-2.3126,-2.2686,-2.2385,-2.161,-2.1402,-2.1632,-2.1844,-2.1726,-2.0793,-1.9661,-1.8592,-1.8089,-1.7771,-1.7032,-1.7398,-1.7911,-1.8228,-1.7903,-1.8042,-1.8634,-1.9371,-1.9552,-1.8878,-1.8858,-1.9037,-1.906,-1.8813,-1.8327,-1.8228,-1.7741,-1.6665,-1.6956,-1.6814,-1.6133,-1.6133,-1.6133,-1.6133,-1.6133,-1.6133,-1.6133,-1.6133,-1.6133,-1.6133,-1.6133,-1.6133,-1.6133,-1.6133,-1.6133,-1.6133,-1.6133,-1.6133,-1.6133,-1.6133,-1.6133,-1.6133,-1.6133,-1.6133,-1.6133,-1.6133,-1.6133,-1.6133,-1.6133,-1.6133,-1.6133,-1.6133,-1.6133,-1.6133,-1.6133,-1.6133,-1.6133,-1.6133,-1.6133,-1.6133,-1.6133,-1.6126,-1.6133,-1.6133,-1.6133,-1.6133,-1.6042,-1.6015,-1.5954,-1.5906,-1.5893,-1.5852,-1.5798,-1.5757,-1.5716,-1.5676,-1.5628,-1.5567,-1.5472,-1.5445,-1.5432,-1.5309,-1.5248,-1.5221,-1.5201,-1.5181,-1.5181,-1.5181,-1.5181,-1.5181,-1.5432,-1.4052,-1.5843,-1.6688,-1.6789,-1.7422,-1.8971,-2.13,-2.3501,-2.4563,-2.4904,-2.6927,-2.6491,-2.5032,-2.4819,-2.3867,-2.2621,-2.2666,-2.2869,-2.2736,-2.2808,-2.1421,-2.0945,-2.0991,-2.0122,-2.0159,-2.0437,-2.0852,-2.2142,-2.1267,-2.136,-2.1958,-2.2228,-2.2457,-2.2641,-2.3269,-2.3126,-2.2245,-2.1107,-2.1058,-2.1352,-1.8862,-1.8228,-1.8179,-1.7494,-1.6374,-1.6133,-1.6133,-1.6133,-1.6133,-1.6133,-1.6133,-1.6133,-1.6133,-1.6133,-1.6133,-1.6133,-1.6133,-1.6133,-1.6133,-1.6133,-1.6133,-1.6133,-1.6133,-1.6133,-1.6133,-1.6133,-1.6133,-1.6133,-1.6133,-1.6133,-1.6133,-1.6133,-1.6133,-1.6133,-1.6133,-1.6133,-1.6133,-1.6133,-1.6133,-1.6133,-1.6133,-1.6133,-1.6133,-1.6133,-1.6133,-1.6133,-1.6133,-1.6133,-1.6133,-1.6133,-1.6126,-1.6112,-1.6119,-1.6085,-1.5995,-1.5981,-1.5927,-1.59,-1.5859,-1.5818,-1.5778,-1.573,-1.5683,-1.5593,-1.5519,-1.5397,-1.5343,-1.5262,-1.5242,-1.5248,-1.5201,-1.5208,-1.5187,-1.5181,-1.7138,-1.8078,-1.8689,-1.8973,-1.9276,-2.1159,-2.2587,-2.3467,-2.4426,-2.5501,-2.7236,-2.7883,-2.7659,-2.7194,-2.7194,-2.663,-2.6491,-2.6648,-2.6941,-2.6552,-2.5443,-2.473,-2.3976,-2.3198,-2.228,-2.2004,-2.228,-2.3106,-2.2693,-2.2739,-2.2785,-2.251,-2.4489,-2.5203,-2.6249,-2.7599,-2.6255,-2.4783,-2.3413,-2.3724,-2.3248,-2.0568,-2.0027,-1.9298,-1.7501,-1.6424,-1.6133,-1.6133,-1.6133,-1.6133,-1.6133,-1.6133,-1.6133,-1.6133,-1.6133,-1.6133,-1.6133,-1.6133,-1.6133,-1.6133,-1.6133,-1.6133,-1.6133,-1.6133,-1.6133,-1.6133,-1.6133,-1.6133,-1.6133,-1.6133,-1.6133,-1.6133,-1.6133,-1.6133,-1.6133,-1.6133,-1.6133,-1.6133,-1.6133,-1.6133,-1.6133,-1.6133,-1.6133,-1.6133,-1.6133,-1.6133,-1.6133,-1.6133,-1.6133,-1.6133,-1.6133,-1.6133,-1.6133,-1.6133,-1.6133,-1.6092,-1.6105,-1.6105,-1.6064,-1.6037,-1.6024,-1.5934,-1.5886,-1.5825,-1.575,-1.5627,-1.5539,-1.5445,-1.5398,-1.5364,-1.5357,-1.5282,-1.5228,-1.5208,-1.5187,-1.9451,-1.9988,-2.0837,-2.1254,-2.1801,-2.4191,-2.5409,-2.5628,-2.5954,-2.7012,-2.8094,-2.8192,-2.8192,-2.8094,-2.8052,-2.8023,-2.8021,-2.825,-2.8552,-2.8233,-2.8003,-2.6894,-2.5957,-2.5639,-2.5082,-2.4626,-2.4899,-2.6048,-2.5218,-2.5355,-2.5582,-2.5866,-2.7238,-2.7636,-2.8503,-2.9325,-2.9118,-2.7498,-2.6283,-2.6194,-2.4937,-2.2702,-2.1049,-2.0706,-1.8327,-1.6665,-1.6325,-1.6325,-1.6175,-1.6133,-1.6133,-1.6133,-1.6133,-1.6133,-1.6133,-1.6133,-1.6133,-1.6133,-1.6133,-1.6133,-1.6133,-1.6133,-1.6133,-1.6133,-1.6133,-1.6133,-1.6133,-1.6133,-1.6133,-1.6133,-1.6133,-1.6133,-1.6133,-1.6133,-1.6133,-1.6133,-1.6133,-1.6133,-1.6133,-1.6133,-1.6133,-1.6133,-1.6133,-1.6133,-1.6133,-1.6133,-1.6133,-1.6133,-1.6133,-1.6133,-1.6133,-1.6133,-1.6133,-1.6133,-1.6133,-1.6133,-1.6133,-1.6133,-1.6119,-1.6105,-1.6133,-1.6105,-1.5988,-1.5913,-1.5832,-1.5771,-1.5723,-1.5593,-1.5519,-1.5527,-1.5499,-1.5459,-1.5371,-1.5255,-1.5228,-2.2046,-2.0716,-2.2539,-2.3535,-2.4162,-2.6225,-2.7305,-2.7722,-2.7835,-2.8179,-2.8192,-2.8192,-2.8192,-2.8192,-2.8192,-2.8192,-2.8366,-2.8751,-2.9001,-2.9041,-2.9277,-2.8526,-2.8031,-2.8391,-2.7567,-2.7657,-2.7985,-2.8391,-2.9317,-2.8989,-2.8629,-2.9869,-2.9586,-2.9525,-2.9794,-3.0346,-3.0219,-2.9807,-2.8915,-2.8644,-2.8548,-2.5469,-2.153,-2.2897,-2.0282,-1.7211,-1.7013,-1.6765,-1.6374,-1.6474,-1.6182,-1.6182,-1.6133,-1.6133,-1.6133,-1.6133,-1.6133,-1.6133,-1.6133,-1.6133,-1.6133,-1.6133,-1.6133,-1.6133,-1.6133,-1.6133,-1.6133,-1.6133,-1.6133,-1.6133,-1.6133,-1.6133,-1.6133,-1.6133,-1.6133,-1.6133,-1.6133,-1.6133,-1.6133,-1.6133,-1.6133,-1.6133,-1.6133,-1.6133,-1.6133,-1.6133,-1.6133,-1.6133,-1.6133,-1.6133,-1.6133,-1.6133,-1.6133,-1.6133,-1.6133,-1.6133,-1.6133,-1.6133,-1.6133,-1.6133,-1.6133,-1.6133,-1.6133,-1.6001,-1.5927,-1.5956,-1.5908,-1.5798,-1.5744,-1.5676,-1.5649,-1.56,-1.5547,-1.5398,-1.5309,-2.3792,-2.4853,-2.5409,-2.5776,-2.6102,-2.6931,-2.7469,-2.7722,-2.8058,-2.8179,-2.8192,-2.8192,-2.8192,-2.8192,-2.8192,-2.8192,-2.8326,-2.8724,-2.8948,-2.9175,-2.9646,-2.9586,-2.8989,-2.9362,-2.9362,-2.9451,-2.9689,-2.9913,-2.9913,-2.9913,-2.9913,-2.9913,-2.9913,-2.9993,-3.01,-3.0501,-3.0816,-3.0889,-3.0878,-3.0579,-3.0496,-2.8895,-2.6312,-2.5829,-2.3345,-2.1597,-2.096,-1.979,-1.9347,-1.8953,-1.6963,-1.6325,-1.6133,-1.6133,-1.6133,-1.6133,-1.6133,-1.6133,-1.6133,-1.6133,-1.6133,-1.6133,-1.6133,-1.6133,-1.6133,-1.6133,-1.6133,-1.6133,-1.6133,-1.6133,-1.6133,-1.6133,-1.6133,-1.6133,-1.6133,-1.6133,-1.6133,-1.6133,-1.6133,-1.6133,-1.6133,-1.6133,-1.6133,-1.6133,-1.6133,-1.6133,-1.6133,-1.6133,-1.6133,-1.6133,-1.6133,-1.6133,-1.6133,-1.6133,-1.6133,-1.6133,-1.6133,-1.6133,-1.6133,-1.6133,-1.6133,-1.6133,-1.6133,-1.6076,-1.6042,-1.6051,-1.6037,-1.6058,-1.5947,-1.5845,-1.5798,-1.5791,-1.5668,-1.5581,-1.5479,-2.529,-2.6347,-2.64,-2.664,-2.7001,-2.7242,-2.755,-2.7924,-2.8112,-2.8192,-2.8192,-2.8192,-2.8192,-2.8192,-2.8192,-2.8192,-2.8299,-2.8764,-2.8935,-2.9175,-2.9579,-2.9833,-2.9913,-2.9913,-2.9824,-2.9913,-2.9913,-2.9913,-2.9913,-2.9913,-2.9913,-2.9913,-2.9913,-2.9927,-2.9962,-3.0448,-3.0795,-3.0822,-3.143,-3.1671,-3.1474,-2.9482,-2.7924,-2.7047,-2.5674,-2.4366,-2.3053,-2.1539,-2.0363,-1.9298,-1.7452,-1.6325,-1.6133,-1.6133,-1.6133,-1.6133,-1.6133,-1.6133,-1.6133,-1.6133,-1.6133,-1.6133,-1.6133,-1.6133,-1.6133,-1.6133,-1.6133,-1.6133,-1.6133,-1.6133,-1.6133,-1.6133,-1.6133,-1.6133,-1.6133,-1.6133,-1.6133,-1.6133,-1.6133,-1.6133,-1.6133,-1.6133,-1.6133,-1.6133,-1.6133,-1.6133,-1.6133,-1.6133,-1.6133,-1.6133,-1.6133,-1.6133,-1.6133,-1.6133,-1.6133,-1.6133,-1.6133,-1.6133,-1.6133,-1.6133,-1.6133,-1.6133,-1.6126,-1.6076,-1.6076,-1.6119,-1.6119,-1.6133,-1.6119,-1.5981,-1.5947,-1.5983,-1.5845,-1.5715,-1.5689,-2.6347,-2.6386,-2.64,-2.672,-2.7255,-2.7309,-2.763,-2.8112,-2.8192,-2.8192,-2.8192,-2.8192,-2.8192,-2.8192,-2.8192,-2.8192,-2.8366,-2.8791,-2.8948,-2.9161,-2.9602,-2.9847,-2.9913,-2.9913,-2.9913,-2.9913,-2.9913,-2.9913,-2.9913,-2.9913,-2.9913,-2.9913,-2.9913,-2.9913,-3.0087,-3.0434,-3.0795,-3.0942,-3.1289,-3.1657,-3.0747,-2.9625,-2.8943,-2.7624,-2.6301,-2.5045,-2.4161,-2.2848,-2.1383,-1.9978,-1.8813,-1.7006,-1.6225,-1.6133,-1.6133,-1.6133,-1.6133,-1.6133,-1.6133,-1.6133,-1.6133,-1.6133,-1.6133,-1.6133,-1.6133,-1.6133,-1.6133,-1.6133,-1.6133,-1.6133,-1.6133,-1.6133,-1.6133,-1.6133,-1.6133,-1.6133,-1.6133,-1.6133,-1.6133,-1.6133,-1.6133,-1.6133,-1.6133,-1.6133,-1.6133,-1.6133,-1.6133,-1.6133,-1.6133,-1.6133,-1.6133,-1.6133,-1.6133,-1.6133,-1.6133,-1.6133,-1.6133,-1.6133,-1.6133,-1.6133,-1.6133,-1.6133,-1.6133,-1.6133,-1.6133,-1.6133,-1.6133,-1.6133,-1.6119,-1.6112,-1.6092,-1.6058,-1.5995,-1.5927,-1.5893,-2.64,-2.64,-2.64,-2.6774,-2.7255,-2.7309,-2.7643,-2.8125,-2.8192,-2.8192,-2.8192,-2.8192,-2.8192,-2.8192,-2.8192,-2.8192,-2.8286,-2.8751,-2.8948,-2.9095,-2.9602,-2.9847,-2.9913,-2.9913,-2.9913,-2.9913,-2.9913,-2.9913,-2.9913,-2.9913,-2.9913,-2.9913,-2.9913,-2.994,-3.002,-3.0408,-3.0808,-3.0969,-3.1303,-3.1724,-3.1724,-3.108,-3.1128,-3.0639,-3.0496,-3.0245,-2.9517,-2.7624,-2.6698,-2.4996,-2.1686,-1.8475,-1.6765,-1.6133,-1.6133,-1.6133,-1.6133,-1.6133,-1.6133,-1.6133,-1.6133,-1.6133,-1.6133,-1.6133,-1.6133,-1.6133,-1.6133,-1.6133,-1.6133,-1.6133,-1.6133,-1.6133,-1.6133,-1.6133,-1.6133,-1.6133,-1.6133,-1.6133,-1.6133,-1.6133,-1.6133,-1.6133,-1.6133,-1.6133,-1.6133,-1.6133,-1.6133,-1.6133,-1.6133,-1.6133,-1.6133,-1.6133,-1.6133,-1.6133,-1.6133,-1.6133,-1.6133,-1.6133,-1.6133,-1.6133,-1.6133,-1.6133,-1.6133,-1.6133,-1.6133,-1.6133,-1.6133,-1.6133,-1.6126,-1.6126,-1.6126,-1.6119,-1.6069,-1.6056,-1.6051]},{"header":{"parameterUnit":"m.s-1","parameterCategory":1,"la1":31.0,"la2":29.5877,"lo1":-88.7671,"lo2":-86.6584,"dx":0.0162,"dy":0.0185,"nx":115,"ny":88,"refTime":"2022-11-29T06:00:00:Z","depth":0,"parameterNumber":3,"parameterNumberName":"V-component_of_WINDS"},"data":[0.0,0.0,0.0,0.0,0.0,0.0,0.0,0.0,0.0,0.0,0.0,0.0,0.0,0.0,0.0,0.0,0.0,0.0,0.0,0.0,0.0,0.0,0.0,0.0,0.0,0.0,0.0,0.0,0.0,0.0,0.0,0.0,0.0,0.0,0.0,0.0,0.0,0.0,0.0,0.0,0.0,0.0,0.0,0.0,0.0,0.0,0.0,0.0,0.0,0.0,0.0,0.0,0.0,0.0,0.0,0.0,0.0,0.0,0.0,0.0,0.0,0.0,0.0,0.0,0.0,0.0,0.0,0.0,0.0,0.0,0.0,0.0,0.0,0.0,0.0,0.0,0.0,0.0,0.0,0.0,0.0,0.0,0.0,0.0,0.0,0.0,0.0,0.0,0.0,0.0,0.0,0.0,0.0,0.0,0.0,0.0,0.0,0.0,0.0,0.0,0.0,0.0,0.0,0.0,0.0,0.0,0.0,0.0,0.0,0.0,0.0,0.0,0.0,0.0,0.0,0.0,0.0,0.0,0.0,0.0,0.0,0.0,0.0,0.0,0.0,0.0,0.0,0.0,0.0,0.0,0.0,0.0,0.0,0.0,0.0,0.0,0.0,0.0,0.0,0.0,0.0,0.0,0.0,0.0,0.0,0.0,0.0,0.0,0.0,0.0,0.0,0.0,0.0,0.0,0.0,0.0,0.0,0.0,0.0,0.0,0.0,0.0,0.0,0.0,0.0,0.0,0.0,0.0,0.0,0.0,0.0,0.0,0.0,0.0,0.0,0.0,0.0,0.0,0.0,0.0,0.0,0.0,0.0,0.0,0.0,0.0,0.0,0.0,0.0,0.0,0.0,0.0,0.0,0.0,0.0,0.0,0.0,0.0,0.0,0.0,0.0,0.0,0.0,0.0,0.0,0.0,0.0,0.0,0.0,0.0,0.0,0.0,0.0,0.0,0.0,0.0,0.0,0.0,0.0,0.0,0.0,0.0,0.0,0.0,0.0,0.0,0.0,0.0,0.0,0.0,0.0,0.0,0.0,0.0,0.0,0.0,0.0,0.0,0.0,0.0,0.0,0.0,0.0,0.0,0.0,0.0,0.0,0.0,0.0,0.0,0.0,0.0,0.0,0.0,0.0,0.0,0.0,0.0,0.0,0.0,0.0,0.0,0.0,0.0,0.0,0.0,0.0,0.0,0.0,0.0,0.0,0.0,0.0,0.0,0.0,0.0,0.0,0.0,0.0,0.0,0.0,0.0,0.0,0.0,0.0,0.0,0.0,0.0,0.0,0.0,0.0,0.0,0.0,0.0,0.0,0.0,0.0,0.0,0.0,0.0,0.0,0.0,0.0,0.0,0.0,0.0,0.0,0.0,0.0,0.0,0.0,0.0,0.0,0.0,0.0,0.0,0.0,0.0,0.0,0.0,0.0,0.0,0.0,0.0,0.0,0.0,0.0,0.0,0.0,0.0,0.0,0.0,0.0,0.0,0.0,0.0,0.0,0.0,0.0,0.0,0.0,0.0,0.0,0.0,0.0,0.0,0.0,0.0,0.0,0.0,0.0,0.0,0.0,0.0,0.0,0.0,0.0,0.0,0.0,0.0,0.0,0.0,0.0,0.0,0.0,0.0,0.0,0.0,0.0,0.0,0.0,0.0,0.0,0.0,0.0,0.0,0.0,0.0,0.0,0.0,0.0,0.0,0.0,0.0,0.0,0.0,0.0,0.0,0.0,0.0,0.0,0.0,0.0,0.0,0.0,0.0,0.0,0.0,0.0,0.0,0.0,0.0,0.0,0.0,0.0,0.0,0.0,0.0,0.0,0.0,0.0,0.0,0.0,0.0,0.0,0.0,0.0,0.0,0.0,0.0,0.0,0.0,0.0,0.0,0.0,0.0,0.0,0.0,0.0,0.0,0.0,0.0,0.0,0.0,0.0,0.0,0.0,0.0,0.0,0.0,0.0,0.0,0.0,0.0,0.0,0.0,0.0,0.0,0.0,0.0,0.0,0.0,0.0,0.0,0.0,0.0,0.0,0.0,0.0,0.0,0.0,0.0,0.0,0.0,0.0,0.0,0.0,0.0,0.0,0.0,0.0,0.0,0.0,0.0,0.0,0.0,0.0,0.0,0.0,0.0,0.0,0.0,0.0,0.0,0.0,0.0,0.0,0.0,0.0,0.0,0.0,0.0,0.0,0.0,0.0,0.0,0.0,0.0,0.0,0.0,0.0,0.0,0.0,0.0,0.0,0.0,0.0,0.0,0.0,0.0,0.0,0.0,0.0,0.0,0.0,0.0,0.0,0.0,0.0,0.0,0.0,0.0,0.0,0.0,0.0,0.0,0.0,0.0,0.0,0.0,0.0,0.0,0.0,0.0,0.0,0.0,0.0,0.0,0.0,0.0,0.0,0.0,0.0,0.0,0.0,0.0,0.0,0.0,0.0,0.0,0.0,0.0,0.0,0.0,0.0,0.0,0.0,0.0,0.0,0.0,0.0,0.0,0.0,0.0,0.0,0.0,0.0,0.0,0.0,0.0,0.0,0.0,0.0,0.0,0.0,0.0,0.0,0.0,0.0,0.0,0.0,0.0,0.0,0.0,0.0,0.0,0.0,0.0,0.0,0.0,0.0,0.0,0.0,0.0,0.0,0.0,0.0,0.0,0.0,0.0,0.0,0.0,0.0,0.0,0.0,0.0,0.0,0.0,0.0,0.0,0.0,0.0,0.0,0.0,0.0,0.0,0.0,0.0,0.0,0.0,0.0,0.0,0.0,0.0,0.0,0.0,0.0,0.0,0.0,0.0,0.0,0.0,0.0,0.0,0.0,0.0,0.0,0.0,0.0,0.0,0.0,0.0,0.0,0.0,0.0,0.0,0.0,0.0,0.0,0.0,0.0,0.0,0.0,0.0,0.0,0.0,0.0,0.0,0.0,0.0,0.0,0.0,0.0,0.0,0.0,0.0,0.0,0.0,0.0,0.0,0.0,0.0,0.0,0.0,0.0,0.0,0.0,0.0,0.0,0.0,0.0,0.0,0.0,0.0,0.0,0.0,0.0,0.0,0.0,0.0,0.0,0.0,0.0,0.0,0.0,0.0,0.0,0.0,0.0,0.0,0.0,0.0,0.0,0.0,0.0,0.0,0.0,0.0,0.0,0.0,0.0,0.0,0.0,0.0,0.0,0.0,0.0,0.0,0.0,0.0,0.0,0.0,0.0,0.0,0.0,0.0,0.0,0.0,0.0,0.0,0.0,0.0,0.0,0.0,0.0,0.0,0.0,0.0,0.0,0.0,0.0,0.0,0.0,0.0,0.0,0.0,0.0,0.0,0.0,0.0,0.0,0.0,0.0,0.0,0.0,0.0,0.0,0.0,0.0,0.0,0.0,0.0,0.0,0.0,0.0,0.0,0.0,0.0,0.0,0.0,0.0,0.0,0.0,0.0,0.0,0.0,0.0,0.0,0.0,0.0,0.0,0.0,0.0,0.0,0.0,0.0,0.0,0.0,0.0,0.0,0.0,0.0,0.0,0.0,0.0,0.0,0.0,0.0,0.0,0.0,0.0,0.0,0.0,0.0,0.0,0.0,0.0,0.0,0.0,0.0,0.0,0.0,0.0,0.0,0.0,0.0,0.0,0.0,0.0,0.0,0.0,0.0,0.0,0.0,0.0,0.0,0.0,0.0,0.0,0.0,0.0,0.0,0.0,0.0,0.0,0.0,0.0,0.0,0.0,0.0,0.0,0.0,0.0,0.0,0.0,0.0,0.0,0.0,0.0,0.0,0.0,0.0,0.0,0.0,0.0,0.0,0.0,0.0,0.0,0.0,0.0,0.0,0.0,0.0,0.0,0.0,0.0,0.0,0.0,0.0,0.0,0.0,0.0,0.0,0.0,0.0,0.0,0.0,0.0,0.0,0.0,0.0,0.0,0.0,0.0,0.0,0.0,0.0,0.0,0.0,0.0,0.0,0.0,0.0,0.0,0.0,0.0,0.0,0.0,0.0,0.0,0.0,0.0,0.0,0.0,0.0,0.0,0.0,0.0,0.0,0.0,0.0,0.0,0.0,0.0,0.0,0.0,0.0,0.0,0.0,0.0,0.0,0.0,0.0,0.0,0.0,0.0,0.0,0.0,0.0,0.0,0.0,0.0,0.0,0.0,0.0,0.0,0.0,0.0,0.0,0.0,0.0,0.0,0.0,0.0,0.0,0.0,0.0,0.0,0.0,0.0,0.0,0.0,0.0,0.0,0.0,0.0,0.0,0.0,0.0,0.0,0.0,3.3807,0.0,0.0,0.0,3.3807,0.0,0.0,0.0,0.0,0.0,0.0,0.0,0.0,0.0,0.0,0.0,0.0,0.0,0.0,0.0,0.0,0.0,0.0,0.0,0.0,0.0,0.0,0.0,0.0,0.0,0.0,0.0,0.0,0.0,0.0,0.0,0.0,0.0,0.0,0.0,0.0,0.0,0.0,0.0,0.0,0.0,0.0,0.0,0.0,0.0,0.0,0.0,0.0,0.0,0.0,0.0,0.0,0.0,0.0,0.0,0.0,0.0,0.0,0.0,0.0,0.0,0.0,0.0,0.0,0.0,0.0,0.0,0.0,0.0,0.0,0.0,0.0,0.0,0.0,0.0,0.0,0.0,0.0,0.0,0.0,0.0,0.0,0.0,0.0,0.0,0.0,0.0,0.0,0.0,0.0,0.0,0.0,0.0,0.0,0.0,0.0,0.0,0.0,0.0,0.0,0.0,0.0,0.0,0.0,0.0,0.0,0.0,0.0,0.0,0.0,3.3807,3.3807,3.3807,3.3807,3.3807,0.0,0.0,0.0,0.0,0.0,0.0,0.0,0.0,0.0,0.0,0.0,0.0,0.0,0.0,0.0,0.0,0.0,0.0,0.0,0.0,0.0,0.0,0.0,0.0,0.0,0.0,0.0,0.0,0.0,0.0,0.0,0.0,0.0,0.0,0.0,0.0,0.0,0.0,0.0,0.0,0.0,0.0,0.0,0.0,0.0,0.0,0.0,0.0,0.0,0.0,0.0,0.0,0.0,0.0,0.0,0.0,0.0,0.0,0.0,0.0,0.0,0.0,0.0,0.0,0.0,0.0,0.0,0.0,0.0,0.0,0.0,0.0,0.0,0.0,0.0,0.0,0.0,0.0,0.0,0.0,0.0,0.0,0.0,0.0,0.0,0.0,0.0,0.0,0.0,0.0,0.0,0.0,0.0,0.0,0.0,0.0,0.0,0.0,0.0,0.0,0.0,0.0,0.0,0.0,0.0,0.0,0.0,0.0,0.0,0.0,0.0,0.0,3.3807,3.3807,3.3807,0.0,0.0,0.0,0.0,0.0,0.0,0.0,0.0,0.0,0.0,0.0,0.0,0.0,0.0,0.0,0.0,0.0,0.0,0.0,0.0,0.0,0.0,0.0,0.0,0.0,0.0,0.0,0.0,0.0,0.0,0.0,0.0,0.0,0.0,0.0,0.0,0.0,0.0,0.0,0.0,0.0,0.0,0.0,0.0,0.0,0.0,0.0,0.0,0.0,0.0,0.0,0.0,0.0,0.0,0.0,0.0,0.0,0.0,0.0,0.0,0.0,0.0,0.0,0.0,0.0,0.0,0.0,0.0,0.0,0.0,0.0,0.0,0.0,0.0,0.0,0.0,0.0,0.0,0.0,0.0,0.0,0.0,0.0,0.0,0.0,0.0,0.0,0.0,0.0,0.0,0.0,0.0,0.0,0.0,0.0,0.0,0.0,0.0,0.0,0.0,0.0,0.0,0.0,0.0,0.0,0.0,0.0,0.0,0.0,0.0,3.3807,3.3807,3.3807,0.0,3.3807,0.0,0.0,0.0,0.0,0.0,0.0,0.0,0.0,0.0,0.0,0.0,0.0,0.0,0.0,0.0,0.0,0.0,0.0,0.0,0.0,0.0,0.0,0.0,0.0,0.0,0.0,0.0,0.0,0.0,0.0,0.0,0.0,0.0,0.0,0.0,0.0,0.0,0.0,0.0,0.0,0.0,0.0,0.0,0.0,0.0,0.0,0.0,0.0,0.0,0.0,0.0,0.0,0.0,0.0,0.0,0.0,0.0,0.0,0.0,0.0,0.0,0.0,0.0,0.0,0.0,0.0,0.0,0.0,0.0,0.0,0.0,0.0,0.0,0.0,0.0,0.0,0.0,0.0,0.0,0.0,0.0,0.0,0.0,0.0,0.0,0.0,0.0,0.0,0.0,0.0,0.0,0.0,0.0,0.0,0.0,0.0,0.0,0.0,0.0,0.0,0.0,0.0,0.0,0.0,0.0,0.0,0.0,0.0,0.0,0.0,3.4511,3.4559,3.4164,3.3883,0.0,0.0,0.0,0.0,0.0,0.0,0.0,0.0,0.0,0.0,0.0,0.0,0.0,0.0,0.0,0.0,0.0,0.0,0.0,0.0,0.0,0.0,0.0,0.0,0.0,0.0,0.0,0.0,0.0,0.0,0.0,0.0,0.0,0.0,0.0,0.0,0.0,0.0,0.0,0.0,0.0,0.0,0.0,0.0,0.0,0.0,0.0,0.0,0.0,0.0,0.0,0.0,0.0,0.0,0.0,0.0,0.0,0.0,0.0,0.0,0.0,0.0,0.0,0.0,0.0,0.0,0.0,0.0,0.0,0.0,0.0,0.0,0.0,0.0,0.0,0.0,0.0,0.0,0.0,0.0,0.0,0.0,0.0,0.0,0.0,0.0,0.0,0.0,0.0,0.0,0.0,0.0,0.0,0.0,0.0,0.0,0.0,0.0,0.0,0.0,0.0,0.0,0.0,0.0,0.0,0.0,0.0,0.0,0.0,0.0,3.577,3.5356,3.5172,3.4448,3.4005,3.3978,0.0,0.0,0.0,0.0,0.0,0.0,0.0,0.0,0.0,0.0,0.0,0.0,0.0,0.0,0.0,0.0,0.0,0.0,0.0,0.0,0.0,0.0,0.0,0.0,0.0,0.0,0.0,0.0,0.0,0.0,0.0,0.0,0.0,0.0,0.0,0.0,0.0,0.0,0.0,0.0,0.0,0.0,0.0,0.0,0.0,0.0,0.0,0.0,0.0,0.0,0.0,0.0,0.0,0.0,0.0,0.0,0.0,0.0,0.0,0.0,0.0,0.0,0.0,0.0,0.0,0.0,0.0,0.0,0.0,0.0,0.0,0.0,0.0,0.0,0.0,0.0,0.0,0.0,0.0,0.0,0.0,0.0,0.0,0.0,0.0,0.0,0.0,0.0,0.0,0.0,0.0,0.0,0.0,0.0,0.0,0.0,0.0,0.0,0.0,0.0,0.0,0.0,0.0,0.0,0.0,0.0,0.0,0.0,3.6593,3.6569,3.6188,3.551,3.4661,3.4179,0.0,0.0,0.0,0.0,0.0,0.0,0.0,0.0,0.0,0.0,0.0,0.0,0.0,0.0,0.0,0.0,0.0,0.0,0.0,0.0,0.0,0.0,0.0,0.0,0.0,0.0,0.0,0.0,0.0,0.0,0.0,0.0,0.0,0.0,0.0,0.0,0.0,0.0,0.0,0.0,0.0,0.0,0.0,0.0,0.0,0.0,0.0,0.0,0.0,0.0,0.0,0.0,0.0,0.0,0.0,0.0,0.0,0.0,0.0,0.0,0.0,0.0,0.0,0.0,0.0,0.0,0.0,0.0,0.0,0.0,0.0,0.0,0.0,0.0,0.0,0.0,0.0,0.0,0.0,0.0,0.0,0.0,0.0,0.0,0.0,0.0,0.0,0.0,0.0,0.0,0.0,0.0,0.0,0.0,0.0,0.0,0.0,0.0,0.0,0.0,0.0,0.0,0.0,0.0,0.0,0.0,0.0,0.0,0.0,3.8262,3.7878,3.7037,3.5783,3.5443,3.4985,0.0,0.0,0.0,0.0,0.0,0.0,0.0,0.0,0.0,0.0,0.0,0.0,0.0,0.0,0.0,0.0,0.0,0.0,0.0,0.0,0.0,0.0,0.0,0.0,0.0,0.0,0.0,0.0,0.0,0.0,0.0,0.0,0.0,0.0,0.0,0.0,0.0,0.0,0.0,0.0,0.0,0.0,0.0,0.0,0.0,0.0,0.0,0.0,0.0,0.0,0.0,0.0,0.0,0.0,0.0,0.0,0.0,0.0,0.0,0.0,0.0,0.0,0.0,0.0,0.0,0.0,0.0,0.0,0.0,0.0,0.0,0.0,0.0,0.0,0.0,0.0,0.0,0.0,0.0,0.0,0.0,0.0,0.0,0.0,0.0,0.0,0.0,0.0,0.0,0.0,0.0,0.0,0.0,0.0,0.0,0.0,0.0,0.0,0.0,0.0,0.0,0.0,0.0,0.0,0.0,0.0,0.0,0.0,0.0,3.9383,3.8783,3.7893,3.6842,3.6507,3.5905,0.0,0.0,0.0,0.0,0.0,0.0,0.0,0.0,0.0,0.0,0.0,0.0,0.0,0.0,0.0,0.0,0.0,0.0,0.0,0.0,0.0,0.0,0.0,0.0,0.0,0.0,0.0,0.0,0.0,0.0,0.0,0.0,0.0,0.0,0.0,0.0,0.0,0.0,0.0,0.0,0.0,0.0,0.0,0.0,0.0,0.0,0.0,0.0,0.0,0.0,0.0,0.0,0.0,0.0,0.0,0.0,0.0,0.0,0.0,0.0,0.0,0.0,0.0,0.0,0.0,0.0,0.0,0.0,0.0,0.0,0.0,0.0,0.0,0.0,0.0,0.0,0.0,0.0,0.0,0.0,0.0,0.0,0.0,0.0,0.0,0.0,0.0,0.0,0.0,0.0,0.0,0.0,0.0,0.0,0.0,0.0,0.0,0.0,0.0,0.0,0.0,0.0,0.0,0.0,0.0,0.0,0.0,0.0,3.9552,3.9868,3.9191,3.8789,3.8756,3.7869,3.6977,0.0,0.0,0.0,0.0,0.0,0.0,0.0,0.0,0.0,0.0,0.0,0.0,0.0,0.0,0.0,0.0,0.0,0.0,0.0,0.0,0.0,0.0,0.0,0.0,0.0,0.0,0.0,0.0,0.0,0.0,0.0,0.0,0.0,0.0,0.0,0.0,0.0,0.0,0.0,0.0,0.0,0.0,0.0,0.0,0.0,0.0,0.0,0.0,0.0,0.0,0.0,0.0,0.0,0.0,0.0,0.0,0.0,0.0,0.0,0.0,0.0,0.0,0.0,0.0,0.0,0.0,0.0,0.0,0.0,0.0,0.0,0.0,0.0,0.0,0.0,0.0,0.0,0.0,0.0,0.0,0.0,0.0,0.0,0.0,0.0,0.0,0.0,0.0,0.0,0.0,0.0,0.0,0.0,0.0,0.0,0.0,0.0,0.0,0.0,0.0,0.0,0.0,0.0,0.0,0.0,0.0,0.0,0.0,0.0,4.0133,3.9938,3.9555,3.9025,3.8669,3.8047,0.0,0.0,0.0,0.0,0.0,0.0,0.0,0.0,0.0,0.0,0.0,0.0,0.0,0.0,0.0,0.0,0.0,0.0,0.0,0.0,0.0,0.0,0.0,0.0,0.0,0.0,0.0,0.0,0.0,0.0,0.0,0.0,0.0,0.0,0.0,0.0,0.0,0.0,0.0,0.0,0.0,0.0,0.0,0.0,0.0,0.0,0.0,0.0,0.0,0.0,0.0,0.0,0.0,0.0,0.0,0.0,0.0,0.0,0.0,0.0,0.0,0.0,0.0,0.0,0.0,0.0,0.0,0.0,0.0,0.0,0.0,0.0,0.0,0.0,0.0,0.0,0.0,0.0,0.0,0.0,0.0,0.0,0.0,0.0,0.0,0.0,0.0,0.0,0.0,0.0,0.0,0.0,0.0,0.0,0.0,0.0,0.0,0.0,0.0,0.0,0.0,0.0,0.0,0.0,0.0,0.0,0.0,0.0,0.0,4.13,4.1331,4.1119,4.059,4.0167,3.9503,3.8523,0.0,0.0,0.0,0.0,0.0,0.0,0.0,0.0,0.0,0.0,0.0,0.0,0.0,0.0,0.0,0.0,0.0,0.0,0.0,0.0,0.0,0.0,0.0,0.0,0.0,0.0,0.0,0.0,0.0,0.0,0.0,0.0,0.0,0.0,0.0,0.0,0.0,0.0,0.0,0.0,0.0,0.0,0.0,0.0,0.0,0.0,0.0,0.0,0.0,0.0,0.0,0.0,0.0,0.0,0.0,0.0,0.0,0.0,0.0,0.0,0.0,0.0,0.0,0.0,0.0,0.0,0.0,0.0,0.0,0.0,0.0,0.0,0.0,0.0,0.0,0.0,0.0,0.0,0.0,0.0,0.0,0.0,0.0,0.0,0.0,0.0,0.0,0.0,0.0,0.0,0.0,0.0,0.0,0.0,0.0,0.0,0.0,0.0,0.0,0.0,0.0,0.0,0.0,0.0,0.0,0.0,0.0,0.0,4.3239,4.3316,4.3273,4.3043,4.2159,4.1226,0.0,0.0,0.0,0.0,0.0,0.0,0.0,0.0,0.0,0.0,0.0,0.0,0.0,0.0,0.0,0.0,0.0,0.0,0.0,0.0,0.0,0.0,0.0,0.0,0.0,0.0,0.0,0.0,0.0,0.0,0.0,0.0,0.0,0.0,0.0,0.0,0.0,0.0,0.0,0.0,0.0,0.0,0.0,0.0,0.0,0.0,0.0,0.0,0.0,0.0,0.0,0.0,0.0,0.0,0.0,0.0,0.0,0.0,0.0,0.0,0.0,0.0,0.0,0.0,0.0,0.0,0.0,0.0,0.0,0.0,0.0,0.0,0.0,0.0,0.0,0.0,0.0,0.0,0.0,0.0,0.0,0.0,0.0,0.0,0.0,0.0,0.0,0.0,0.0,0.0,0.0,0.0,0.0,0.0,0.0,0.0,0.0,0.0,0.0,0.0,0.0,0.0,0.0,0.0,0.0,0.0,0.0,0.0,0.0,4.5013,4.6163,4.5624,4.3201,4.2795,4.2201,0.0,0.0,0.0,0.0,0.0,0.0,0.0,0.0,0.0,0.0,0.0,0.0,0.0,0.0,0.0,0.0,0.0,0.0,0.0,0.0,0.0,0.0,0.0,0.0,0.0,0.0,0.0,0.0,0.0,0.0,0.0,0.0,0.0,0.0,0.0,0.0,0.0,0.0,0.0,0.0,0.0,0.0,0.0,0.0,0.0,0.0,0.0,0.0,0.0,0.0,0.0,0.0,0.0,0.0,0.0,0.0,0.0,0.0,0.0,0.0,0.0,0.0,0.0,0.0,0.0,0.0,0.0,0.0,0.0,0.0,0.0,0.0,0.0,0.0,0.0,0.0,0.0,0.0,0.0,0.0,0.0,0.0,0.0,0.0,0.0,0.0,0.0,0.0,0.0,0.0,0.0,0.0,0.0,0.0,0.0,0.0,0.0,0.0,0.0,0.0,0.0,0.0,0.0,0.0,0.0,0.0,0.0,0.0,4.6294,4.6667,4.7586,4.7158,4.5278,4.447,4.3819,0.0,0.0,0.0,0.0,0.0,0.0,0.0,0.0,0.0,0.0,0.0,0.0,0.0,0.0,0.0,0.0,0.0,0.0,0.0,0.0,0.0,0.0,0.0,0.0,0.0,0.0,0.0,0.0,0.0,0.0,0.0,0.0,0.0,0.0,0.0,0.0,0.0,0.0,0.0,0.0,0.0,0.0,0.0,0.0,0.0,0.0,0.0,0.0,0.0,0.0,0.0,0.0,0.0,0.0,0.0,0.0,0.0,0.0,0.0,0.0,0.0,0.0,0.0,0.0,0.0,0.0,0.0,0.0,0.0,0.0,0.0,0.0,0.0,0.0,0.0,0.0,0.0,0.0,0.0,0.0,0.0,0.0,0.0,0.0,0.0,0.0,0.0,0.0,0.0,0.0,0.0,0.0,0.0,0.0,0.0,0.0,0.0,0.0,0.0,0.0,0.0,0.0,0.0,0.0,0.0,0.0,0.0,0.0,4.762,4.8355,4.8543,4.8582,4.8466,4.6737,4.5681,0.0,0.0,0.0,0.0,0.0,0.0,0.0,0.0,0.0,0.0,0.0,0.0,0.0,0.0,0.0,0.0,0.0,0.0,0.0,0.0,0.0,0.0,0.0,0.0,0.0,0.0,0.0,0.0,0.0,0.0,0.0,0.0,0.0,0.0,0.0,0.0,0.0,0.0,0.0,0.0,0.0,0.0,0.0,0.0,0.0,0.0,0.0,0.0,0.0,0.0,0.0,0.0,0.0,0.0,0.0,0.0,0.0,0.0,0.0,0.0,0.0,0.0,0.0,0.0,0.0,0.0,0.0,0.0,0.0,0.0,0.0,0.0,0.0,0.0,0.0,0.0,0.0,0.0,0.0,0.0,0.0,0.0,0.0,0.0,0.0,0.0,0.0,0.0,0.0,0.0,0.0,0.0,0.0,0.0,0.0,0.0,0.0,0.0,0.0,0.0,0.0,0.0,0.0,0.0,0.0,0.0,0.0,0.0,4.9976,5.0164,5.1433,5.1774,5.112,4.8765,4.6919,0.0,0.0,0.0,0.0,0.0,0.0,0.0,0.0,0.0,0.0,0.0,0.0,0.0,0.0,0.0,0.0,0.0,0.0,0.0,0.0,0.0,0.0,0.0,0.0,0.0,0.0,0.0,0.0,0.0,0.0,0.0,0.0,0.0,0.0,0.0,0.0,0.0,0.0,0.0,0.0,0.0,0.0,0.0,0.0,0.0,0.0,0.0,0.0,3.9945,0.0,0.0,0.0,0.0,0.0,0.0,0.0,0.0,0.0,0.0,0.0,0.0,0.0,0.0,0.0,0.0,0.0,0.0,0.0,0.0,0.0,0.0,0.0,0.0,0.0,0.0,0.0,0.0,0.0,0.0,0.0,0.0,0.0,0.0,0.0,0.0,0.0,0.0,0.0,0.0,0.0,0.0,0.0,0.0,0.0,0.0,0.0,0.0,0.0,0.0,0.0,0.0,0.0,0.0,0.0,0.0,0.0,0.0,0.0,5.1053,5.1861,5.2741,5.2967,5.2467,5.0813,4.8889,0.0,0.0,0.0,0.0,0.0,0.0,0.0,0.0,0.0,0.0,0.0,0.0,0.0,0.0,0.0,0.0,0.0,0.0,0.0,0.0,0.0,0.0,0.0,0.0,0.0,0.0,0.0,0.0,0.0,0.0,0.0,0.0,0.0,0.0,0.0,0.0,0.0,0.0,0.0,0.0,0.0,0.0,0.0,0.0,0.0,0.0,0.0,0.0,0.0,0.0,0.0,0.0,0.0,0.0,0.0,0.0,0.0,0.0,0.0,0.0,0.0,0.0,0.0,0.0,0.0,0.0,0.0,0.0,0.0,0.0,0.0,0.0,0.0,0.0,0.0,0.0,0.0,0.0,0.0,0.0,0.0,0.0,0.0,0.0,0.0,0.0,0.0,0.0,0.0,0.0,0.0,0.0,0.0,0.0,0.0,0.0,0.0,0.0,0.0,0.0,0.0,0.0,0.0,0.0,0.0,0.0,0.0,5.0938,5.1823,5.3313,5.3505,5.3549,5.339,5.2659,5.1082,4.8582,0.0,0.0,0.0,0.0,0.0,0.0,0.0,0.0,0.0,0.0,0.0,0.0,0.0,0.0,0.0,0.0,0.0,0.0,0.0,0.0,0.0,0.0,0.0,0.0,0.0,0.0,0.0,0.0,0.0,0.0,0.0,0.0,0.0,0.0,0.0,0.0,0.0,0.0,4.0244,4.0557,0.0,0.0,0.0,0.0,0.0,0.0,0.0,0.0,4.1393,0.0,0.0,0.0,0.0,0.0,0.0,0.0,0.0,0.0,0.0,0.0,0.0,0.0,0.0,0.0,0.0,0.0,0.0,0.0,0.0,0.0,0.0,0.0,0.0,0.0,0.0,0.0,0.0,0.0,0.0,0.0,0.0,0.0,0.0,0.0,0.0,0.0,0.0,0.0,0.0,0.0,0.0,0.0,0.0,0.0,0.0,0.0,0.0,0.0,0.0,0.0,0.0,0.0,0.0,0.0,0.0,5.0668,5.2087,5.328,5.428,5.4939,5.4977,5.4318,5.4126,5.2895,5.0399,0.0,0.0,0.0,0.0,0.0,0.0,0.0,0.0,0.0,0.0,0.0,0.0,0.0,0.0,0.0,0.0,0.0,0.0,0.0,0.0,0.0,0.0,0.0,0.0,0.0,0.0,0.0,0.0,0.0,0.0,0.0,0.0,0.0,0.0,0.0,0.0,0.0,0.0,0.0,4.2138,4.271,0.0,0.0,0.0,0.0,0.0,0.0,0.0,0.0,4.2662,0.0,0.0,0.0,0.0,0.0,0.0,0.0,0.0,0.0,0.0,0.0,0.0,0.0,0.0,0.0,0.0,0.0,0.0,0.0,0.0,0.0,0.0,0.0,0.0,0.0,0.0,0.0,0.0,0.0,0.0,0.0,0.0,0.0,0.0,0.0,0.0,0.0,0.0,0.0,0.0,0.0,0.0,0.0,0.0,0.0,0.0,0.0,0.0,0.0,0.0,0.0,0.0,0.0,0.0,0.0,5.201,5.3241,5.428,5.5088,5.5516,5.5516,5.5126,5.4708,5.3703,0.0,0.0,0.0,0.0,0.0,0.0,0.0,0.0,0.0,0.0,0.0,0.0,0.0,0.0,0.0,0.0,0.0,0.0,0.0,0.0,0.0,0.0,0.0,0.0,0.0,0.0,0.0,0.0,0.0,0.0,0.0,0.0,0.0,0.0,0.0,0.0,0.0,0.0,0.0,0.0,4.2804,4.3431,4.4282,0.0,0.0,0.0,0.0,0.0,0.0,4.3662,4.3085,0.0,0.0,0.0,0.0,0.0,0.0,0.0,0.0,0.0,0.0,0.0,0.0,0.0,0.0,0.0,0.0,0.0,0.0,0.0,0.0,0.0,0.0,0.0,0.0,0.0,0.0,0.0,0.0,0.0,0.0,0.0,0.0,0.0,0.0,0.0,0.0,0.0,0.0,0.0,0.0,0.0,0.0,0.0,0.0,0.0,0.0,0.0,0.0,0.0,0.0,0.0,0.0,0.0,0.0,0.0,5.3433,5.4164,5.4972,5.5901,5.5785,5.5785,5.5939,5.517,5.4318,0.0,0.0,0.0,0.0,0.0,0.0,0.0,0.0,0.0,0.0,0.0,0.0,0.0,0.0,0.0,0.0,0.0,0.0,0.0,0.0,0.0,0.0,0.0,0.0,0.0,0.0,0.0,0.0,0.0,0.0,0.0,0.0,0.0,0.0,0.0,0.0,0.0,0.0,0.0,0.0,0.0,4.4432,4.5898,4.6244,0.0,0.0,0.0,0.0,4.6129,4.4975,0.0,0.0,0.0,0.0,0.0,0.0,0.0,0.0,0.0,0.0,0.0,0.0,0.0,0.0,0.0,0.0,0.0,0.0,0.0,0.0,0.0,0.0,0.0,0.0,0.0,0.0,0.0,0.0,0.0,0.0,0.0,0.0,0.0,0.0,0.0,0.0,0.0,0.0,0.0,0.0,0.0,0.0,0.0,0.0,0.0,0.0,0.0,0.0,0.0,0.0,0.0,0.0,0.0,0.0,0.0,0.0,5.428,5.4477,5.5241,5.6709,5.6093,5.6055,5.683,5.6016,5.5208,0.0,0.0,0.0,0.0,0.0,0.0,0.0,0.0,0.0,0.0,0.0,0.0,0.0,0.0,0.0,0.0,0.0,0.0,0.0,0.0,0.0,0.0,0.0,0.0,0.0,0.0,0.0,0.0,0.0,0.0,0.0,0.0,0.0,0.0,0.0,0.0,0.0,0.0,0.0,0.0,0.0,4.6774,4.7697,4.8471,4.874,0.0,0.0,4.8706,4.7932,4.7625,0.0,0.0,0.0,0.0,0.0,0.0,0.0,0.0,0.0,0.0,0.0,0.0,0.0,0.0,0.0,0.0,0.0,0.0,0.0,0.0,0.0,0.0,0.0,0.0,0.0,0.0,0.0,0.0,0.0,0.0,0.0,0.0,0.0,0.0,0.0,0.0,0.0,0.0,0.0,0.0,0.0,0.0,0.0,0.0,0.0,0.0,0.0,0.0,0.0,0.0,0.0,0.0,0.0,0.0,0.0,5.3274,5.4472,5.5439,5.6285,5.6983,5.7093,5.7357,5.7709,5.6901,5.6055,0.0,0.0,0.0,0.0,0.0,0.0,0.0,0.0,0.0,0.0,0.0,0.0,0.0,0.0,0.0,0.0,0.0,0.0,0.0,0.0,0.0,0.0,0.0,0.0,0.0,0.0,0.0,0.0,0.0,0.0,0.0,0.0,0.0,0.0,0.0,0.0,0.0,0.0,0.0,0.0,0.0,0.0,4.9394,4.9899,0.0,0.0,0.0,5.0548,4.9707,0.0,0.0,0.0,0.0,0.0,0.0,0.0,0.0,0.0,0.0,0.0,0.0,0.0,0.0,0.0,0.0,0.0,0.0,0.0,0.0,0.0,0.0,0.0,0.0,0.0,0.0,0.0,0.0,0.0,0.0,0.0,0.0,0.0,0.0,0.0,0.0,0.0,0.0,0.0,0.0,0.0,0.0,0.0,0.0,0.0,0.0,0.0,0.0,0.0,0.0,0.0,0.0,0.0,0.0,0.0,0.0,0.0,5.5131,5.6362,5.733,5.7901,5.8165,5.8506,5.8896,5.7901,0.0,0.0,0.0,0.0,0.0,0.0,0.0,0.0,0.0,0.0,0.0,0.0,0.0,0.0,0.0,0.0,0.0,0.0,0.0,0.0,0.0,0.0,0.0,0.0,0.0,0.0,0.0,3.9469,0.0,0.0,0.0,0.0,0.0,0.0,0.0,0.0,0.0,0.0,0.0,0.0,0.0,0.0,4.9394,5.1092,5.1515,5.2015,0.0,0.0,5.2274,5.1438,5.0779,5.0125,0.0,0.0,0.0,0.0,0.0,0.0,0.0,0.0,0.0,0.0,0.0,0.0,0.0,0.0,0.0,0.0,0.0,0.0,0.0,0.0,0.0,0.0,0.0,0.0,0.0,0.0,0.0,0.0,0.0,0.0,0.0,0.0,0.0,0.0,0.0,0.0,0.0,0.0,0.0,0.0,0.0,0.0,0.0,0.0,0.0,0.0,0.0,0.0,0.0,0.0,0.0,0.0,0.0,0.0,5.5208,5.6786,5.6945,5.8171,6.0402,5.905,5.905,6.055,5.9088,5.7819,0.0,0.0,0.0,0.0,0.0,0.0,0.0,0.0,0.0,0.0,0.0,0.0,0.0,0.0,0.0,0.0,0.0,0.0,0.0,0.0,0.0,0.0,0.0,0.0,0.0,0.0,0.0,0.0,0.0,0.0,0.0,0.0,0.0,0.0,0.0,0.0,0.0,0.0,0.0,0.0,0.0,5.113,5.2818,5.3741,5.3972,0.0,0.0,5.401,5.3164,5.2967,5.2928,5.2851,0.0,0.0,0.0,0.0,0.0,0.0,0.0,0.0,0.0,0.0,0.0,0.0,0.0,0.0,0.0,0.0,0.0,0.0,0.0,0.0,0.0,0.0,0.0,0.0,0.0,0.0,0.0,0.0,0.0,0.0,0.0,0.0,0.0,0.0,0.0,0.0,0.0,0.0,0.0,0.0,0.0,0.0,0.0,0.0,0.0,0.0,0.0,0.0,0.0,0.0,0.0,0.0,0.0,5.5824,5.7016,5.8555,5.9825,6.0781,6.1166,6.1698,6.232,6.0704,5.9665,0.0,0.0,0.0,0.0,0.0,0.0,0.0,0.0,0.0,0.0,0.0,0.0,0.0,0.0,0.0,0.0,0.0,0.0,0.0,0.0,0.0,0.0,0.0,0.0,0.0,0.0,0.0,0.0,4.6278,4.6855,4.7398,0.0,0.0,0.0,0.0,0.0,0.0,0.0,0.0,0.0,0.0,5.2664,5.3818,5.428,0.0,0.0,5.5016,5.4934,5.4126,5.401,5.3818,5.3274,5.2928,0.0,0.0,0.0,0.0,0.0,0.0,0.0,0.0,0.0,0.0,0.0,0.0,0.0,0.0,0.0,0.0,0.0,0.0,0.0,0.0,0.0,0.0,0.0,0.0,0.0,0.0,0.0,0.0,0.0,0.0,0.0,0.0,0.0,0.0,0.0,0.0,0.0,0.0,0.0,0.0,0.0,0.0,0.0,0.0,0.0,0.0,0.0,0.0,0.0,0.0,0.0,0.0,5.7016,5.8132,5.9902,6.1325,6.232,6.3205,6.382,6.4006,6.2704,6.171,0.0,0.0,0.0,0.0,0.0,0.0,0.0,0.0,0.0,0.0,0.0,0.0,0.0,0.0,0.0,0.0,0.0,0.0,0.0,0.0,0.0,0.0,0.0,0.0,0.0,0.0,0.0,0.0,4.8394,4.9202,5.0043,0.0,0.0,0.0,0.0,0.0,0.0,0.0,0.0,0.0,0.0,5.3972,5.5093,5.5247,5.5555,5.6357,5.6472,5.628,5.5703,5.5626,5.5318,5.4472,0.0,0.0,0.0,0.0,0.0,0.0,0.0,0.0,0.0,0.0,0.0,0.0,0.0,0.0,0.0,0.0,0.0,0.0,0.0,0.0,0.0,0.0,0.0,0.0,0.0,0.0,0.0,0.0,0.0,0.0,5.0668,0.0,0.0,0.0,0.0,0.0,0.0,0.0,0.0,0.0,0.0,0.0,0.0,0.0,0.0,0.0,0.0,0.0,0.0,0.0,0.0,0.0,0.0,5.905,6.0671,6.0864,6.2435,6.5557,6.5013,6.5013,6.5788,6.4974,6.3749,6.2172,0.0,0.0,0.0,0.0,0.0,0.0,0.0,0.0,0.0,0.0,0.0,0.0,0.0,0.0,0.0,0.0,0.0,0.0,0.0,0.0,0.0,0.0,0.0,0.0,0.0,0.0,4.7081,4.9202,5.0976,0.0,0.0,0.0,0.0,0.0,0.0,0.0,0.0,0.0,0.0,5.4477,5.5093,5.6709,5.6945,5.7209,5.8088,5.8198,5.8198,5.8121,5.8159,5.7934,0.0,0.0,0.0,0.0,0.0,0.0,0.0,0.0,0.0,0.0,0.0,0.0,0.0,0.0,0.0,0.0,0.0,0.0,0.0,0.0,0.0,0.0,0.0,0.0,0.0,0.0,0.0,5.2087,5.2395,0.0,0.0,0.0,0.0,0.0,0.0,0.0,0.0,0.0,0.0,0.0,5.9088,5.9083,0.0,0.0,0.0,0.0,0.0,0.0,0.0,0.0,0.0,0.0,0.0,0.0,6.0517,6.1672,6.3326,6.4743,6.5904,6.6699,6.7276,6.7545,6.6705,6.575,6.4634,0.0,0.0,0.0,0.0,0.0,0.0,0.0,0.0,0.0,0.0,0.0,0.0,0.0,0.0,0.0,0.0,0.0,0.0,0.0,0.0,0.0,0.0,0.0,0.0,0.0,5.0466,0.0,0.0,0.0,0.0,0.0,0.0,0.0,0.0,0.0,0.0,0.0,5.5203,5.6055,5.6665,5.7242,5.778,5.7857,5.7973,0.0,0.0,0.0,0.0,0.0,0.0,0.0,0.0,0.0,0.0,0.0,0.0,0.0,0.0,5.467,5.2741,5.2582,5.2697,5.2433,0.0,0.0,0.0,0.0,0.0,0.0,0.0,0.0,0.0,0.0,0.0,0.0,0.0,0.0,5.4703,0.0,5.5549,0.0,0.0,0.0,0.0,0.0,0.0,0.0,0.0,5.9633,6.0204,6.1281,6.1275,6.1743,0.0,6.1666,6.055,0.0,0.0,0.0,0.0,0.0,0.0,0.0,0.0,6.2557,6.348,6.5327,6.6596,6.7244,6.8276,6.8859,6.8814,6.8013,6.7321,6.6782,6.4903,6.3832,0.0,0.0,0.0,0.0,0.0,0.0,0.0,0.0,0.0,0.0,0.0,0.0,0.0,0.0,0.0,0.0,0.0,0.0,0.0,0.0,0.0,0.0,0.0,5.3159,0.0,0.0,0.0,0.0,0.0,0.0,0.0,0.0,0.0,5.5895,5.628,5.6824,5.7363,5.8204,5.8813,5.9127,0.0,0.0,0.0,0.0,0.0,0.0,0.0,5.9858,5.9275,5.9396,5.9511,5.9204,5.9165,5.9165,5.9165,0.0,0.0,5.4972,5.428,5.4044,5.4087,5.4087,5.4049,5.4044,5.4087,5.4082,0.0,0.0,0.0,0.0,0.0,0.0,0.0,0.0,5.7099,5.7555,0.0,5.839,0.0,0.0,0.0,0.0,0.0,5.9665,0.0,0.0,6.221,6.3095,6.4589,6.4628,6.5128,6.5897,6.5051,6.4199,6.3237,6.016,0.0,0.0,0.0,0.0,0.0,0.0,6.5089,6.5942,6.6782,6.802,6.959,6.9706,6.9744,6.9706,6.8891,6.843,6.843,6.7552,6.7096,6.7058,6.4019,0.0,0.0,0.0,0.0,0.0,0.0,0.0,0.0,0.0,0.0,0.0,0.0,0.0,0.0,0.0,0.0,0.0,0.0,0.0,0.0,5.4126,0.0,0.0,0.0,0.0,0.0,0.0,0.0,0.0,0.0,0.0,5.855,5.8429,5.839,5.8429,0.0,0.0,0.0,0.0,6.2403,6.3121,6.3275,6.3237,6.3237,6.3237,6.2698,6.1127,0.0,0.0,6.1018,6.0858,6.0896,6.0902,6.0825,6.0056,5.7632,5.6555,5.5939,5.5939,5.5972,5.5901,5.5862,5.6049,5.5978,6.0319,0.0,0.0,0.0,0.0,5.8165,5.855,5.8825,5.944,5.9858,6.0127,6.0748,0.0,0.0,0.0,0.0,0.0,0.0,6.3397,6.3935,6.4519,6.5365,6.6397,6.6359,6.6859,6.7667,6.6782,6.6244,6.5936,6.4474,6.3205,6.2237,0.0,0.0,0.0,0.0,6.6821,6.7667,6.8513,6.9206,6.9706,7.0283,7.0552,7.0552,6.9776,6.9584,7.0167,6.8783,6.8013,6.8013,6.6513,0.0,0.0,0.0,0.0,0.0,0.0,0.0,0.0,0.0,0.0,0.0,0.0,0.0,0.0,0.0,0.0,0.0,0.0,0.0,5.6775,5.7044,5.7275,0.0,0.0,0.0,0.0,0.0,0.0,0.0,0.0,0.0,6.2627,6.1204,6.0319,0.0,0.0,6.2275,6.2545,6.282,6.3051,6.3275,6.3314,0.0,6.3314,6.3314,6.3121,6.266,6.2781,6.2858,6.2627,6.2583,6.2583,6.2583,6.2089,6.1479,6.0831,5.994,5.9358,5.9325,5.9325,5.9325,5.9325,5.9325,5.9325,6.3636,6.1243,6.0589,6.0275,6.0314,6.0814,6.1012,6.1044,6.155,6.1781,6.1858,6.2704,6.2781,6.2358,6.3211,0.0,0.0,0.0,6.5782,6.6122,6.6667,6.7321,6.809,6.8129,6.859,6.9321,6.8552,6.8129,6.8129,6.7282,6.6551,6.5853,0.0,0.0,6.759,6.7936,6.8398,6.893,6.9738,7.0167,7.0167,7.0667,7.0898,7.0898,7.0437,7.0398,7.086,6.9937,6.9398,6.9391,6.8282,6.6898,0.0,0.0,0.0,0.0,0.0,0.0,0.0,0.0,0.0,0.0,0.0,5.6472,5.6472,0.0,0.0,0.0,5.8825,5.8709,5.9242,5.9588,0.0,0.0,0.0,0.0,0.0,0.0,0.0,6.2204,6.3057,6.4095,6.5397,6.4249,6.3403,6.3595,6.4282,6.482,6.482,0.0,6.5314,6.5314,6.5314,6.5314,6.5314,6.5314,6.5314,6.5314,6.5006,6.4968,6.5276,6.5314,6.5314,6.5276,6.4936,6.4596,6.4589,6.4166,6.3012,6.1204,6.0781,6.0781,6.0781,6.0781,6.0781,6.6523,6.6183,6.4603,6.3797,6.3506,6.3583,6.3583,6.3622,6.3698,6.3698,6.3775,6.4545,6.4897,6.4936,6.5743,0.0,6.7212,6.7289,6.7744,6.8507,6.8584,6.9013,6.9783,6.9783,7.0167,7.0898,7.0129,6.9821,6.986,6.9084,6.9122,6.9937,6.8398,6.7936,6.8584,6.9391,6.9783,6.9821,7.0514,7.0898,7.0898,7.0975,7.1014,7.1014,7.1014,7.1014,7.1014,7.0937,7.0898,7.086,6.943,6.8584,6.8468,0.0,0.0,0.0,0.0,0.0,0.0,0.0,0.0,0.0,0.0,0.0,0.0,0.0,0.0,0.0,6.1248,0.0,6.121,6.1941,0.0,0.0,0.0,6.2672,6.3429,6.3545,6.3891,6.4705,0.0,0.0,6.7212,6.7289,6.7051,6.6404,6.6827,6.7212,6.7212,6.7782,6.8391,6.8199,6.8314,6.8353,6.8045,6.8122,6.8084,6.8045,6.7744,6.7398,6.8007,6.8199,6.8314,6.816,6.8353,6.8276,6.8353,6.8045,6.6942,6.245,6.1541,6.1402,6.1595,6.155,6.155,7.0805,7.0141,6.9718,6.791,6.5365,6.5936,6.6205,6.625,6.6891,6.7199,6.7199,6.7391,6.7507,6.7507,6.7699,6.7891,6.8122,6.8783,6.9206,6.9436,7.0014,7.0437,7.0591,7.0629,7.0706,7.086,7.0706,7.0937,7.1552,7.1398,7.1745,7.2507,7.2199,7.143,7.036,7.0514,7.0629,7.0629,7.0821,7.0898,7.0937,7.1559,7.1898,7.1898,7.1905,7.1905,7.186,7.1245,7.0898,7.0898,7.0514,7.0052,6.943,6.8391,0.0,0.0,0.0,0.0,0.0,0.0,0.0,0.0,0.0,6.1479,6.1479,0.0,6.3243,0.0,6.525,6.5365,6.4743,6.4865,0.0,0.0,6.498,6.5057,6.5243,6.582,6.6282,6.6481,6.7282,6.8129,6.8975,6.909,6.9244,6.9629,6.8744,6.8084,6.809,6.8237,6.8391,6.843,6.8468,6.8391,6.8468,6.8391,6.843,6.8391,6.8237,6.816,6.8353,6.8391,6.8391,6.8391,6.8391,6.8391,6.843,6.8391,6.816,6.7007,6.6206,6.5596,6.5596,6.5096,6.4673,7.3136,7.2601,7.2601,7.1137,6.8832,6.8529,6.8132,6.7705,6.8199,6.8391,6.843,6.8814,6.9161,6.9507,6.9513,6.9507,6.9552,7.0014,7.0244,7.0283,7.1091,7.1482,7.1475,7.1898,7.2052,7.2052,7.2052,7.2322,7.2745,7.2783,7.3014,7.3469,7.3507,7.3007,7.2084,7.2052,7.2052,7.2052,7.1668,7.1482,7.1475,7.1552,7.179,7.2175,7.2213,7.2213,7.2213,7.2091,7.186,7.1514,7.186,7.1706,7.086,7.036,6.9552,0.0,0.0,0.0,0.0,0.0,0.0,0.0,0.0,0.0,0.0,0.0,6.5968,6.6936,6.7398,6.7475,6.7051,6.7013,6.7013,6.7013,6.7013,6.7013,6.7013,6.7744,6.8244,6.8282,6.9013,6.9706,7.0167,7.0206,7.0398,7.0821,7.0129,6.9513,6.9507,6.9507,6.9507,6.9513,6.9513,6.9513,6.9507,6.9507,6.9513,6.9513,6.9513,6.9507,6.9513,6.9507,6.9513,6.9507,6.9513,6.9507,6.9507,6.9513,6.9586,6.953,6.8965,6.8286,6.7861,6.7395,6.7013,7.4238,7.4095,7.4092,7.3468,7.2415,7.0956,6.9728,6.8699,6.8699,6.8699,6.8776,6.9552,7.0244,7.0898,7.0898,7.0898,7.0898,7.1014,7.1091,7.1091,7.1982,7.2367,7.2399,7.3168,7.3507,7.3469,7.3392,7.3392,7.3507,7.3507,7.3546,7.3661,7.3738,7.3815,7.3815,7.3699,7.3546,7.3315,7.2706,7.2322,7.2213,7.1668,7.1745,7.2482,7.2521,7.2482,7.2406,7.3091,7.3091,7.229,7.3014,7.3161,7.2406,7.2252,7.1552,0.0,6.9898,0.0,0.0,0.0,0.0,0.0,0.0,0.0,0.0,6.8052,6.8584,6.8545,6.866,6.8737,6.8737,6.8737,6.8737,6.8737,6.8737,6.8737,6.8737,6.9391,6.986,6.986,7.0475,7.0898,7.086,7.0898,7.0898,7.0898,7.0821,7.0744,7.086,7.0783,7.0744,7.0898,7.0898,7.0706,7.0744,7.0821,7.0821,7.086,7.0783,7.0898,7.0821,7.0821,7.086,7.086,7.0783,7.0821,7.0898,7.0862,7.0915,7.09,7.0402,6.9784,6.9009,6.8541,6.8467,7.4527,7.4483,7.4483,7.3829,7.2726,7.2414,7.1591,7.0437,7.0437,7.0437,7.0437,7.0591,7.0744,7.0898,7.0898,7.0898,7.0937,7.1629,7.1944,7.1982,7.286,7.3245,7.3283,7.343,7.3507,7.343,7.2783,7.2822,7.3507,7.3507,7.3815,7.4469,7.5168,7.5515,7.5515,0.0,0.0,0.0,7.2976,7.2937,7.2245,7.3399,7.4046,7.4207,7.4245,0.0,7.3322,7.343,7.3091,7.229,7.3053,0.0,0.0,0.0,0.0,0.0,0.0,0.0,0.0,0.0,0.0,0.0,6.9744,6.9475,6.8321,6.893,6.9468,6.9475,7.0052,7.0437,7.0437,7.0437,7.0437,7.0398,7.0437,7.0437,7.0437,7.0591,7.0667,7.0667,7.0821,7.0898,7.0975,7.0898,7.0937,7.1014,7.0898,7.0898,7.0937,7.0937,7.0898,7.0898,7.0898,7.0898,7.0898,7.0898,7.0898,7.0898,7.0898,7.0898,7.0898,7.0898,7.0898,7.0898,7.0898,7.0898,7.0898,7.1041,7.1185,7.1366,7.128,7.0876,6.9881,6.9231,6.8824,7.457,0.0,7.457,7.3906,0.0,7.2776,7.21,7.0898,7.0898,7.0898,7.0898,7.0898,7.0898,7.0898,7.0898,7.1129,7.1552,7.2021,7.2437,7.286,7.3699,7.4084,7.4123,7.4507,7.4738,7.4707,7.3822,7.3668,7.4046,7.3699,7.3892,7.47,7.5168,7.5553,7.5976,7.5553,7.4514,7.286,7.286,7.2629,7.2252,7.2591,7.3014,7.3437,7.3476,0.0,0.0,0.0,0.0,0.0,0.0,0.0,0.0,0.0,0.0,7.2213,7.179,7.1552,7.1591,7.1584,7.1591,7.1584,7.1937,7.1815,7.0968,7.1315,7.1584,7.1591,7.1968,7.2168,7.2168,7.2199,7.2199,7.2168,7.2206,7.2161,7.2161,7.2161,7.2161,7.2168,7.2161,7.2199,7.2199,7.2199,7.2161,7.2199,7.2206,7.2168,7.2091,7.1437,7.0898,7.0898,7.0898,7.0898,7.0898,7.0898,7.0898,7.0898,7.0898,7.0898,7.0898,7.0898,7.0898,7.0898,7.0898,7.0898,7.0925,7.1056,7.1223,7.1361,7.1495,7.146,7.0875,7.0441,7.0168,7.414,7.414,7.414,7.3554,7.2581,7.2581,7.194,7.0898,0.0,0.0,0.0,7.0898,7.0975,7.1129,7.1129,7.1591,7.2437,7.2591,7.3014,7.3738,7.4553,7.4938,7.4969,7.5507,7.5784,7.5707,7.4892,7.4507,7.4469,7.393,7.4046,7.4661,7.4861,7.5207,7.5745,7.5784,7.5007,7.3546,7.3091,7.279,7.2629,7.2091,7.2168,7.2867,7.3021,7.3021,7.2899,7.3822,7.3976,7.3175,7.3899,7.4014,7.3175,7.2944,7.2783,7.2668,7.2521,7.2745,7.343,7.3623,7.3853,7.4168,7.4199,7.3969,7.3546,7.3507,7.3507,7.3507,7.3507,7.3469,7.3507,7.3507,7.3507,7.3507,7.3507,7.3469,7.3469,7.3507,7.3392,7.3507,7.3392,7.3469,7.343,7.3392,7.3507,7.3469,7.3353,7.3507,7.3315,7.2322,7.1507,7.1552,7.1591,7.1437,7.1398,7.1475,7.1283,7.1245,7.1168,7.1091,7.0937,7.0898,7.0898,7.0898,7.0898,7.0898,7.0925,7.1056,7.1221,7.1242,7.1482,7.1735,7.1743,7.1651,7.1549,7.2383,7.2344,7.2344,7.2107,7.1679,7.1679,7.1392,7.0905,7.0898,7.0898,7.0898,7.0898,7.1321,7.2021,7.2021,7.2514,7.3353,7.4007,7.4437,7.4584,7.5399,7.5822,7.5784,7.5168,7.4892,7.4822,7.4046,7.3661,7.3738,7.4238,7.4584,7.4776,7.5438,7.5515,7.493,7.4853,7.443,7.3546,7.4822,7.5091,7.4361,7.4976,7.5361,7.5476,7.6137,7.6214,7.5515,7.6899,7.7407,7.6638,7.7369,7.7445,7.6599,7.5784,7.513,7.4392,7.3699,7.3392,7.3507,7.4161,7.5168,7.6592,7.6746,7.5861,7.3699,7.3507,7.3507,7.3507,7.3661,7.3507,7.3507,7.3623,7.3699,7.3584,7.3546,7.3507,7.3584,7.3584,7.3623,7.3623,7.3507,7.3546,7.3661,7.3623,7.3661,7.3546,7.3776,7.3584,7.3623,7.3315,7.3161,7.3122,7.3122,7.3122,7.293,7.3084,7.2745,7.2129,7.1982,7.1706,7.1206,7.0975,7.0937,7.0937,7.0937,7.0898,7.0905,7.1056,7.1223,7.1403,7.1547,7.1744,7.1864,7.1904,7.1914,7.1992,7.1992,7.1904,7.1714,7.1467,7.1271,7.1068,7.0944,7.1398,7.1591,7.1591,7.1598,7.2091,7.286,7.2899,7.3353,7.4161,7.4546,7.4969,7.5399,7.5822,7.5745,7.5322,7.5361,7.5161,7.47,7.4315,7.4161,7.4161,7.4084,7.4276,7.4738,7.5592,7.5784,7.5438,7.5399,7.5207,7.4861,7.47,7.4469,7.4046,7.4437,7.463,7.4668,7.5053,7.5284,7.5315,7.6015,7.6476,7.6599,7.6938,7.6984,7.6592,7.6207,7.5822,7.5438,7.5053,7.4861,7.4861,7.563,7.6438,7.7253,7.7715,7.7484,7.6322,7.6207,7.6207,7.6207,7.6207,7.6207,7.6207,7.6207,7.6053,7.5592,7.5553,7.5361,7.4938,7.4853,7.4861,7.4853,7.4853,7.4853,7.4861,7.4861,7.4861,7.4861,7.4853,7.4815,7.4822,7.4815,7.4507,7.3738,7.3469,7.3469,7.3507,7.3507,7.3315,7.2937,7.2482,7.2283,7.2129,7.1668,7.1168,7.1475,7.1245,7.0937,7.0898,7.1056,7.1208,7.1335,7.1569,7.1737,7.1812,7.1909,7.1992,7.191,7.1908,7.1737,7.158,7.1424,7.127,7.1206,7.1283,7.2129,7.2591,7.2713,7.2591,7.2976,7.3738,7.3776,7.4199,7.4899,7.4776,7.5053,7.563,7.5515,7.5168,7.4776,7.5238,7.5168,7.4738,7.47,7.47,7.4623,7.4238,7.4361,7.5007,7.5668,7.5976,7.5976,7.5976,7.5976,7.5938,7.5091,7.4437,7.4084,7.4046,7.4084,7.4084,7.4276,7.4623,7.5284,7.5623,7.6053,7.6553,7.6746,7.6784,7.6592,7.6553,7.6476,7.6322,7.6284,7.6284,7.6322,7.6907,7.7484,7.7861,7.8446,7.8869,7.9061,7.91,7.8869,7.8561,7.833,7.8369,7.833,7.8407,7.8253,7.7638,7.7561,7.7253,7.6669,7.6553,7.6553,7.6553,7.6553,7.6553,7.6553,7.6553,7.6476,7.6284,7.613,7.5976,7.5976,7.5976,7.5399,7.4553,7.4046,7.4161,7.4046,7.413,7.4046,7.3853,7.3283,7.3091,7.3122,7.2129,7.1514,7.1898,7.1437,7.0975,7.0919,7.1016,7.1164,7.1241,7.1388,7.1656,7.2042,7.2448,7.2383,7.1704,7.1689,7.1614,7.1397,7.1348,7.1866,7.2091,7.2213,7.3014,7.3776,7.4276,7.3699,7.3853,7.4507,7.4584,7.5053,7.5707,7.5053,7.4738,7.4738,7.4046,7.4084,7.4623,7.4123,7.4084,7.4623,7.4738,7.4776,7.4815,7.5399,7.5745,7.5899,7.5976,7.6015,7.6015,7.6053,7.6015,7.6053,7.7369,7.7284,7.5861,7.5784,7.5745,7.5784,7.6553,7.6984,7.7176,7.8515,7.8977,7.8407,7.9054,7.9092,7.8446,7.8292,7.7946,7.7292,7.7176,7.7176,7.7176,7.7253,7.7907,7.9361,7.9546,7.9939,8.0669,8.0785,8.0169,7.8984,7.8561,7.8638,7.8484,7.86,7.86,7.8446,7.8407,7.833,7.8176,7.8253,7.8253,7.8253,7.8061,7.8253,7.8061,7.8061,7.7869,7.7253,7.6669,7.6284,7.6284,7.6245,7.6245,7.5861,7.5784,7.5707,7.5668,7.5745,7.5284,7.4745,7.4507,7.4199,7.3668,7.2937,7.2175,7.2476,7.1713,7.1206,7.1091,7.0952,7.1107,7.1308,7.1417,7.1559,7.2617,7.3419,7.3476,7.1655,7.1611,7.1929,7.2267,7.2565,7.2839,7.2976,7.3053,7.3853,7.4392,7.47,7.4892,7.5161,7.5476,7.5469,7.5399,7.5207,7.4861,7.47,7.4661,7.4353,7.4392,7.4661,7.4938,7.4938,7.4784,7.5207,7.5476,7.5515,7.5861,7.5976,7.5976,7.5976,7.6476,7.7407,7.7476,7.7938,7.9015,7.9669,7.9669,7.9131,7.9015,7.9015,7.9054,7.9361,7.9785,8.0246,8.0939,8.1323,8.1485,8.187,8.1862,8.1524,8.1023,8.0369,7.9554,7.8092,7.7061,7.6592,7.6976,7.7599,7.8284,7.9246,7.9977,8.0323,8.0785,8.0746,8.0208,8.0015,8.0015,8.0015,8.0023,7.9823,7.94,7.9285,7.9092,7.8523,7.8523,7.8484,7.8484,7.8484,7.8523,7.8484,7.8484,7.8369,7.8023,7.7638,7.7407,7.7438,7.7484,7.7484,7.7476,7.7476,7.6976,7.6322,7.5976,7.5822,7.5515,7.5007,7.4546,7.4861,7.3776,7.3091,7.3591,7.2937,7.2476,7.2514,7.2399,7.2383,7.2069,7.1435,7.1532,7.2594,7.3282,7.3368,7.2189,7.2193,7.2605,7.3047,7.3514,7.3738,7.3815,7.393,7.4707,7.5053,7.513,7.5707,7.5976,7.5976,7.5976,7.5515,7.4776,7.47,7.4584,7.4392,7.4353,7.4469,7.4738,7.5315,7.5438,7.52,7.5707,7.5976,7.6053,7.6553,7.6669,7.6753,7.713,7.8015,7.9061,7.9208,7.9823,8.0977,8.1516,8.1785,8.1823,8.2247,8.2054,8.1208,8.1093,8.14,8.1939,8.217,8.2477,8.287,8.3101,8.3247,8.3216,8.2631,8.2016,8.1362,7.9515,7.8054,7.7438,7.7977,7.8446,7.8715,7.9862,8.0592,8.09,8.1439,8.1747,8.1785,8.1785,8.167,8.1131,8.1093,8.0823,8.0246,8.0162,7.9862,7.9361,7.9215,7.9292,7.9215,7.9369,7.9208,7.9169,7.9092,7.8907,7.8861,7.8638,7.8484,7.8484,7.8446,7.8446,7.8484,7.8484,7.7984,7.6899,7.6823,7.6669,7.6592,7.6207,7.6169,7.6515,7.5322,7.4623,7.5322,7.463,7.4046,7.3699,7.3668,7.363,7.2852,7.2396,7.2414,7.3424,7.3697,7.4145,7.3599,7.359,7.3491,7.3497,7.3584,7.4315,7.4661,7.47,7.5553,7.5899,7.5861,7.5938,7.5976,7.5976,7.5938,7.5515,7.4776,7.4776,7.4353,7.3738,7.3661,7.4007,7.4661,7.4738,7.5207,7.5784,7.5899,7.6053,7.6207,7.7553,7.8407,7.8484,7.9823,8.0785,8.0977,8.0977,8.1054,8.1554,8.2793,8.3486,8.367,8.4978,8.4209,8.1708,8.1208,8.14,8.1439,8.1977,8.2093,8.1323,8.2208,8.2516,8.2477,8.2439,8.2362,8.2093,8.1362,8.0823,8.0708,8.0669,8.1016,8.1747,8.1823,8.2439,8.287,8.3139,8.3255,8.3409,8.3255,8.2747,8.1554,8.14,8.1323,8.117,8.1054,8.1016,8.0939,8.0746,8.0939,8.0862,8.0746,8.0669,8.0823,8.0239,7.9823,7.9592,7.9054,7.8638,7.8792,7.8677,7.8715,7.8715,7.8677,7.8484,7.8407,7.7984,7.8099,7.7984,7.7715,7.8061,7.7984,7.7753,7.7369,7.6938,7.6322,7.5668,7.4976,7.4584,7.443,7.4137,7.4192,7.4403,7.4474,7.5638,7.5917,7.3959,7.4346,7.4295,7.4584,7.513,7.5438,7.5515,7.5553,7.5861,7.5976,7.5899,7.5438,7.5476,7.5976,7.5399,7.5014,7.4776,7.5284,7.5084,7.4315,7.4276,7.4738,7.5476,7.5515,7.5668,7.5938,7.6015,7.6553,7.7592,7.8253,7.91,8.01,8.0746,8.1593,8.2477,8.2678,8.3208,8.4247,8.4939,8.5209,8.517,8.5786,8.544,8.4401,8.4324,8.4324,8.4324,8.4593,8.4593,8.4286,8.4593,8.4747,8.467,8.4247,8.3439,8.2439,8.2016,8.1631,8.1208,8.1093,8.1208,8.1516,8.2016,8.2516,8.2785,8.3255,8.3601,8.3601,8.3601,8.3216,8.2947,8.2716,8.2716,8.2639,8.2208,8.1862,8.1747,8.1439,8.1093,8.1093,8.1093,8.1093,8.1093,8.0823,8.0631,8.0592,8.0323,8.0131,8.0131,8.0131,8.0054,8.0131,8.0169,8.0169,8.0169,7.9061,7.8484,7.8484,7.8407,7.8407,7.8369,7.8484,7.8138,7.8169,7.7746,7.7515,7.6861,7.6284,7.6015,7.5915,7.598,7.565,7.5523,7.6309,7.6371,7.4694,7.5067,7.5123,7.543,7.5976,7.5976,7.5976,7.5976,7.5976,7.5976,7.5899,7.5668,7.5745,7.6015,7.5938,7.5592,7.5245,7.5707,7.5515,7.4776,7.4969,7.5438,7.5899,7.5976,7.5976,7.613,7.6592,7.7715,7.9254,7.9869,8.0754,8.1862,8.2401,8.3247,8.4247,8.4409,8.5055,8.594,8.6094,8.6094,8.6094,8.6094,8.6094,8.6094,8.6094,8.6094,8.6094,8.6094,8.6094,8.6094,8.6094,8.6094,8.6017,8.5585,8.4777,8.3708,8.3555,8.3324,8.2824,8.2708,8.2747,8.2747,8.3208,8.3516,8.3555,8.4101,8.4371,8.4401,8.4401,8.4401,8.4409,8.4401,8.4178,8.3717,8.3062,8.2755,8.2716,8.2247,8.2016,8.1939,8.1708,8.1554,8.1439,8.1246,8.1093,8.1093,8.1093,8.1093,8.1093,8.1093,8.1093,8.1093,8.0977,8.0939,8.0823,8.0054,7.9631,7.9592,7.9446,7.9254,7.9138,7.9177,7.9215,7.9254,7.9254,7.9177,7.8792,7.8176,7.7889,7.7768,7.7409,7.7013,7.6879,7.6683,7.6861,7.5945,7.5938,7.5976,7.5938,7.5976,7.5976,7.5976,7.5976,7.5976,7.6053,7.6207,7.6707,7.6476,7.6438,7.7176,7.7253,7.6092,7.5976,7.5592,7.493,7.5553,7.5899,7.5976,7.5976,7.613,7.6322,7.7676,7.9369,8.1093,8.2408,8.3255,8.3832,8.4978,8.5555,8.6017,8.5863,8.5978,8.6094,8.6094,8.6094,8.6094,8.6094,8.6094,8.6094,8.6094,8.6094,8.6094,8.6094,8.6094,8.6094,8.6094,8.6094,8.6094,8.6017,8.6017,8.5824,8.5931,8.5978,8.5863,8.5747,8.5555,8.5555,8.5893,8.567,8.5593,8.5786,8.5863,8.5786,8.5863,8.594,8.5901,8.5863,8.5324,8.3986,8.3717,8.364,8.3601,8.3563,8.3563,8.3332,8.2747,8.2362,8.2131,8.1823,8.1516,8.1439,8.1323,8.1246,8.1246,8.1208,8.1093,8.1093,8.1093,8.1093,8.1093,8.1054,8.1016,8.0939,8.0746,8.0592,8.04,8.0362,8.0285,8.0323,8.0285,8.0169,7.9862,7.9315,7.9103,7.8928,7.8604,7.8435,7.833,7.8173,7.7909,7.5976,7.5976,7.5976,7.5976,7.5976,7.5976,7.5976,7.5976,7.5976,7.6322,7.6676,7.5899,7.5976,7.6553,7.6284,7.5976,7.5976,7.5976,7.5822,7.5668,7.5861,7.5976,7.6015,7.6015,7.6599,7.7638,7.8215,8.0023,8.2485,8.337,8.4101,8.5247,8.5824,8.6094,8.6094,8.6094,8.6094,8.6094,8.6094,8.6094,8.6094,8.6094,8.6094,8.6094,8.6094,8.6094,8.6094,8.6094,8.6094,8.6094,8.6094,8.6094,8.6094,8.6094,8.6094,8.6094,8.6094,8.6094,8.6094,8.6094,8.6094,8.6094,8.6094,8.6094,8.6094,8.6094,8.6094,8.6094,8.6094,8.6094,8.6094,8.6094,8.5824,8.5363,8.4824,8.4516,8.4439,8.4024,8.364,8.3601,8.337,8.3216,8.3178,8.2832,8.2678,8.2631,8.2247,8.1939,8.1862,8.1554,8.1093,8.1093,8.1093,8.1323,8.1477,8.1554,8.1516,8.1323,8.1208,8.1093,8.1093,8.1093,8.1093,8.1093,8.1093,8.0977,8.0631,8.043,8.0158,8.0106,7.9882,7.983,7.9834,7.9584,7.9232,7.5976,7.5976,7.5976,7.5976,7.5976,7.5976,7.5976,7.6053,7.6361,7.6784,7.7022,7.6515,7.6515,7.6984,7.613,7.5784,7.6015,7.5976,7.5976,7.5976,7.5976,7.5976,7.613,7.6707,7.7823,7.9369,8.0139,8.1823,8.4371,8.4555,8.5055,8.594,8.6094,8.6094,8.6094,8.6094,8.6094,8.6094,8.6094,8.6094,8.6094,8.6094,8.6247,8.6517,8.6594,8.6748,8.7017,8.7055,8.6748,8.6247,8.6094,8.6094,8.6094,8.6094,8.6094,8.6094,8.6094,8.6094,8.6094,8.6094,8.6094,8.6094,8.6094,8.6094,8.6094,8.6094,8.6094,8.6094,8.6094,8.6094,8.6094,8.6094,8.6094,8.6094,8.5632,8.5363,8.5247,8.4863,8.4593,8.4555,8.4324,8.4132,8.4055,8.3717,8.364,8.3486,8.3139,8.2785,8.2708,8.2401,8.2093,8.1977,8.2208,8.2285,8.2131,8.2054,8.1939,8.167,8.1362,8.1208,8.1093,8.1093,8.1093,8.1093,8.1093,8.1093,8.0823,8.0908,8.0783,8.0924,8.0915,8.0852,8.0702,8.0633,8.027,7.5976,7.5976,7.5976,7.5976,7.6015,7.6092,7.6169,7.6245,7.7015,7.7445,7.7669,7.783,7.7869,7.7445,7.7022,7.6515,7.6092,7.5976,7.5976,7.5976,7.6015,7.6092,7.6515,7.7638,7.9254,8.1208,8.2601,8.4209,8.5747,8.5824,8.6094,8.6094,8.6094,8.6094,8.6094,8.6094,8.6094,8.6094,8.6094,8.6132,8.6247,8.6247,8.6632,8.7401,8.7478,8.7786,8.8333,8.841,8.7825,8.6517,8.644,8.6478,8.6247,8.617,8.6247,8.6132,8.6094,8.6094,8.6094,8.6094,8.6094,8.6094,8.6094,8.6094,8.6094,8.6094,8.6094,8.6094,8.6094,8.6094,8.6094,8.6094,8.6094,8.6094,8.5978,8.5978,8.6055,8.5978,8.5786,8.5747,8.5401,8.4978,8.4939,8.4362,8.4055,8.3909,8.3832,8.3678,8.3601,8.3439,8.3524,8.337,8.3101,8.3024,8.2832,8.2793,8.2716,8.2485,8.2054,8.167,8.1285,8.117,8.1093,8.1093,8.1208,8.117,8.1093,8.11,8.1181,8.1214,8.1309,8.1499,8.1458,8.1248,8.1091,7.5976,7.5976,7.5976,7.5976,7.6092,7.6669,7.6945,7.7053,7.783,7.8515,7.8823,7.8015,7.7869,7.8023,7.6861,7.6207,7.6053,7.5976,7.5976,7.5976,7.5976,7.6784,7.7638,7.833,8.01,8.2601,8.3486,8.4486,8.5978,8.6094,8.6094,8.6094,8.6094,8.6094,8.6094,8.6094,8.6094,8.6094,8.6094,8.644,8.694,8.7055,8.7478,8.8256,8.8363,8.8487,8.8718,8.8679,8.8564,8.8132,8.8017,8.7709,8.7132,8.7055,8.6824,8.6286,8.6132,8.6094,8.6094,8.6094,8.6094,8.6094,8.6094,8.6094,8.6094,8.6094,8.6094,8.6094,8.6094,8.6094,8.6094,8.6094,8.6094,8.6094,8.6094,8.6094,8.6094,8.6094,8.6094,8.6055,8.5854,8.5747,8.5632,8.5517,8.5286,8.5209,8.4901,8.4555,8.4478,8.4132,8.4024,8.3717,8.3486,8.3524,8.3524,8.3524,8.3447,8.3332,8.2947,8.2447,8.1862,8.1323,8.1208,8.1093,8.1516,8.1631,8.1323,8.1131,8.1256,8.1432,8.1377,8.1414,8.1658,8.1597,8.1604,7.5976,7.5976,7.5976,7.6207,7.6553,7.7092,7.7484,7.7946,7.8669,7.9054,7.9015,7.8292,7.7869,7.783,7.6592,7.6015,7.5976,7.5976,7.5976,7.613,7.6746,7.7599,7.8638,7.9677,8.1716,8.3409,8.4324,8.517,8.594,8.6094,8.6094,8.6094,8.6094,8.6094,8.6094,8.6094,8.6094,8.617,8.644,8.694,8.7363,8.7786,8.8402,8.9017,8.921,8.9286,8.9671,8.9748,8.9479,8.891,8.8679,8.8449,8.8017,8.794,8.7555,8.6748,8.6632,8.6517,8.617,8.6094,8.6094,8.6094,8.6094,8.6094,8.6094,8.6094,8.6094,8.6094,8.6094,8.6094,8.6094,8.6094,8.6094,8.6094,8.6094,8.6094,8.6094,8.6094,8.6094,8.6094,8.6094,8.6094,8.6094,8.6094,8.6094,8.5978,8.567,8.5478,8.5363,8.4863,8.4555,8.4401,8.4439,8.4593,8.467,8.467,8.4362,8.4209,8.3793,8.3293,8.2824,8.2093,8.2016,8.2054,8.2093,8.2016,8.1785,8.1562,8.1462,8.153,8.1374,8.1341,8.1534,8.1721,8.1778,7.5976,7.5976,7.5976,7.6515,7.7207,7.7407,7.7946,7.8715,7.9554,7.9477,7.8869,7.8561,7.8023,7.7253,7.6438,7.5976,7.5976,7.5976,7.6245,7.6938,7.8176,7.9446,7.9831,8.1908,8.3332,8.4217,8.5478,8.5901,8.6094,8.6094,8.6094,8.6094,8.6094,8.6094,8.617,8.6209,8.6239,8.6478,8.7171,8.7671,8.8017,8.8517,8.921,8.9893,9.0056,9.0325,9.0825,9.0979,9.0479,8.9064,8.8949,8.8979,8.8902,8.8833,8.8372,8.7748,8.7478,8.7171,8.644,8.6363,8.6209,8.6132,8.6094,8.6094,8.6094,8.6094,8.6094,8.6094,8.6094,8.6094,8.6094,8.6094,8.6094,8.6094,8.6094,8.6094,8.6094,8.6094,8.6094,8.6094,8.6094,8.6094,8.6094,8.6094,8.6094,8.6094,8.594,8.5863,8.5824,8.5593,8.5517,8.5593,8.5709,8.5901,8.5901,8.5901,8.5478,8.5132,8.4632,8.4217,8.4055,8.3593,8.3439,8.3332,8.2939,8.2708,8.2554,8.2301,8.2086,8.1716,8.1675,8.1487,8.1394,8.1553,8.167,7.5976,7.5976,7.5976,7.6515,7.733,7.7984,7.8707,7.9592,8.0439,8.0285,7.9515,7.883,7.8099,7.7292,7.6553,7.5976,7.6169,7.6245,7.663,7.833,8.1216,8.237,8.2524,8.3524,8.4286,8.5247,8.5863,8.6094,8.6094,8.6094,8.6094,8.6094,8.6094,8.6094,8.6201,8.6748,8.7132,8.7286,8.7979,8.8709,8.9162,8.9479,9.0047,9.074,9.0855,9.097,9.1124,9.1201,9.1018,9.0748,9.0556,9.021,8.9787,8.9633,8.9248,8.8641,8.8402,8.8017,8.7325,8.7055,8.6824,8.6247,8.6132,8.6094,8.6094,8.6094,8.6094,8.6094,8.6094,8.6094,8.6094,8.6094,8.617,8.6209,8.6209,8.617,8.6132,8.6094,8.6094,8.6094,8.6094,8.6094,8.6094,8.6094,8.6094,8.6094,8.6094,8.6094,8.6094,8.6094,8.6094,8.6094,8.6094,8.6094,8.6094,8.6094,8.5893,8.5662,8.5324,8.5055,8.4901,8.4632,8.4286,8.3939,8.3524,8.3362,8.3401,8.3247,8.3109,8.2524,8.1977,8.1816,8.1726,8.1718,8.1614,7.5976,7.5976,7.5976,7.6707,7.783,7.833,7.9208,8.0323,8.0862,8.0631,7.9823,7.9285,7.8631,7.7869,7.7407,7.7207,7.7284,7.7669,7.8707,8.0439,8.2639,8.3947,8.4747,8.4786,8.5324,8.6055,8.6094,8.6094,8.6094,8.6094,8.6094,8.6094,8.6094,8.6401,8.6671,8.7209,8.7594,8.8094,8.8825,8.9517,8.9855,9.0316,9.0624,9.1086,9.1201,9.1201,9.1201,9.1201,9.1201,9.1201,9.1171,9.1018,9.0624,9.047,9.0056,8.944,8.9248,8.8863,8.8248,8.7632,8.7209,8.6709,8.6363,8.6132,8.6094,8.6094,8.6094,8.6094,8.6094,8.6094,8.6132,8.6594,8.6671,8.6709,8.6709,8.6709,8.6632,8.6363,8.6094,8.6094,8.6094,8.6094,8.6094,8.6094,8.6094,8.6094,8.6094,8.6094,8.6094,8.6094,8.6094,8.6094,8.6094,8.6094,8.6094,8.6094,8.6094,8.5978,8.5824,8.5709,8.567,8.5286,8.4901,8.467,8.4516,8.4439,8.4439,8.4286,8.3939,8.3285,8.2755,8.2401,8.2109,8.2082,8.1862,7.5976,7.5976,7.5976,7.6976,7.8369,7.8523,7.9485,8.0939,8.1093,8.0631,7.9892,7.9815,7.9169,7.86,7.8407,7.8484,7.89,7.9785,8.09,8.2293,8.3593,8.4786,8.567,8.5863,8.5901,8.6094,8.6094,8.6094,8.6094,8.6094,8.6094,8.6132,8.6324,8.6709,8.7248,8.7786,8.8248,8.8902,8.9671,9.0124,9.0239,9.0778,9.1133,9.1163,9.1201,9.1201,9.1201,9.1201,9.1201,9.1201,9.1201,9.1201,9.1201,9.1163,9.0941,9.0124,9.0086,8.9671,8.8979,8.8286,8.7825,8.7478,8.6786,8.6239,8.6162,8.6094,8.6094,8.6094,8.6094,8.6201,8.6324,8.6824,8.7363,8.7555,8.7594,8.7594,8.744,8.6824,8.644,8.6094,8.6094,8.6094,8.6094,8.6094,8.6094,8.6094,8.6094,8.6094,8.6094,8.6094,8.6094,8.6094,8.6094,8.6094,8.6094,8.6094,8.6094,8.6094,8.6094,8.6094,8.6094,8.5824,8.5517,8.5747,8.567,8.5478,8.5286,8.5132,8.467,8.4024,8.364,8.3362,8.2963,8.2494,8.2264,7.5976,7.5976,7.5976,7.6976,7.8369,7.8484,7.9485,8.09,8.1093,8.0631,7.99,7.9815,7.94,7.8792,7.8523,7.8907,7.99,8.1093,8.2362,8.3524,8.4747,8.5863,8.5978,8.6094,8.6094,8.6094,8.6094,8.6094,8.6094,8.6094,8.6094,8.6247,8.6786,8.7286,8.7786,8.8632,8.9355,8.9748,9.0432,9.0816,9.0932,9.1047,9.1201,9.1201,9.1201,9.1201,9.1201,9.1201,9.1201,9.1201,9.1201,9.1201,9.1201,9.1201,9.1086,9.0932,9.0864,9.0479,8.9787,8.9509,8.8709,8.7825,8.7209,8.6748,8.6363,8.6132,8.617,8.6209,8.6247,8.6401,8.7132,8.7517,8.7825,8.8209,8.8487,8.8487,8.8333,8.7748,8.6978,8.6594,8.6363,8.6094,8.6094,8.6094,8.6094,8.6094,8.6094,8.6094,8.6094,8.6094,8.6094,8.6094,8.6094,8.6094,8.6094,8.6094,8.6094,8.6094,8.6094,8.6094,8.6094,8.6094,8.6094,8.6094,8.6094,8.5901,8.5824,8.5778,8.544,8.4786,8.4555,8.4401,8.3817,8.3272,8.2935,7.5976,7.5976,7.5976,7.6976,7.833,7.8484,7.9477,8.0939,8.1093,8.0862,8.0592,8.0439,8.0246,7.9939,7.9869,8.0323,8.1246,8.2324,8.3439,8.4439,8.5478,8.6094,8.6094,8.6094,8.6094,8.6094,8.6094,8.6094,8.6094,8.6094,8.6094,8.6286,8.6978,8.7594,8.8209,8.921,9.0086,9.0509,9.097,9.1201,9.1201,9.1201,9.1201,9.1201,9.1201,9.1201,9.1201,9.1201,9.1201,9.1201,9.1201,9.1201,9.1201,9.1201,9.1201,9.1201,9.121,9.1056,9.0509,9.0201,8.947,8.8778,8.7979,8.7286,8.6786,8.6478,8.6363,8.6632,8.6786,8.7132,8.7987,8.8363,8.8863,8.9171,8.9325,8.9325,8.9133,8.8517,8.794,8.7248,8.6709,8.6363,8.6094,8.6094,8.6094,8.6094,8.6094,8.6094,8.6094,8.6094,8.6094,8.6094,8.6094,8.6094,8.6094,8.6094,8.6094,8.6094,8.6094,8.6094,8.6094,8.6094,8.6094,8.6094,8.6094,8.6094,8.6055,8.594,8.5747,8.5593,8.5401,8.5102,8.4518,8.4064,8.3728,7.5976,7.5976,7.5976,7.6938,7.8369,7.8484,7.9485,8.0862,8.1093,8.1093,8.1093,8.1054,8.1054,8.1054,8.117,8.1554,8.2516,8.3332,8.4093,8.5132,8.5747,8.6094,8.6094,8.6094,8.6094,8.6094,8.6094,8.6094,8.6094,8.6094,8.6094,8.644,8.7094,8.794,8.8718,8.971,9.0479,9.0932,9.1201,9.1201,9.1201,9.1201,9.1201,9.1201,9.1201,9.1201,9.1201,9.1201,9.1201,9.1201,9.1201,9.1201,9.1201,9.1201,9.1201,9.1201,9.1201,9.1201,9.1009,9.0663,9.0124,8.9586,8.8632,8.794,8.7286,8.6863,8.6709,8.7248,8.7632,8.8017,8.8825,8.9479,8.9893,9.0124,9.0163,9.0124,8.994,8.9556,8.9056,8.8248,8.7286,8.6824,8.6709,8.6094,8.6094,8.6094,8.6094,8.6094,8.6094,8.6094,8.6094,8.6094,8.6094,8.6094,8.6094,8.6094,8.6094,8.6094,8.6094,8.6094,8.6094,8.6094,8.6094,8.6094,8.6094,8.6094,8.6094,8.6094,8.594,8.5901,8.6055,8.5833,8.5272,8.4789,8.4414,7.5976,7.5976,7.5976,7.6938,7.833,7.8484,7.9485,8.0939,8.1054,8.1093,8.1093,8.1093,8.1093,8.1093,8.1093,8.1977,8.3062,8.3563,8.4401,8.567,8.6017,8.6094,8.6094,8.6094,8.6094,8.6094,8.6094,8.6094,8.6094,8.6094,8.6094,8.6363,8.7594,8.8603,8.8795,9.0133,9.1056,9.1163,9.1201,9.1201,9.1201,9.1201,9.1201,9.1201,9.1201,9.1201,9.1201,9.1201,9.1201,9.1201,9.1201,9.1201,9.1201,9.1201,9.1201,9.1201,9.1201,9.1201,9.1171,9.0979,9.0624,9.0163,8.9547,8.8786,8.794,8.7478,8.7363,8.7363,8.8055,8.8902,8.9547,8.9855,9.0316,9.0663,9.0855,9.0893,9.0816,9.0316,8.9863,8.9479,8.8594,8.794,8.7594,8.6748,8.6094,8.6094,8.6094,8.6132,8.6094,8.6094,8.6094,8.6094,8.6094,8.6094,8.6094,8.6094,8.6094,8.6094,8.6094,8.6094,8.6094,8.6094,8.6094,8.6094,8.6094,8.6094,8.6094,8.6094,8.6094,8.6094,8.6094,8.6094,8.6017,8.5543,8.5067,7.5976,7.5976,7.5976,7.6669,7.7792,7.8292,7.9215,8.0285,8.09,8.1093,8.1093,8.1093,8.1093,8.1093,8.1093,8.2016,8.3293,8.3601,8.4516,8.5786,8.6094,8.6094,8.6094,8.6094,8.6094,8.6094,8.6094,8.6094,8.6094,8.6094,8.6094,8.6363,8.7748,8.8641,8.8833,9.0364,9.1018,9.1201,9.1201,9.1201,9.1201,9.1201,9.1201,9.1201,9.1201,9.1201,9.1201,9.1201,9.1201,9.1201,9.1201,9.1201,9.1201,9.1201,9.1201,9.1201,9.1201,9.1201,9.1201,9.1201,9.0932,9.0624,9.0163,8.9316,8.8402,8.8132,8.8402,8.8825,8.9133,8.9739,9.0393,9.0633,9.0816,9.1086,9.1201,9.1201,9.1163,9.097,9.0594,9.0287,8.994,8.9248,8.8671,8.8171,8.7401,8.6901,8.6786,8.6671,8.6401,8.6094,8.6094,8.6094,8.6094,8.6094,8.6094,8.6094,8.6094,8.6094,8.6094,8.6094,8.6094,8.6094,8.6094,8.6094,8.6094,8.6094,8.6094,8.6094,8.6094,8.6094,8.6094,8.6094,8.6094,8.6025,8.5576,7.5976,7.5976,7.5976,7.6515,7.7361,7.8176,7.8977,7.9862,8.0746,8.1093,8.1093,8.1093,8.1093,8.1093,8.117,8.1862,8.3216,8.3486,8.4478,8.5401,8.597,8.6094,8.6094,8.6094,8.6094,8.6094,8.6094,8.6094,8.6094,8.6094,8.6094,8.617,8.7478,8.8372,8.9026,9.0017,9.0855,9.1201,9.1201,9.1201,9.1201,9.1201,9.1201,9.1201,9.1201,9.1201,9.1201,9.1201,9.1201,9.1201,9.1201,9.1201,9.1201,9.1201,9.1201,9.1201,9.1201,9.1201,9.1201,9.1201,9.1201,9.0932,9.0432,8.9624,8.921,8.9017,8.9133,8.9663,9.0086,9.0547,9.0979,9.1133,9.1124,9.1124,9.1201,9.1201,9.1163,9.1047,9.1018,9.0825,9.0556,9.0441,8.994,8.9594,8.891,8.7987,8.7525,8.7248,8.6863,8.644,8.6209,8.6247,8.617,8.617,8.6132,8.6132,8.6094,8.6094,8.6094,8.6094,8.6094,8.6094,8.6094,8.6094,8.6094,8.6094,8.6094,8.6094,8.6094,8.6094,8.6094,8.6094,8.6094,8.6094,8.6076,7.5976,7.5976,7.5976,7.6476,7.733,7.8176,7.8977,7.9746,8.0708,8.1093,8.1093,8.1093,8.1093,8.1093,8.117,8.1593,8.2477,8.3255,8.417,8.5016,8.567,8.6017,8.6094,8.6094,8.6094,8.6094,8.6094,8.6094,8.6094,8.6094,8.6094,8.6286,8.7209,8.794,8.8786,8.9825,9.0701,9.1047,9.1201,9.1201,9.1201,9.1201,9.1201,9.1201,9.1201,9.1201,9.1201,9.1201,9.1201,9.1201,9.1201,9.1201,9.1201,9.1201,9.1201,9.1201,9.1201,9.1201,9.1201,9.1201,9.1201,9.0941,9.0556,9.0009,8.9863,8.9825,8.9932,9.0086,9.0547,9.0932,9.1124,9.1201,9.1201,9.1201,9.1201,9.1201,9.1201,9.1163,9.1133,9.1171,9.1056,9.0864,9.0787,9.0402,8.9748,8.8825,8.8218,8.7948,8.7478,8.7055,8.6632,8.644,8.6286,8.6247,8.6162,8.6162,8.6094,8.6094,8.6094,8.6094,8.6094,8.6094,8.6094,8.6094,8.6094,8.6094,8.6094,8.6094,8.6094,8.6094,8.6094,8.6094,8.6094,8.6094,8.6185,7.5976,7.5976,7.5976,7.6169,7.6592,7.7946,7.8677,7.9208,8.0477,8.1093,8.1077,8.1093,8.1093,8.1085,8.1131,8.1554,8.237,8.3216,8.4055,8.4901,8.5632,8.6017,8.6094,8.6094,8.6094,8.6094,8.6094,8.6094,8.6094,8.6094,8.6094,8.6363,8.694,8.7825,8.8748,8.9902,9.0778,9.1009,9.1201,9.1201,9.1201,9.1201,9.1201,9.1201,9.1201,9.1201,9.1201,9.1201,9.1201,9.1201,9.1201,9.1201,9.1201,9.1201,9.1201,9.1201,9.1201,9.1201,9.1201,9.1201,9.1201,9.1171,9.0902,9.0663,9.0586,9.0663,9.0663,9.0816,9.0932,9.1163,9.1201,9.1201,9.1201,9.1201,9.1201,9.1201,9.1201,9.1201,9.1201,9.121,9.121,9.1086,9.1124,9.1086,9.0355,8.9624,8.9094,8.8603,8.8179,8.7795,8.7401,8.7171,8.7055,8.694,8.6901,8.6555,8.617,8.6209,8.6247,8.6247,8.6324,8.6094,8.6094,8.6094,8.6094,8.6094,8.6094,8.6094,8.6094,8.6094,8.6094,8.6094,8.6094,8.6094,8.6192,7.5976,7.5976,7.5976,7.5976,7.6207,7.7792,7.8484,7.8792,8.0362,8.0959,8.0775,8.0626,8.0643,8.0741,8.0813,8.1197,8.2015,8.3016,8.3832,8.467,8.544,8.5978,8.6094,8.6094,8.6094,8.6094,8.6094,8.6094,8.6094,8.6094,8.6094,8.6286,8.6709,8.7517,8.8872,9.0248,9.1163,9.1201,9.1201,9.1201,9.1201,9.1201,9.1201,9.1201,9.1201,9.1201,9.1201,9.1201,9.1201,9.1201,9.1201,9.1201,9.1201,9.1201,9.1201,9.1201,9.1201,9.1201,9.1201,9.1201,9.1201,9.1171,9.1163,9.1124,9.1201,9.1201,9.1047,9.1086,9.1163,9.1201,9.1201,9.1201,9.1201,9.1201,9.1201,9.1201,9.1201,9.1201,9.1201,9.1201,9.1201,9.1201,9.1201,9.1201,9.0932,9.0239,8.971,8.9286,8.9017,8.8671,8.8372,8.8141,8.8025,8.791,8.7786,8.7517,8.7286,8.7209,8.7171,8.6709,8.6632,8.644,8.617,8.6094,8.6094,8.6094,8.6094,8.6094,8.6094,8.6094,8.6094,8.6094,8.6094,8.6094,8.6094,7.5976,7.5976,7.5976,7.5976,7.6207,7.7792,7.8484,7.87,8.0238,8.0698,8.0115,7.9659,7.9701,8.0056,8.0134,8.0467,8.1261,8.2629,8.3483,8.3806,8.5155,8.5864,8.606,8.6043,8.6094,8.6094,8.6094,8.6094,8.6094,8.6094,8.6094,8.6129,8.6411,8.715,8.8701,9.0325,9.1124,9.1201,9.1201,9.1201,9.1201,9.1201,9.1201,9.1201,9.1201,9.1201,9.1201,9.1201,9.1201,9.1201,9.1201,9.1201,9.1201,9.1201,9.1201,9.1201,9.1201,9.1201,9.1201,9.1201,9.1201,9.1201,9.1201,9.1201,9.1201,9.1201,9.1201,9.1201,9.1201,9.1201,9.1201,9.1201,9.1201,9.1201,9.1201,9.1201,9.1201,9.1201,9.1201,9.1201,9.1201,9.1201,9.1201,9.1201,9.1201,9.0816,9.0316,8.997,8.9778,8.9671,8.9402,8.918,8.9026,8.8748,8.8632,8.8564,8.8449,8.8333,8.8025,8.7594,8.7209,8.7055,8.6748,8.6324,8.6286,8.644,8.6286,8.6094,8.6094,8.6094,8.6094,8.6094,8.6094,8.6094,8.6094,7.5976,7.5976,7.5976,7.5976,7.6245,7.7792,7.8484,7.8739,7.9783,8.0086,7.9556,7.9256,7.9267,7.9469,7.9513,7.967,8.0169,8.1527,8.2336,8.2638,8.4459,8.5198,8.5523,8.5811,8.6043,8.6085,8.6085,8.5988,8.6094,8.5954,8.6052,8.6099,8.6105,8.7214,8.8516,8.9863,9.0509,9.1086,9.1201,9.1201,9.1192,9.1145,9.1192,9.1154,9.1136,9.1201,9.1201,9.1201,9.1201,9.1201,9.1201,9.1201,9.1201,9.1201,9.1201,9.1201,9.1201,9.1201,9.1201,9.1201,9.1201,9.1201,9.1201,9.1201,9.1201,9.1201,9.1201,9.1201,9.1201,9.1201,9.1201,9.1201,9.1201,9.1201,9.1201,9.1201,9.1201,9.1201,9.1201,9.1201,9.1201,9.1201,9.1201,9.1201,9.1201,9.1201,9.074,9.0701,9.0586,9.0663,9.0556,9.0325,9.0094,8.971,8.944,8.9363,8.918,8.8949,8.8718,8.8372,8.8055,8.7786,8.7478,8.7171,8.6978,8.6824,8.6517,8.6247,8.6132,8.6094,8.6094,8.6094,8.6094,8.6094,8.6094,7.5818,7.5962,7.5787,7.5694,7.5963,7.7489,7.8373,7.8767,7.9271,7.9233,7.8877,7.8678,7.8704,7.8791,7.8877,7.9093,7.9352,8.0908,8.17,8.1974,8.3786,8.4741,8.5182,8.533,8.5437,8.5627,8.5514,8.5408,8.53,8.5369,8.534,8.5373,8.5609,8.6409,8.7638,8.8721,8.9561,9.0155,9.0447,9.0586,9.0606,9.0743,9.1026,9.0932,9.0998,9.1201,9.1201,9.1201,9.1201,9.1201,9.1201,9.1201,9.1201,9.1201,9.1201,9.1201,9.1201,9.1201,9.1201,9.1201,9.1201,9.1201,9.1201,9.1201,9.1201,9.1201,9.1201,9.1201,9.1201,9.1201,9.1201,9.1201,9.1201,9.1201,9.1201,9.1201,9.1201,9.1201,9.1201,9.1201,9.1201,9.1201,9.1201,9.1201,9.1201,9.1201,9.1163,9.1201,9.1201,9.1201,9.1201,9.0979,9.0825,9.0479,9.021,9.0133,8.9902,8.9594,8.9363,8.9133,8.8902,8.8632,8.8286,8.8025,8.7872,8.7517,8.6824,8.6478,8.6324,8.6209,8.6094,8.6094,8.6094,8.6094,8.6094,7.543,7.5818,7.5344,7.5082,7.5339,7.6799,7.808,7.8975,7.8552,7.8349,7.8241,7.7651,7.776,7.82,7.8268,7.8523,7.9216,8.0705,8.1257,8.1984,8.3301,8.4152,8.4594,8.4583,8.4833,8.4785,8.4718,8.4617,8.4288,8.4513,8.449,8.4337,8.4427,8.5296,8.6379,8.7223,8.823,8.9222,8.9859,8.987,8.9801,9.0436,9.0606,9.0616,9.0791,9.1118,9.1201,9.1201,9.1201,9.1201,9.1201,9.1201,9.1201,9.1201,9.1201,9.1201,9.1201,9.1201,9.1201,9.1201,9.1201,9.1201,9.1201,9.1201,9.1201,9.1201,9.1201,9.1201,9.1201,9.1201,9.1201,9.1201,9.1201,9.1201,9.1201,9.1201,9.1201,9.1201,9.1201,9.1201,9.1201,9.1201,9.1201,9.1201,9.1201,9.1201,9.1201,9.1201,9.1201,9.1201,9.1201,9.1163,9.1086,9.1124,9.0932,9.071,9.0633,9.0325,9.0171,8.994,8.971,8.9479,8.921,8.894,8.8718,8.8295,8.7602,8.7017,8.6555,8.644,8.6478,8.6209,8.6247,8.6132,8.6094,7.498,7.4759,7.4609,7.4537,7.4701,7.5814,7.6867,7.7665,7.8064,7.8049,7.7585,7.7396,7.7435,7.7599,7.7599,7.7753,7.8461,7.9356,8.0082,8.1116,8.2575,8.3321,8.3785,8.4004,8.4252,8.4325,8.4252,8.4029,8.4142,8.4129,8.4117,8.4191,8.3677,8.424,8.4861,8.5417,8.7065,8.8428,8.9124,8.9123,8.9289,8.9984,9.0106,9.0305,9.0829,9.1109,9.1201,9.1201,9.1201,9.1201,9.1201,9.1201,9.1201,9.1201,9.1201,9.1201,9.1201,9.1201,9.1201,9.1201,9.1201,9.1201,9.1201,9.1201,9.1201,9.1201,9.1201,9.1201,9.1201,9.1201,9.1201,9.1201,9.1201,9.1201,9.1201,9.1201,9.1201,9.1201,9.1201,9.1201,9.1201,9.1201,9.1201,9.1201,9.1201,9.1201,9.1201,9.1201,9.1201,9.1201,9.1201,9.1201,9.1201,9.1201,9.1201,9.097,9.1047,9.1047,9.0816,9.0663,9.0586,9.0364,9.0094,8.9748,8.9325,8.891,8.841,8.7872,8.7325,8.7132,8.7094,8.6671,8.6363,8.6247,8.6132,7.4373,7.4271,7.4038,7.4122,7.4492,7.5148,7.594,7.6732,7.757,7.7622,7.732,7.7326,7.7326,7.732,7.7335,7.7387,7.7512,7.909,7.9936,8.0423,8.1908,8.2771,8.3275,8.3373,8.3502,8.3637,8.3556,8.3246,8.3461,8.3419,8.335,8.3303,8.2906,8.335,8.3966,8.4716,8.5778,8.7213,8.8198,8.8428,8.8791,8.9389,8.9832,8.9912,9.0586,9.1026,9.1127,9.1127,9.1154,9.1201,9.1201,9.1201,9.1201,9.1201,9.1201,9.1201,9.1201,9.1201,9.1201,9.1201,9.1201,9.1201,9.1201,9.1201,9.1201,9.1201,9.1201,9.1201,9.1201,9.1201,9.1201,9.1201,9.1201,9.1201,9.1201,9.1201,9.1201,9.1201,9.1201,9.1201,9.1201,9.1201,9.1201,9.1201,9.1201,9.1201,9.1201,9.1201,9.1201,9.1201,9.1201,9.1201,9.1201,9.1201,9.1201,9.1201,9.1201,9.1201,9.1124,9.1047,9.1201,9.1047,9.0671,9.0248,8.9787,8.944,8.9171,8.8718,8.8295,8.8055,8.7902,8.7671,8.7171,8.6517,8.6363,7.3687,7.4072,7.3578,7.3799,7.45,7.4835,7.5404,7.6166,7.6998,7.7289,7.7326,7.7326,7.7326,7.7326,7.7326,7.7326,7.7803,7.8993,7.9816,7.9926,8.1544,8.2554,8.2724,8.26,8.2838,8.2808,8.2739,8.26,8.2359,8.2434,8.256,8.2203,8.2263,8.2658,8.3268,8.4231,8.5189,8.5955,8.7206,8.783,8.7861,8.864,8.9678,8.9339,9.0089,9.0924,9.0962,9.1008,9.1118,9.11,9.1192,9.1192,9.1201,9.1201,9.1201,9.1201,9.1201,9.1201,9.1201,9.1201,9.1201,9.1201,9.1201,9.1201,9.1201,9.1201,9.1201,9.1201,9.1201,9.1201,9.1201,9.1201,9.1201,9.1201,9.1201,9.1201,9.1201,9.1201,9.1201,9.1201,9.1201,9.1201,9.1201,9.1201,9.1201,9.1201,9.1201,9.1201,9.1201,9.1201,9.1201,9.1201,9.1201,9.1201,9.1201,9.1201,9.1201,9.1201,9.1201,9.1201,9.1201,9.1201,9.1201,9.0748,9.0325,9.0201,8.9932,8.9594,8.9286,8.8902,8.8748,8.8756,8.8171,8.7325,8.6824,7.3224,7.2953,7.2761,7.317,7.3967,7.4625,7.5344,7.6166,7.6959,7.7289,7.7326,7.7326,7.7326,7.7326,7.7326,7.7326,7.7693,7.8919,7.9669,8.0293,8.1452,8.2263,8.2434,8.2343,8.2343,8.2311,8.2267,8.2186,8.2186,8.2186,8.2186,8.2186,8.2186,8.2406,8.27,8.3801,8.4809,8.5156,8.6447,8.7258,8.7328,8.7789,8.8475,8.8617,8.9263,8.9742,8.9893,9.0198,9.0294,9.0378,9.0971,9.1127,9.1201,9.1201,9.1201,9.1201,9.1201,9.1201,9.1201,9.1201,9.1201,9.1201,9.1201,9.1201,9.1201,9.1201,9.1201,9.1201,9.1201,9.1201,9.1201,9.1201,9.1201,9.1201,9.1201,9.1201,9.1201,9.1201,9.1201,9.1201,9.1201,9.1201,9.1201,9.1201,9.1201,9.1201,9.1201,9.1201,9.1201,9.1201,9.1201,9.1201,9.1201,9.1201,9.1201,9.1201,9.1201,9.1201,9.1201,9.1201,9.1201,9.1201,9.1201,9.1171,9.0979,9.074,9.0663,9.0778,9.0441,8.9863,8.9594,8.9556,8.9141,8.8363,8.7786,7.2803,7.251,7.2532,7.3193,7.4184,7.472,7.5564,7.6592,7.7105,7.7326,7.7326,7.7326,7.7326,7.7326,7.7326,7.7326,7.7619,7.9029,7.9633,8.0293,8.1269,8.1966,8.2186,8.2186,8.2219,8.2186,8.2186,8.2186,8.2186,8.2186,8.2186,8.2186,8.2186,8.2223,8.246,8.3654,8.4609,8.4682,8.6207,8.6867,8.7064,8.7635,8.8061,8.8294,8.8622,8.899,8.9339,8.9716,8.999,9.0305,9.0839,9.1127,9.1201,9.1201,9.1201,9.1201,9.1201,9.1201,9.1201,9.1201,9.1201,9.1201,9.1201,9.1201,9.1201,9.1201,9.1201,9.1201,9.1201,9.1201,9.1201,9.1201,9.1201,9.1201,9.1201,9.1201,9.1201,9.1201,9.1201,9.1201,9.1201,9.1201,9.1201,9.1201,9.1201,9.1201,9.1201,9.1201,9.1201,9.1201,9.1201,9.1201,9.1201,9.1201,9.1201,9.1201,9.1201,9.1201,9.1201,9.1201,9.1201,9.1201,9.1163,9.1171,9.1171,9.1124,9.1124,9.1201,9.1124,9.0633,9.0441,9.0355,8.9863,8.941,8.8979,7.251,7.2496,7.2532,7.3413,7.4757,7.4903,7.5784,7.7105,7.7326,7.7326,7.7326,7.7326,7.7326,7.7326,7.7326,7.7326,7.7803,7.9103,7.9669,8.0257,8.1468,8.2003,8.2186,8.2186,8.2186,8.2186,8.2186,8.2186,8.2186,8.2186,8.2186,8.2186,8.2186,8.2186,8.2663,8.3618,8.4609,8.5013,8.5967,8.6831,8.7281,8.7586,8.7773,8.8115,8.8437,8.8801,8.9005,8.9351,8.9713,9.0116,9.0447,9.0923,9.1145,9.1201,9.1201,9.1201,9.1201,9.1201,9.1201,9.1201,9.1201,9.1201,9.1201,9.1201,9.1201,9.1201,9.1201,9.1201,9.1201,9.1201,9.1201,9.1201,9.1201,9.1201,9.1201,9.1201,9.1201,9.1201,9.1201,9.1201,9.1201,9.1201,9.1201,9.1201,9.1201,9.1201,9.1201,9.1201,9.1201,9.1201,9.1201,9.1201,9.1201,9.1201,9.1201,9.1201,9.1201,9.1201,9.1201,9.1201,9.1201,9.1201,9.1201,9.1201,9.1201,9.1201,9.1201,9.1201,9.1124,9.1086,9.097,9.0778,9.071,9.0325,9.0133,7.2532,7.2532,7.2532,7.3435,7.4757,7.4903,7.5821,7.7142,7.7326,7.7326,7.7326,7.7326,7.7326,7.7326,7.7326,7.7326,7.7582,7.8993,7.9669,8.0073,8.1468,8.2003,8.2186,8.2186,8.2186,8.2186,8.2186,8.2186,8.2186,8.2186,8.2186,8.2186,8.2186,8.226,8.248,8.3544,8.4646,8.5086,8.6004,8.7014,8.7014,8.7163,8.7146,8.7278,8.7328,8.7374,8.7581,8.8115,8.8359,8.8815,8.9681,9.0556,9.1008,9.1201,9.1201,9.1201,9.1201,9.1201,9.1201,9.1201,9.1201,9.1201,9.1201,9.1201,9.1201,9.1201,9.1201,9.1201,9.1201,9.1201,9.1201,9.1201,9.1201,9.1201,9.1201,9.1201,9.1201,9.1201,9.1201,9.1201,9.1201,9.1201,9.1201,9.1201,9.1201,9.1201,9.1201,9.1201,9.1201,9.1201,9.1201,9.1201,9.1201,9.1201,9.1201,9.1201,9.1201,9.1201,9.1201,9.1201,9.1201,9.1201,9.1201,9.1201,9.1201,9.1201,9.1201,9.1201,9.1163,9.1163,9.1163,9.1124,9.1133,9.1056,9.074]}]]